GFSGBSN_850_thetae_000.txt.gz
Theta_e
310 311 311 312 312 313 313 314 314 314 314 314 314 313 312 311 310 310 310 310 312 313 314 315 314 315 315 317 320 317 318 318 318 318 321 321 321 321 321 320 319 319 318 318 317 316 318
310 312 312 312 313 313 314 314 314 314 314 314 313 313 312 311 310 310 310 311 313 314 316 317 313 315 314 321 318 318 318 319 319 319 319 320 320 320 319 319 319 319 318 318 318 319 318
312 312 313 313 313 313 314 315 314 314 313 313 313 313 313 312 311 311 312 313 314 316 317 316 313 313 318 321 317 317 318 318 319 320 320 320 320 319 320 320 320 319 320 320 320 321 320
313 313 314 313 313 314 314 315 314 313 313 312 311 312 313 312 312 312 313 314 315 316 317 315 311 313 322 318 317 317 317 318 318 320 320 319 319 321 322 320 319 320 321 321 321 321 322
313 314 314 313 313 314 315 315 315 316 315 313 312 311 312 312 312 313 313 314 316 317 317 314 314 315 322 316 317 317 317 318 318 320 319 319 320 320 320 320 320 321 321 322 323 321 322
314 315 314 313 313 314 315 316 316 317 317 316 314 313 312 312 312 313 314 316 318 318 317 317 318 324 318 318 317 316 317 318 320 320 320 320 321 321 321 322 322 321 321 320 320 322 320
314 315 314 313 313 314 315 316 316 317 317 317 315 314 313 312 313 313 315 316 317 319 320 320 318 319 316 315 317 318 317 319 321 321 323 320 322 323 322 321 320 320 320 320 322 321 320
315 315 314 313 313 314 314 316 316 316 317 317 316 315 314 313 313 315 318 326 324 321 319 318 318 318 318 319 318 317 318 320 320 321 321 319 322 320 320 320 320 320 320 321 322 321 320
314 315 314 314 313 314 314 315 316 316 317 317 318 316 315 314 315 316 322 327 325 319 320 319 319 318 319 320 320 319 320 319 320 321 319 323 321 320 320 322 321 322 321 324 323 322 322
313 314 314 314 313 313 314 315 315 316 316 318 319 318 316 315 317 322 325 320 320 318 321 317 319 318 319 319 320 319 319 320 320 320 321 321 320 321 322 323 322 323 322 321 321 321 322
311 312 314 314 313 313 314 314 315 316 316 317 317 319 319 317 325 323 325 316 316 322 332 319 319 319 318 321 320 320 319 320 320 321 321 322 322 323 323 322 321 323 322 321 322 322 322
309 310 313 314 313 313 314 314 315 316 316 316 317 317 318 319 326 325 320 316 315 338 330 319 320 321 320 320 321 321 320 321 322 322 323 322 321 322 322 321 321 322 323 323 323 324 331
309 310 311 313 313 313 314 314 314 315 316 315 317 317 319 323 326 318 316 318 331 331 321 320 321 321 321 321 322 322 322 323 324 324 324 323 322 322 321 323 324 323 324 330 332 335 332
308 310 310 313 314 313 315 315 313 314 315 315 316 317 317 321 321 317 318 326 329 322 321 320 321 321 322 322 322 323 323 323 322 324 323 324 326 322 321 321 321 323 323 331 329 332 327
309 309 309 312 314 314 315 314 314 313 315 315 315 316 319 316 315 316 326 342 329 320 321 320 321 321 322 322 322 323 322 321 320 321 324 325 324 321 320 320 320 323 323 320 324 325 326
309 309 309 311 313 314 316 315 315 314 314 315 316 320 321 317 313 317 332 331 324 321 320 320 321 322 322 321 322 323 322 321 320 319 319 319 325 319 319 321 322 321 320 324 327 328 324
309 309 308 310 312 314 315 316 317 313 313 315 321 319 324 314 314 322 334 327 321 320 321 320 322 321 323 322 323 323 323 321 321 320 320 319 323 321 320 322 322 322 323 321 319 323 324
309 309 308 309 311 313 315 316 319 314 314 318 320 322 319 315 320 322 329 323 320 321 322 323 323 323 323 323 323 323 323 323 319 320 321 318 320 327 320 319 319 320 321 319 326 323 327
309 309 308 308 310 313 315 317 319 314 314 319 322 325 315 316 329 339 324 323 322 321 321 322 323 323 324 324 324 323 323 320 320 321 321 320 325 327 322 323 321 319 320 318 321 320 320
309 310 308 307 308 311 314 318 319 315 319 325 325 328 319 321 327 325 325 323 323 322 322 323 323 322 323 324 323 324 323 321 320 318 315 318 320 320 323 319 317 318 317 317 317 324 322
310 310 309 308 307 309 313 317 318 319 318 322 326 324 319 332 328 324 323 323 323 322 322 322 322 322 323 324 324 323 323 320 319 315 319 320 322 320 318 317 316 316 316 317 317 318 318
310 310 310 309 308 308 310 313 318 319 321 320 325 324 323 324 322 323 321 323 323 322 322 321 322 322 323 324 321 322 320 319 320 319 320 319 325 319 320 317 316 317 316 316 316 316 317
310 310 309 309 309 307 309 312 315 317 317 322 321 321 324 323 324 326 326 323 323 322 322 321 322 323 324 321 320 320 319 319 318 320 322 320 322 320 323 318 318 322 320 317 317 317 317
310 310 309 309 309 308 308 310 314 315 317 322 322 322 324 330 329 326 324 322 322 322 321 320 320 323 320 318 317 318 319 319 319 319 320 315 318 320 321 318 325 319 316 317 316 316 316
309 309 309 309 309 308 308 309 313 315 315 316 317 323 324 320 327 324 322 321 321 320 321 321 321 320 319 320 324 318 318 314 316 317 319 319 322 316 322 319 317 317 317 316 316 316 316
309 308 309 309 309 308 307 308 310 315 315 316 316 319 323 324 328 321 321 321 326 326 323 320 321 320 320 324 321 319 325 320 320 317 316 317 317 322 317 318 318 319 316 315 315 318 317
309 308 308 308 308 308 307 308 309 314 316 317 315 317 322 323 322 322 323 324 322 323 323 321 321 321 321 320 315 329 324 318 320 320 316 315 316 318 318 317 317 315 315 314 317 319 316
309 308 308 308 308 308 308 307 309 312 316 318 318 316 322 322 321 322 321 322 321 321 326 321 322 323 324 316 320 324 321 322 321 318 317 317 318 315 318 317 318 315 315 316 317 315 314
310 308 308 308 307 307 308 308 308 310 314 317 323 317 318 322 321 319 320 320 320 320 322 321 320 322 322 324 321 323 316 314 321 321 316 320 321 322 319 319 316 315 315 315 315 314 312

GFSGBSN_850_thetae_003.txt.gz
Theta_e
308 309 310 311 311 312 312 313 313 314 314 314 314 313 313 312 310 310 309 310 309 311 312 314 314 314 315 315 318 317 318 318 315 315 317 320 321 320 317 317 318 315 315 316 316 316 318
309 309 311 311 312 312 313 314 314 314 313 313 313 313 312 311 310 309 310 310 311 312 314 315 315 315 315 321 318 318 318 318 319 319 320 320 320 320 319 317 316 318 317 316 316 317 318
309 310 312 312 313 313 313 314 314 313 312 312 313 313 312 311 310 310 310 311 312 314 314 316 315 314 314 316 318 317 318 318 319 320 320 319 320 320 319 318 319 318 315 315 316 319 317
309 312 312 313 313 313 314 314 314 314 313 312 312 313 312 311 310 310 311 312 313 314 316 316 314 314 314 319 317 317 317 318 318 320 320 319 319 320 320 318 318 318 316 316 317 318 319
310 313 313 314 313 313 314 315 315 316 315 313 311 312 312 311 311 311 312 313 314 316 317 316 315 314 321 317 315 317 317 318 318 319 319 318 320 320 319 315 315 317 315 318 318 319 319
312 313 314 314 313 313 314 315 316 316 316 315 312 311 312 311 312 312 313 314 316 317 317 316 318 323 322 318 317 317 317 319 320 320 320 319 320 316 315 315 318 319 318 318 318 318 318
313 314 315 314 313 314 314 316 316 316 317 316 314 312 312 312 312 313 314 315 317 317 320 318 319 321 316 316 317 317 318 319 321 320 320 321 318 318 319 319 319 318 318 319 318 319 319
314 314 315 314 313 313 314 316 316 316 317 316 315 313 312 312 313 313 315 320 326 325 320 319 318 318 318 318 318 318 318 320 320 319 319 317 318 319 319 320 320 319 320 321 319 319 318
313 315 315 314 313 313 314 315 316 316 316 318 316 314 312 313 313 315 318 326 325 320 319 319 318 318 319 320 319 318 320 320 319 319 319 319 319 319 320 320 321 320 321 320 320 319 318
312 314 314 314 313 313 314 315 316 316 316 319 319 315 313 313 315 316 320 325 322 317 316 317 318 317 319 319 319 319 318 320 319 320 319 319 320 321 321 321 319 323 321 321 320 319 318
311 313 313 314 313 313 313 314 315 316 315 318 319 318 314 315 324 324 325 319 316 318 319 318 319 318 319 320 319 319 316 321 320 319 320 321 320 321 321 320 320 322 321 321 321 320 320
311 312 312 314 313 313 313 314 315 315 315 318 317 318 318 319 327 324 321 316 315 321 325 319 319 320 319 320 321 320 320 321 322 320 319 320 321 320 320 321 320 320 322 322 321 321 321
310 310 311 313 313 313 313 313 314 315 315 316 317 317 320 325 328 319 316 315 321 321 321 319 320 321 320 321 320 321 322 320 321 322 321 321 321 320 321 321 321 320 321 322 322 320 321
309 310 311 313 313 313 313 314 313 314 315 315 317 316 320 323 324 317 316 323 326 324 320 319 320 321 321 321 321 322 321 319 318 321 323 322 322 319 319 320 320 321 322 319 326 319 322
308 310 310 312 313 313 315 314 314 313 315 315 315 316 317 317 317 317 324 323 325 321 320 320 320 322 321 322 322 321 319 318 318 317 322 324 322 319 318 318 319 323 318 318 320 319 318
308 310 309 311 313 314 315 315 314 313 315 315 315 316 320 316 315 316 324 326 325 320 320 319 320 321 321 320 321 322 321 320 320 319 318 319 322 318 318 320 321 319 318 320 316 320 318
308 309 309 310 312 314 315 315 315 313 314 315 318 318 321 319 314 318 322 326 321 321 322 321 322 320 323 320 321 322 321 320 319 320 317 319 322 319 319 319 320 320 322 319 318 315 316
308 309 308 309 311 314 315 317 317 313 314 315 322 321 324 318 317 322 323 327 320 320 322 322 323 322 323 322 323 323 323 321 320 321 319 317 317 314 319 318 319 319 320 320 314 321 314
309 309 308 309 310 313 316 317 318 313 314 317 322 325 319 316 315 316 326 322 321 320 321 322 323 323 322 323 322 323 322 320 320 318 318 318 317 316 321 321 319 319 319 321 318 310 314
309 309 308 308 309 312 315 317 317 313 315 320 326 318 318 322 326 327 324 323 322 322 322 323 322 322 323 323 322 323 322 321 318 315 316 319 319 315 315 317 315 316 317 317 318 313 315
309 309 308 307 308 310 314 317 317 314 316 322 324 321 316 313 319 323 324 322 323 322 322 322 322 322 322 322 323 323 321 320 319 316 319 317 318 317 316 315 316 316 316 315 316 314 313
309 310 309 308 307 309 312 316 319 315 315 320 323 325 317 318 318 323 320 322 322 322 321 322 321 322 322 319 321 321 320 319 320 318 320 318 316 314 316 317 316 315 314 314 314 315 315
309 310 310 309 308 308 310 314 318 318 319 320 323 321 325 325 321 321 320 323 323 321 320 321 321 319 317 320 320 320 319 319 320 319 317 313 308 311 316 315 313 312 315 317 316 316 316
309 310 309 309 308 308 309 312 315 317 319 324 321 322 324 315 318 322 324 323 321 321 320 322 321 318 319 319 319 319 318 317 319 319 314 309 311 307 308 307 311 318 315 315 316 315 315
309 309 309 309 308 308 308 310 315 316 318 320 319 325 322 313 325 323 323 321 321 321 321 321 320 319 318 319 310 310 307 306 309 319 317 315 306 305 310 309 311 314 316 315 315 315 316
309 309 309 309 308 308 308 309 314 315 315 315 318 323 321 323 320 324 322 321 317 318 316 321 320 320 321 315 306 310 312 313 314 317 312 313 305 307 305 307 306 311 316 316 315 312 315
309 309 308 308 308 308 307 309 312 316 315 316 316 319 324 322 322 323 321 320 322 321 314 321 321 321 321 308 311 312 313 315 315 313 308 305 304 305 309 303 308 312 315 315 312 311 315
308 308 308 308 308 308 308 308 310 315 317 319 316 321 322 322 321 322 322 321 321 321 313 321 315 319 312 309 309 309 309 310 311 314 311 308 307 311 309 309 309 313 314 311 312 315 314
309 308 308 308 308 308 308 308 309 311 317 321 318 318 321 321 321 321 322 322 322 322 321 320 316 322 320 309 309 311 309 310 306 309 314 313 311 311 310 309 311 315 315 316 316 314 313

GFSGBSN_850_thetae_006.txt.gz
Theta_e
307 307 308 309 310 311 311 312 312 313 314 313 313 313 313 313 312 311 310 309 309 309 310 311 313 313 314 315 316 316 318 318 317 315 314 314 318 321 316 315 316 312 313 315 316 317 315
306 307 308 309 311 311 312 312 313 314 313 313 313 313 313 312 311 310 309 309 309 310 311 313 313 314 315 317 319 317 318 318 318 318 319 319 320 320 318 317 314 315 314 314 315 317 317
306 308 309 310 311 312 312 313 314 314 313 312 312 312 312 311 310 309 309 309 310 311 313 313 315 315 315 317 318 317 317 318 318 319 319 319 319 319 319 316 316 315 312 313 314 317 317
307 308 309 311 312 313 313 314 314 314 314 313 311 312 312 311 310 309 309 310 312 313 314 315 315 314 314 318 318 317 317 317 317 320 319 319 319 319 318 317 317 315 313 314 315 316 318
307 309 310 312 313 313 313 314 315 316 316 314 312 311 312 311 310 310 311 312 313 314 315 316 315 314 314 320 317 317 316 318 318 318 317 318 320 319 318 312 312 313 313 315 317 316 317
308 309 312 313 314 313 313 314 315 316 316 315 312 311 312 311 311 311 312 313 314 315 316 315 320 318 316 318 316 316 316 318 319 320 319 319 319 314 313 312 314 314 316 314 316 316 317
309 310 313 313 313 313 314 315 315 316 316 315 313 311 311 311 312 312 313 315 317 317 318 315 317 320 319 318 317 316 316 319 320 320 318 319 316 316 317 316 317 317 317 315 316 316 317
309 312 313 314 313 313 314 315 315 316 316 315 313 312 311 312 313 313 315 321 326 325 320 316 318 319 318 317 317 317 317 319 319 318 318 315 317 317 318 319 319 319 319 318 318 318 316
309 313 314 314 313 313 314 315 315 316 316 316 313 312 312 312 313 314 317 323 323 319 321 318 318 318 319 319 317 318 319 320 318 318 317 317 318 318 319 318 320 319 319 319 319 318 314
310 313 314 314 313 313 314 315 315 316 318 318 313 312 313 313 314 315 316 325 322 321 312 316 317 317 319 319 318 318 318 319 319 317 317 318 319 320 319 319 319 322 320 319 319 317 314
312 313 314 314 313 313 313 315 315 316 318 319 315 314 313 315 324 323 324 325 318 322 313 315 318 318 319 319 319 318 318 321 319 318 318 319 319 319 319 319 319 321 320 320 319 318 318
312 313 314 314 313 313 313 314 315 315 317 318 318 316 315 317 326 323 323 316 317 318 318 318 318 318 317 319 319 318 319 321 321 318 317 318 320 319 319 319 320 319 321 320 319 318 318
312 313 313 313 313 313 313 314 315 315 315 317 317 318 321 322 325 321 316 316 317 316 320 317 318 319 319 319 320 320 318 317 318 319 319 319 319 319 319 320 319 317 320 319 320 317 319
311 311 312 313 313 313 313 313 314 315 315 317 316 318 324 322 324 320 316 318 323 321 319 317 318 319 320 320 319 319 319 317 316 319 319 320 320 318 317 318 319 320 319 317 324 318 319
310 310 311 312 313 313 313 313 314 315 315 315 316 317 318 317 318 317 321 317 322 321 318 319 319 320 320 320 319 318 317 317 317 317 320 320 320 319 317 317 319 321 315 316 317 314 315
309 309 311 311 313 313 314 314 313 314 315 315 316 316 316 317 316 316 320 321 324 320 320 318 319 320 319 319 320 320 319 319 319 316 317 319 319 318 317 320 319 315 316 319 313 317 317
308 310 310 311 312 313 315 314 313 313 315 315 315 315 316 315 316 315 318 321 323 320 322 319 320 319 320 318 319 320 320 318 318 319 316 319 317 317 319 318 319 318 318 317 315 312 314
308 309 309 310 312 314 315 314 314 313 314 315 319 316 321 320 312 317 320 324 320 319 321 321 322 322 320 321 323 321 321 320 320 320 316 316 313 312 318 317 318 318 319 315 312 319 310
309 309 308 309 311 314 315 316 315 313 314 318 322 325 324 318 307 306 321 322 320 319 320 321 321 321 321 321 322 322 320 318 315 316 318 316 313 313 318 319 316 318 318 319 313 307 313
309 308 308 309 311 314 316 317 314 313 314 318 323 315 319 320 321 320 322 321 321 321 321 321 321 321 320 321 320 321 321 319 314 314 316 317 317 313 316 316 314 315 315 317 314 310 313
309 308 307 308 310 313 316 318 315 313 314 321 324 316 315 309 314 321 322 321 321 321 321 321 320 321 320 321 322 321 320 319 317 316 317 315 315 315 314 314 315 315 314 314 315 314 314
309 308 307 307 309 312 315 318 315 313 315 320 323 321 314 312 314 320 319 321 321 321 320 321 320 321 319 317 319 320 318 317 318 317 318 313 312 311 315 316 315 314 313 313 313 313 313
309 308 308 307 308 310 313 317 316 313 315 319 322 323 315 319 314 317 316 320 321 320 320 320 319 317 316 319 318 318 319 319 318 317 313 310 306 306 311 310 310 309 313 316 315 314 314
309 309 308 307 307 309 312 316 318 315 314 321 323 324 322 312 313 316 322 321 319 319 320 319 319 316 318 318 318 317 317 318 317 313 311 308 309 302 304 302 306 315 313 314 316 316 313
309 309 309 308 307 308 310 315 317 317 318 322 321 325 322 307 317 321 320 320 320 320 319 320 318 319 316 313 306 308 305 308 308 314 315 309 301 305 304 306 306 311 314 314 313 316 313
309 309 309 308 307 308 309 314 315 317 320 318 317 324 321 319 317 323 319 319 313 314 313 320 317 320 317 306 304 308 307 309 313 316 310 308 301 304 306 302 302 307 314 315 313 312 313
309 309 309 308 307 307 309 312 315 315 314 314 320 321 322 322 322 321 319 319 320 316 311 319 320 320 317 299 305 310 312 312 313 311 307 303 300 304 303 299 305 307 312 314 312 309 313
309 309 309 308 308 307 308 310 315 315 316 316 317 320 322 321 322 322 321 321 320 319 312 319 315 317 307 304 301 308 308 308 309 311 309 308 306 304 301 302 309 310 313 311 310 315 315
309 308 308 308 308 308 308 309 312 316 319 316 319 322 320 319 321 321 321 321 320 319 318 319 314 317 316 307 307 311 308 308 302 309 311 311 307 308 309 309 309 312 314 314 314 315 314

GFSGBSN_850_thetae_009.txt.gz
Theta_e
310 308 308 307 307 308 309 310 312 312 313 313 313 313 313 313 313 312 311 310 309 308 309 309 311 313 313 315 316 317 317 317 316 316 315 315 315 317 316 315 316 313 312 314 314 314 315
308 308 307 307 308 309 310 311 312 313 313 313 312 312 312 313 312 311 310 309 309 309 309 311 313 313 314 315 318 317 317 317 317 317 317 316 315 316 319 316 312 313 312 313 315 316 314
308 307 306 307 308 309 311 312 313 313 313 312 312 311 312 312 312 310 309 309 309 309 311 312 313 314 314 317 318 317 316 317 317 317 319 319 318 319 317 313 315 313 312 312 313 315 315
308 306 306 307 309 310 312 312 313 314 314 314 313 311 312 312 311 309 309 309 309 311 312 314 315 314 314 317 317 317 316 316 317 318 318 318 318 318 316 315 314 313 311 312 313 315 315
307 305 306 308 309 311 312 313 314 314 315 315 314 311 311 311 310 309 309 310 311 312 314 315 315 314 313 317 318 316 316 317 318 319 319 319 320 317 316 311 311 310 313 314 316 314 315
308 306 307 308 311 312 313 313 314 315 315 315 314 311 311 311 310 310 311 312 313 314 315 315 318 315 314 317 315 317 316 318 319 319 319 319 319 313 311 309 310 314 315 313 314 314 315
309 306 307 309 311 313 313 314 314 315 315 315 313 311 311 311 311 311 312 314 316 317 317 313 315 316 319 319 316 316 316 319 320 319 316 317 315 315 315 315 315 316 315 314 313 315 314
309 306 308 310 312 313 313 314 315 315 316 315 313 311 311 311 312 313 314 321 325 323 322 314 315 317 318 317 316 316 316 318 318 316 316 314 317 316 316 317 318 317 317 317 316 314 315
309 307 309 312 313 313 313 314 315 315 315 315 313 312 311 312 312 314 317 320 323 321 321 317 318 318 318 318 316 317 318 319 317 317 316 316 317 317 317 317 319 319 318 318 317 315 315
308 308 309 312 314 313 313 314 315 315 316 315 313 312 312 312 314 314 316 324 323 321 311 314 316 317 318 318 317 318 318 319 318 316 315 317 318 318 318 318 318 321 319 318 316 316 318
308 308 311 313 314 313 313 314 315 315 317 317 314 313 313 315 320 317 324 323 320 322 311 314 317 318 318 319 317 317 319 321 317 317 317 319 319 318 318 318 318 320 319 318 318 315 315
308 309 312 313 314 313 313 314 315 315 317 317 316 313 313 319 323 322 322 316 318 316 315 317 317 317 316 318 318 318 320 321 319 316 316 318 318 318 318 318 318 318 319 318 317 316 317
309 309 313 314 313 313 313 314 314 315 316 317 317 314 314 322 326 320 317 316 313 317 318 317 317 317 317 318 318 317 316 316 318 318 318 317 317 316 318 320 318 317 318 318 319 316 318
309 310 312 313 313 313 313 313 314 315 316 316 317 317 320 322 324 319 318 313 321 319 318 316 317 317 319 319 317 317 317 316 315 318 317 319 319 317 315 318 319 318 318 318 322 317 318
309 312 312 312 313 313 313 313 314 315 315 316 317 322 322 318 320 318 316 314 319 319 317 317 318 319 319 319 317 317 316 315 316 316 320 319 319 317 316 316 318 319 315 315 315 311 315
309 311 311 312 313 313 312 313 314 314 315 316 318 319 318 317 317 316 318 319 323 320 318 317 319 318 318 318 319 318 319 318 318 315 315 318 317 317 316 318 317 316 315 317 312 315 316
311 310 310 311 313 313 312 313 313 314 315 315 316 316 317 316 316 315 314 319 323 319 321 318 317 318 318 317 318 319 319 318 318 318 316 318 314 316 317 317 317 317 317 314 313 311 313
310 308 309 310 312 313 313 313 313 313 315 314 316 310 319 316 313 313 316 320 322 318 320 321 320 319 318 320 321 320 320 319 317 319 316 316 312 312 317 315 316 316 317 313 309 317 308
308 308 309 310 312 313 314 314 313 313 314 316 317 325 325 319 308 304 315 322 319 318 319 320 320 320 319 320 320 320 319 317 314 315 317 315 312 313 318 317 314 318 317 314 310 307 314
308 308 308 310 312 314 315 314 314 313 314 317 319 315 322 320 313 311 317 319 320 320 320 320 319 319 319 320 318 320 320 318 314 315 316 316 314 312 315 316 313 314 315 315 312 309 311
308 307 308 310 312 314 315 315 314 313 314 319 321 313 318 310 314 320 319 319 320 320 320 319 319 320 319 321 320 320 319 317 315 316 316 312 313 314 313 313 314 314 314 314 315 313 313
308 307 308 309 312 314 316 317 315 313 315 321 323 316 313 310 315 318 317 321 319 320 319 320 318 320 318 316 317 319 316 315 316 317 316 309 311 309 315 313 313 313 311 310 311 312 313
307 307 307 308 311 314 316 318 314 313 316 320 322 323 314 312 312 315 314 319 319 318 319 319 318 316 315 317 317 317 316 316 316 316 311 307 305 304 306 308 309 306 310 313 313 314 312
307 307 306 308 310 312 316 317 314 313 314 318 322 323 320 309 308 312 319 319 319 318 319 318 318 315 315 317 317 317 317 316 315 313 310 307 304 299 303 301 304 309 310 312 313 314 312
308 307 307 307 309 311 315 317 314 313 315 319 322 324 321 307 313 318 319 318 318 319 318 318 318 317 316 314 307 310 305 307 307 312 310 307 301 305 302 304 305 309 313 314 313 313 311
308 308 307 307 308 311 316 317 316 314 315 320 321 323 319 320 316 320 318 318 311 313 312 318 316 316 316 303 303 305 307 309 312 316 309 305 299 302 303 300 301 305 312 313 312 310 313
309 308 308 307 308 311 316 316 317 317 317 320 320 322 320 321 322 320 317 317 317 314 310 318 319 318 314 298 300 308 310 308 312 310 306 303 298 300 298 298 304 304 312 312 312 309 313
309 308 308 307 308 310 315 316 316 317 318 316 321 320 321 321 322 321 320 320 319 318 312 318 315 316 305 303 301 303 304 307 308 309 309 309 306 302 303 302 308 308 310 311 311 311 314
309 308 308 307 307 309 312 316 317 317 316 316 318 321 321 321 320 321 321 320 319 319 319 319 316 315 314 304 301 304 306 306 302 309 309 309 306 307 307 308 308 310 313 314 313 313 314

GFSGBSN_850_thetae_012.txt.gz
Theta_e
313 311 307 306 307 307 307 308 309 310 311 312 313 313 312 312 312 312 312 311 310 309 308 308 310 311 312 313 314 318 316 317 317 317 317 315 315 316 316 316 315 314 313 312 313 316 315
313 312 307 306 308 307 307 308 309 311 312 313 313 312 311 311 312 312 311 311 309 308 308 309 311 311 313 315 317 318 317 316 317 316 316 316 315 314 318 314 314 314 311 312 313 312 313
314 312 309 307 307 307 307 308 310 312 313 313 312 312 311 311 312 312 311 309 308 308 309 310 311 313 313 315 317 317 317 316 317 317 317 317 316 316 318 315 314 311 311 311 312 314 312
314 313 310 307 307 307 308 309 311 312 313 313 314 314 311 311 311 310 309 309 308 309 311 311 313 314 312 315 316 317 316 316 316 316 317 317 317 317 317 314 313 311 309 311 312 314 313
314 312 311 307 306 307 308 310 312 313 313 314 315 314 312 311 311 310 309 309 310 311 312 313 315 314 313 315 317 317 316 316 317 318 318 317 317 316 313 311 310 309 311 314 315 314 314
314 313 311 307 306 307 309 312 312 313 314 315 315 313 311 311 310 309 310 310 311 312 313 315 317 315 313 316 317 316 316 316 319 319 318 318 317 312 311 309 312 311 313 312 314 314 311
314 314 310 308 306 307 310 312 313 313 314 315 315 313 311 311 310 310 311 312 315 316 316 312 314 314 316 317 316 316 316 318 319 319 317 316 313 313 315 313 312 313 314 313 313 313 315
315 314 310 308 306 308 311 313 313 314 314 315 314 312 310 310 310 311 312 318 325 321 321 314 313 314 317 317 316 316 316 318 317 316 315 313 315 315 316 316 316 315 314 315 314 314 316
315 315 309 308 306 309 312 313 313 314 315 315 314 311 310 311 311 312 316 319 322 322 320 317 317 317 318 316 316 316 318 318 316 316 314 314 316 316 317 316 318 318 316 317 315 317 315
315 315 309 308 307 310 312 313 313 314 315 315 314 311 311 311 312 313 314 321 324 322 311 314 315 316 317 317 316 318 318 318 316 314 315 317 317 317 316 317 317 320 318 316 315 316 319
316 315 309 307 307 311 313 313 313 314 315 315 313 312 312 313 315 316 324 320 321 322 311 313 316 317 318 318 316 317 320 319 316 316 316 318 318 317 317 318 318 319 316 316 315 314 314
316 316 309 307 308 312 313 313 313 314 315 316 314 312 313 319 321 322 320 317 319 315 314 315 316 316 316 317 317 318 320 319 317 315 315 316 317 316 317 317 317 317 318 315 315 314 315
316 316 310 308 309 313 313 313 313 314 315 316 315 313 314 321 324 319 317 317 313 316 317 316 316 316 316 316 316 316 315 315 316 317 318 316 316 315 317 319 316 316 316 317 318 315 317
315 316 311 308 311 313 313 313 313 314 315 316 317 315 315 324 323 318 317 311 318 318 317 315 316 315 317 318 317 315 315 315 314 315 316 318 317 316 315 317 318 317 317 316 320 317 318
315 317 310 308 312 313 313 313 313 314 314 315 316 317 323 321 319 318 316 309 315 316 316 316 317 318 318 318 316 316 315 314 315 315 319 318 318 316 315 315 317 317 314 314 314 311 314
315 316 309 309 312 313 313 313 313 314 314 315 317 321 319 316 317 316 313 315 321 319 317 316 317 317 318 318 318 317 318 317 317 315 315 317 317 315 315 317 315 316 313 315 311 315 315
315 315 309 310 313 313 313 312 313 313 314 315 320 319 318 316 316 316 310 315 321 322 319 317 317 317 317 317 317 318 317 318 317 318 316 315 313 314 316 316 317 316 315 312 312 309 311
316 312 308 312 312 312 313 313 313 313 313 315 319 310 319 316 312 310 313 319 321 317 319 320 317 317 316 319 319 319 318 318 316 318 316 314 312 312 316 315 315 315 316 311 308 313 307
316 310 310 312 311 312 313 313 313 313 313 315 316 323 322 316 307 304 312 319 320 317 319 319 320 318 318 319 319 319 318 316 313 315 315 313 312 314 316 314 313 317 316 311 308 307 313
313 309 311 311 311 312 312 313 314 313 314 317 317 317 324 320 310 310 315 317 319 319 319 319 318 318 318 319 317 319 319 316 314 315 315 313 311 312 313 314 312 314 316 312 311 308 310
310 309 309 310 311 312 313 314 314 313 314 318 317 315 319 311 312 312 313 318 319 319 319 318 318 318 318 320 319 319 318 316 314 315 315 310 313 313 313 312 313 313 313 313 313 311 312
309 308 309 310 311 312 313 314 314 313 314 320 320 315 314 312 317 317 315 318 318 319 318 319 318 318 317 315 316 317 315 313 312 315 313 307 309 308 315 311 310 313 311 310 311 311 311
307 308 308 309 311 313 314 315 314 313 315 321 322 319 318 308 311 314 313 319 318 317 318 317 317 315 316 317 316 315 314 313 314 314 309 305 304 304 304 306 305 306 308 309 309 309 309
307 307 308 309 311 313 315 316 314 313 315 319 321 321 316 305 305 312 316 318 318 317 317 317 317 314 315 316 316 316 315 314 313 311 308 303 302 298 303 300 303 308 308 309 311 312 310
307 307 307 309 311 313 316 317 315 313 315 318 321 322 318 303 308 314 317 316 317 318 317 317 317 316 315 314 307 311 306 307 306 309 306 304 300 302 303 302 304 307 311 312 312 311 310
306 306 307 309 310 313 316 317 314 313 315 317 320 322 321 312 311 316 317 316 309 311 310 317 314 314 314 301 302 307 310 311 311 315 308 303 298 301 298 300 301 305 308 312 311 311 311
306 307 307 308 310 315 316 316 313 312 314 317 320 320 320 321 320 319 316 316 316 313 308 317 315 316 312 297 299 303 306 307 311 310 306 304 300 299 298 297 302 303 311 312 312 310 311
307 307 308 309 313 316 316 316 313 313 315 318 320 321 320 321 321 319 318 318 317 317 311 317 313 315 304 304 301 302 300 306 307 308 309 309 305 301 299 298 306 306 311 311 311 310 312
307 307 308 310 313 317 317 317 316 315 317 318 320 322 321 321 320 320 320 319 318 318 318 318 316 315 313 303 296 301 306 305 301 308 307 309 306 305 304 306 306 308 310 313 312 311 312

GFSGBSN_850_thetae_015.txt.gz
Theta_e
313 312 311 312 309 307 306 307 308 308 308 310 311 312 313 311 311 311 312 312 311 310 308 307 308 309 311 312 313 316 317 318 316 316 315 315 315 315 318 317 315 315 314 312 312 316 320
317 313 312 313 310 306 307 307 307 308 309 311 312 313 312 312 311 311 312 311 310 309 308 308 309 311 312 314 316 317 316 316 317 317 317 316 315 315 316 315 316 315 312 311 311 313 313
323 314 313 313 311 307 307 307 307 308 310 312 313 313 313 312 311 311 311 310 309 308 308 309 310 311 313 313 316 316 316 316 316 316 316 316 315 315 316 315 313 311 313 312 312 312 312
323 319 313 313 313 307 307 307 307 308 311 312 313 313 314 313 311 311 310 309 308 308 309 310 311 313 313 315 315 317 317 316 315 315 316 316 316 315 316 314 312 313 313 314 313 314 312
323 323 314 314 313 309 306 306 307 309 312 313 313 314 314 312 311 310 309 308 309 310 310 312 314 313 314 315 317 317 316 316 316 316 315 316 316 316 312 314 314 314 315 314 315 313 314
322 323 316 314 313 310 305 306 307 310 312 313 314 314 314 312 311 310 309 309 310 311 312 314 315 315 313 316 317 316 316 316 318 316 316 316 314 315 313 314 316 315 315 314 316 314 317
321 322 319 314 314 310 306 306 308 311 312 313 314 314 313 311 310 309 310 311 314 314 314 313 312 313 314 317 317 315 316 317 318 317 317 315 317 317 316 313 312 313 314 315 313 315 320
319 321 321 314 314 310 307 306 308 312 313 314 314 314 312 310 310 310 311 315 321 320 320 315 314 313 315 316 316 316 315 318 318 317 315 317 317 315 316 316 316 316 316 316 316 317 320
318 319 321 315 314 311 307 306 309 312 313 314 314 314 311 310 310 311 313 320 320 322 320 318 317 317 317 316 316 315 316 318 316 316 315 318 316 315 317 317 319 318 318 316 319 319 318
313 317 320 318 314 313 307 306 310 312 313 314 314 314 311 310 311 313 316 315 324 324 314 315 315 315 316 316 316 317 317 318 316 315 317 319 316 316 317 318 317 320 317 317 319 320 322
305 316 319 320 315 313 307 307 311 313 313 314 314 313 311 311 315 314 319 323 322 323 317 313 315 316 317 316 316 317 319 319 316 316 317 318 317 317 319 317 317 319 316 318 315 317 318
304 308 317 319 315 313 307 307 312 313 313 314 314 313 311 312 317 317 324 319 322 319 318 314 316 315 316 316 316 318 319 318 317 317 317 316 316 316 317 316 316 317 318 318 317 318 321
303 305 315 318 316 313 307 308 312 313 313 314 315 313 312 314 320 323 320 320 317 320 316 315 315 315 316 316 316 315 316 317 319 321 320 318 317 315 316 319 317 318 320 323 324 326 322
302 305 312 317 316 313 308 309 313 313 313 313 314 314 313 318 325 320 320 314 316 317 317 314 315 315 317 317 316 315 316 317 315 316 318 319 318 316 315 318 319 318 320 325 323 324 323
302 304 309 316 316 312 308 310 313 313 313 313 313 315 314 318 325 319 314 314 315 315 316 315 316 318 318 317 317 316 315 316 315 315 321 320 320 315 314 315 318 318 318 316 318 313 319
302 304 308 315 316 312 308 312 313 313 313 313 314 316 316 322 321 319 314 313 317 317 317 315 316 317 318 318 318 317 317 316 316 316 314 318 319 315 315 316 315 317 314 319 317 319 318
301 304 307 314 316 311 308 313 313 313 313 312 313 317 322 319 319 315 315 313 320 322 319 316 317 317 317 318 317 318 317 317 317 317 316 314 317 317 316 317 319 318 317 314 315 315 316
301 304 306 313 316 310 310 313 313 312 313 312 318 313 320 317 312 309 314 316 321 319 318 318 316 316 317 318 319 319 319 317 315 317 318 314 316 319 317 315 315 316 316 315 318 314 312
302 304 308 313 316 309 312 313 313 313 313 313 318 322 323 315 311 309 311 318 320 317 317 318 319 317 318 319 320 319 318 314 313 314 317 314 317 320 319 316 315 317 316 312 311 312 316
303 303 306 310 314 309 312 313 312 313 312 316 318 319 323 315 311 311 314 316 319 318 318 317 317 317 319 319 317 319 318 315 314 315 314 313 313 316 320 315 314 316 316 312 314 317 314
303 303 306 313 311 310 311 313 312 313 312 317 317 316 320 314 310 310 311 315 318 319 318 317 318 317 318 320 319 318 317 315 315 315 313 313 316 313 313 312 313 313 314 313 314 314 318
302 304 309 313 309 310 312 312 313 313 312 318 316 315 314 312 312 312 311 318 318 317 318 318 319 317 317 318 317 319 316 314 314 315 313 308 313 310 315 312 311 313 312 312 313 313 312
303 305 309 310 309 309 312 312 313 313 312 318 319 317 315 307 312 313 313 315 317 317 317 316 317 316 317 317 315 313 312 312 313 315 310 309 309 309 311 307 308 312 311 312 311 311 314
306 310 310 308 308 311 312 313 313 313 313 318 319 316 314 307 309 312 315 317 317 316 318 316 316 316 315 315 315 314 313 312 311 308 307 306 305 303 311 305 313 312 310 310 311 311 310
310 310 307 307 309 311 312 314 314 313 313 319 320 317 316 305 309 312 315 316 316 317 316 316 316 315 315 313 312 313 311 311 309 308 306 304 306 306 314 310 308 310 308 312 314 314 312
310 307 307 308 310 312 313 314 314 313 314 319 319 320 319 310 310 315 316 316 313 313 313 314 313 313 312 303 308 314 317 314 312 314 308 305 302 310 306 311 311 310 306 312 311 317 311
307 307 307 309 311 313 314 315 315 313 315 319 320 320 321 315 313 316 316 316 315 313 313 312 313 313 310 305 309 312 313 308 312 312 310 310 306 309 302 312 309 306 309 311 315 315 309
306 307 308 309 311 313 316 317 315 313 315 318 318 320 321 320 317 318 317 317 315 317 315 314 315 314 306 310 311 309 311 310 310 309 311 312 311 310 302 308 313 305 311 315 314 311 310
307 308 309 311 314 315 316 317 315 313 315 316 317 319 321 320 319 319 318 318 318 318 318 315 316 313 312 309 303 304 309 306 305 315 308 313 311 312 309 312 307 307 311 312 312 311 311

GFSGBSN_850_thetae_018.txt.gz
Theta_e
323 323 322 314 312 312 310 307 307 307 308 308 308 310 312 312 312 311 311 312 312 311 310 308 307 308 310 315 315 316 313 313 315 315 315 315 316 316 317 318 319 319 319 317 316 321 325
323 323 323 320 313 312 310 306 306 307 308 308 309 311 313 312 313 311 311 312 311 310 308 307 308 310 311 317 315 316 315 314 314 314 316 316 317 317 319 319 319 319 317 316 314 321 321
322 323 323 323 316 312 311 308 307 307 307 308 310 312 313 313 313 311 311 311 310 309 308 308 309 311 312 316 316 317 315 315 316 316 318 317 316 316 318 320 316 316 316 316 315 319 320
320 322 322 322 321 313 311 309 307 307 307 308 311 313 313 314 313 311 311 310 309 308 308 309 311 312 317 314 315 316 316 317 316 315 317 317 317 317 318 316 315 316 317 318 317 318 315
319 318 322 322 323 315 312 310 307 307 307 309 312 313 314 314 312 311 310 309 308 308 310 311 313 314 318 314 315 317 316 316 316 315 316 316 316 318 317 319 316 316 317 317 318 318 317
309 317 319 321 323 318 313 311 306 306 307 310 312 313 314 314 311 310 309 308 309 310 311 313 314 318 315 317 317 315 315 315 317 316 316 317 318 320 318 318 317 317 318 317 317 320 317
307 315 317 320 322 321 314 311 307 306 307 311 313 314 314 313 311 310 309 310 312 315 313 317 315 316 315 316 317 315 315 316 317 318 321 318 319 319 319 318 317 318 318 318 318 321 323
307 309 315 318 322 322 315 313 308 306 308 312 313 314 314 312 310 309 310 311 317 321 321 315 314 313 314 314 317 316 315 319 320 320 320 319 320 319 320 318 319 319 318 320 319 321 323
305 306 314 318 320 322 317 314 309 306 308 312 313 314 314 311 310 309 311 314 320 321 324 320 317 317 317 316 317 316 317 319 319 319 319 321 321 319 320 320 320 321 321 322 321 321 323
305 305 307 315 319 321 318 314 309 306 309 312 313 314 313 311 310 310 312 315 316 324 321 318 317 318 316 317 317 316 317 319 319 320 320 321 319 320 321 321 321 322 320 321 322 322 322
303 304 303 311 316 320 319 314 310 306 310 313 313 314 313 310 312 311 316 315 323 322 319 317 317 316 316 317 317 319 318 319 320 320 321 322 321 321 322 321 321 322 320 323 322 323 323
301 302 304 304 315 318 319 315 311 307 310 313 313 314 313 310 312 314 320 323 322 325 319 317 317 318 319 318 318 319 320 319 319 321 321 321 319 321 321 320 320 320 322 322 322 323 324
301 301 302 304 308 317 319 315 311 307 311 313 313 313 312 311 315 316 323 323 322 322 318 317 318 318 319 319 319 321 321 321 322 322 323 321 321 319 320 322 322 323 323 323 324 325 324
300 300 301 303 305 314 318 315 312 308 312 313 313 314 313 311 321 325 323 319 319 318 318 317 318 319 320 319 320 320 321 321 320 322 322 321 323 320 319 322 322 323 323 323 321 323 321
300 300 302 303 304 309 318 316 311 308 312 313 313 313 313 312 314 323 318 324 320 320 320 318 318 319 320 320 319 321 321 322 320 321 321 322 321 319 319 320 321 321 322 322 324 320 324
299 300 301 303 303 307 316 316 311 308 312 313 313 313 313 313 314 317 322 320 319 321 319 318 317 319 320 320 319 320 322 320 321 320 320 322 323 319 319 319 319 321 320 323 323 323 321
298 299 300 303 303 306 314 316 310 309 313 313 313 315 317 314 316 321 324 321 320 324 322 319 318 319 319 321 320 319 320 320 320 320 320 321 322 321 320 321 322 321 321 319 320 321 318
298 298 300 302 304 306 312 316 310 310 313 312 316 319 317 317 322 320 321 319 322 323 320 320 320 321 321 321 322 321 321 321 319 320 322 320 323 325 323 319 319 320 322 319 319 319 320
298 298 299 301 304 306 312 316 310 311 312 312 316 321 323 321 323 323 318 319 322 321 321 322 321 321 322 323 324 323 322 316 316 319 322 320 323 324 322 321 320 321 321 319 319 320 320
298 299 299 300 303 306 310 314 309 311 312 314 317 325 322 316 316 319 319 320 320 320 321 321 322 322 323 323 322 324 322 317 317 318 313 315 322 323 325 321 320 321 321 319 319 320 318
297 298 300 301 303 305 312 313 310 312 312 316 319 321 321 324 318 319 319 319 320 322 320 320 322 323 324 324 323 324 322 318 318 316 318 320 322 319 317 317 317 318 319 319 318 319 319
297 298 300 301 303 309 313 311 311 312 313 317 319 320 318 319 315 317 316 319 319 321 322 322 324 323 323 324 323 324 322 320 321 319 320 316 322 317 319 317 316 317 318 318 319 319 318
297 299 301 302 302 307 312 309 311 312 312 317 318 316 318 313 317 318 317 319 319 322 320 320 323 323 324 322 320 320 317 318 318 321 320 319 318 317 318 314 315 319 317 317 317 318 318
299 300 302 303 304 308 312 309 311 312 313 318 318 316 318 320 318 317 316 318 322 322 323 319 320 323 318 316 316 316 316 316 315 313 314 314 315 314 319 312 326 315 314 314 316 316 316
300 302 302 306 311 312 310 309 312 313 313 317 318 316 316 320 318 316 316 317 320 320 321 320 318 317 316 317 322 321 322 321 318 313 312 312 315 316 325 317 315 313 312 312 315 315 316
302 302 305 307 311 309 308 311 312 313 313 318 319 316 316 318 318 316 317 319 323 324 322 316 314 314 312 318 322 325 325 321 319 319 313 311 311 318 315 329 329 315 312 314 315 317 314
305 307 310 309 307 308 310 312 313 313 314 318 319 318 316 319 317 317 318 320 321 322 324 316 315 315 312 320 330 327 324 315 318 318 318 318 316 322 317 324 317 313 311 314 316 315 315
309 309 307 307 308 310 311 312 314 313 315 319 319 319 319 321 318 316 317 318 318 321 325 317 319 317 316 325 328 322 325 317 316 315 317 319 320 320 314 323 322 310 314 318 317 316 314
307 306 307 308 310 311 312 314 314 313 317 319 319 319 320 321 320 317 316 317 318 320 320 317 322 319 320 323 319 318 318 312 319 323 313 318 318 319 316 318 313 311 314 315 313 313 314

GFSGBSN_850_thetae_021.txt.gz
Theta_e
322 324 323 324 323 320 313 312 310 307 307 307 308 308 309 311 312 312 312 311 312 312 311 310 308 307 309 320 319 317 314 312 312 315 316 315 317 317 318 318 318 320 321 321 324 325 322
321 322 324 325 323 322 318 312 311 307 307 307 308 308 310 312 313 313 312 311 311 311 310 308 307 308 312 320 317 319 315 313 316 317 316 316 317 317 318 319 320 320 320 319 321 323 325
309 321 321 323 322 323 321 314 312 307 307 307 308 308 311 313 313 313 311 311 311 310 308 308 308 310 315 319 317 321 317 316 317 316 317 318 318 318 319 321 320 319 319 318 320 323 324
299 314 321 321 323 322 322 317 312 309 307 307 307 309 312 313 314 313 311 310 309 308 308 308 310 311 318 318 318 320 320 319 318 317 318 319 319 318 319 320 318 319 319 320 320 323 323
298 300 316 320 322 321 323 321 313 311 307 307 307 310 312 313 314 312 311 310 309 308 308 310 312 315 321 317 316 318 318 319 319 319 318 318 319 319 320 321 319 319 318 320 320 321 323
300 300 301 319 319 320 322 322 315 312 307 307 307 311 313 314 314 311 310 309 309 309 310 312 313 320 320 318 318 317 318 318 320 319 319 319 319 322 321 321 319 319 319 319 320 322 322
298 302 304 306 318 320 321 323 317 313 309 306 308 312 313 314 313 311 309 309 314 318 313 319 319 319 318 318 318 318 317 318 320 321 322 320 320 320 320 321 320 320 320 318 319 320 319
299 298 300 307 314 317 319 323 319 314 310 306 308 312 313 314 313 310 309 316 320 323 324 316 317 317 317 317 318 317 317 319 320 321 321 321 321 321 320 320 318 319 319 320 320 320 322
303 304 304 303 308 316 317 322 322 314 312 307 309 312 313 314 312 310 309 315 321 321 325 321 319 318 318 318 318 318 317 320 320 321 321 321 322 321 320 319 319 320 319 321 321 322 322
304 303 302 304 305 314 316 320 322 315 313 307 309 313 313 313 311 313 313 313 315 316 326 320 320 320 319 318 318 318 318 320 319 320 321 322 321 321 320 320 321 321 322 322 322 323 322
303 303 302 305 305 311 315 317 321 315 314 308 310 313 313 313 320 315 323 323 319 325 325 320 319 318 318 318 318 319 318 319 321 320 320 322 322 322 321 323 323 324 323 324 323 323 324
302 303 302 302 306 307 314 318 320 316 314 309 310 313 313 313 312 318 320 325 325 330 323 319 318 319 320 318 317 319 318 319 321 320 321 322 322 323 323 322 322 323 324 324 323 322 324
302 303 302 302 304 305 310 314 319 317 315 309 310 313 313 313 316 318 321 326 328 325 319 318 318 319 319 318 318 319 319 318 319 320 320 322 322 322 322 323 323 322 323 324 324 325 324
302 302 302 302 301 303 306 312 318 318 315 309 310 313 313 313 317 319 326 327 326 320 319 318 318 318 319 318 318 318 319 319 319 322 321 322 323 322 322 323 323 323 322 324 321 322 323
300 302 302 301 302 302 305 308 316 318 315 310 311 313 313 312 312 323 325 329 324 319 320 318 318 319 320 319 319 318 318 319 320 321 322 321 322 321 321 322 322 322 323 323 324 324 324
298 301 302 301 301 301 304 306 313 318 315 310 312 313 314 313 312 321 325 324 322 321 321 319 318 319 321 320 318 318 320 322 322 323 323 322 322 321 321 322 322 322 323 322 321 321 322
296 299 301 301 301 301 302 304 309 317 315 309 315 316 316 313 313 323 325 323 321 321 321 319 319 319 320 320 320 319 320 322 322 323 323 321 321 323 322 322 321 323 322 321 322 324 323
296 298 300 301 301 301 303 303 309 314 312 310 316 319 322 314 319 323 324 322 319 322 323 321 321 319 320 320 321 320 319 320 322 322 322 321 321 323 323 323 322 323 323 323 323 321 321
296 297 300 300 299 300 303 303 308 313 311 312 318 319 324 320 325 331 323 321 320 323 322 322 320 320 320 320 320 320 320 321 321 323 322 324 321 323 323 324 322 321 321 322 321 322 320
296 297 299 299 299 300 303 304 307 312 311 314 318 324 323 322 321 324 324 321 321 322 322 321 320 322 323 323 323 324 324 321 320 321 316 319 322 322 324 323 323 324 322 321 322 323 321
296 299 299 299 298 299 302 304 306 312 310 315 318 320 321 325 325 325 322 321 320 322 322 322 324 322 322 323 324 325 325 322 321 318 319 322 323 322 322 322 320 321 320 321 321 320 323
298 299 299 298 298 299 301 304 307 312 310 315 318 320 319 322 321 322 319 321 320 322 323 324 323 322 322 323 324 323 325 324 324 322 323 321 323 322 323 321 320 320 320 319 319 319 319
296 297 298 298 299 300 300 304 308 310 310 315 320 318 320 323 325 322 324 321 320 323 324 323 323 324 324 325 324 324 323 323 323 325 324 323 324 320 319 318 319 321 320 320 319 319 319
295 296 297 298 299 300 301 301 308 311 311 316 320 320 321 326 325 322 320 320 320 323 324 323 323 325 323 320 320 320 320 319 319 320 321 322 321 320 320 316 323 316 317 316 317 317 318
294 296 297 298 300 301 301 304 307 310 311 316 321 320 320 328 321 319 318 319 319 323 324 323 322 322 320 322 323 323 324 323 320 317 316 317 319 320 326 318 317 316 315 315 316 316 317
295 297 298 300 301 301 304 306 311 310 313 316 324 321 319 323 322 317 318 317 325 326 325 320 320 320 319 325 326 324 324 322 323 322 316 315 317 320 318 326 326 319 315 316 316 316 315
298 299 300 301 303 303 304 304 311 311 313 317 324 318 318 316 317 317 318 318 319 324 326 321 319 319 318 326 330 327 324 321 321 321 320 320 321 324 321 324 320 316 314 316 316 319 316
299 300 301 303 303 306 306 310 310 312 313 317 324 316 318 318 319 319 318 318 318 320 327 322 322 321 322 326 330 327 329 323 321 320 321 321 323 324 322 323 323 313 316 317 319 315 315
300 302 305 303 306 311 309 309 311 313 314 319 323 317 320 321 323 322 321 320 320 321 323 321 323 323 323 326 327 328 324 317 324 324 318 322 321 322 319 320 316 314 314 314 315 315 314

GFSGBSN_850_thetae_027.txt.gz
Theta_e
300 300 310 319 317 322 323 323 323 322 318 313 311 307 307 307 308 309 311 312 312 311 310 310 309 307 307 315 318 320 316 314 311 312 316 317 318 317 315 315 316 316 316 319 326 326 326
300 300 300 303 317 318 320 323 322 323 322 316 312 307 307 307 308 309 311 313 312 310 310 309 308 307 309 320 320 320 316 315 312 314 316 317 317 316 317 317 317 318 318 320 325 326 327
300 300 300 300 300 315 319 319 320 321 323 321 313 309 307 307 308 310 312 313 311 310 309 308 307 308 310 311 319 320 320 316 317 317 317 317 318 319 319 319 320 320 318 318 321 324 324
300 300 300 300 300 300 315 319 319 319 322 322 315 311 307 307 308 311 313 313 310 309 308 308 308 310 311 316 318 319 319 318 318 317 317 317 319 319 319 319 320 319 318 318 319 323 323
300 301 300 300 300 300 300 318 318 320 319 322 319 312 308 307 308 312 313 312 309 308 308 308 312 322 319 320 318 317 319 321 320 319 319 318 319 319 320 319 318 318 317 318 318 321 322
299 300 301 300 300 300 300 303 311 318 320 322 321 313 309 307 308 312 313 311 309 309 309 309 310 315 316 320 317 317 318 319 320 320 320 319 319 318 317 318 318 318 319 316 317 319 321
299 299 299 300 300 300 299 299 306 317 318 320 322 315 311 307 309 313 313 310 321 322 314 311 316 314 319 319 318 319 318 319 319 320 320 321 318 319 320 320 320 320 318 317 316 317 321
300 298 299 299 300 300 300 299 299 313 316 319 322 317 312 307 309 313 313 310 320 318 321 322 324 316 318 319 318 318 318 319 320 320 320 319 319 320 321 320 320 321 321 319 317 318 318
303 304 302 299 300 300 300 299 299 305 316 318 320 319 313 307 310 313 313 311 317 319 321 323 320 319 316 318 319 318 318 319 320 320 321 321 321 321 321 321 321 321 321 320 319 317 316
302 303 303 301 301 300 299 299 299 299 315 317 321 319 313 307 311 318 318 314 310 316 322 323 322 320 317 318 319 317 318 320 320 322 321 321 321 321 321 321 320 320 321 321 321 320 316
300 301 301 300 301 305 303 300 298 298 310 318 318 320 314 307 315 318 324 322 322 323 327 321 321 319 319 319 319 317 318 320 319 322 321 322 323 321 322 321 321 321 320 321 322 321 322
299 300 300 302 302 303 305 305 300 299 309 317 318 320 314 307 312 317 323 326 323 326 327 322 321 319 319 319 318 318 318 320 321 321 321 321 321 321 321 321 321 321 321 322 322 321 321
300 299 299 300 301 302 302 304 304 300 308 317 318 319 315 308 312 318 317 326 324 322 321 321 319 319 318 318 317 317 318 317 319 320 320 319 320 321 322 321 321 321 320 321 322 321 323
300 299 298 298 299 300 301 303 305 302 306 316 317 319 315 308 316 321 320 325 327 321 321 320 319 318 317 317 317 317 317 316 316 317 319 321 322 321 321 320 322 320 321 323 325 326 324
298 298 299 297 297 299 301 301 304 304 305 313 318 317 315 309 313 320 323 326 321 323 319 320 317 318 317 318 316 316 318 317 316 316 319 322 323 322 322 321 321 321 319 323 324 323 324
297 298 298 297 296 297 300 300 303 303 305 310 316 315 315 311 311 318 322 323 324 321 321 320 319 317 317 317 317 316 316 317 318 320 321 322 323 322 322 322 320 320 319 321 320 321 321
297 297 297 297 296 297 301 300 301 303 305 309 314 314 316 313 311 318 319 322 322 322 320 322 319 318 318 319 316 317 317 317 318 321 320 320 323 324 323 323 320 320 319 319 319 319 320
296 296 296 295 295 297 302 301 301 303 304 308 314 315 314 309 314 315 317 320 321 322 322 321 321 320 318 320 319 316 317 322 321 321 321 320 321 321 324 321 321 320 321 322 316 319 317
295 294 294 295 295 298 301 300 303 302 304 309 314 315 314 311 313 314 315 319 321 322 322 321 322 321 320 320 322 318 323 322 322 322 321 322 319 315 317 318 321 321 320 320 322 317 318
294 293 294 294 295 299 300 303 304 302 303 310 314 316 318 316 312 314 314 318 321 321 322 321 322 321 321 320 320 320 323 322 322 319 319 322 321 317 316 318 321 322 323 321 319 315 317
294 294 293 294 296 299 299 302 303 303 303 310 313 314 318 319 318 314 316 318 322 323 321 321 321 321 320 320 321 321 324 322 322 319 320 319 319 320 321 322 322 321 322 321 319 319 318
293 293 293 296 297 297 297 299 303 303 303 309 313 315 319 319 318 318 315 320 322 321 321 321 321 320 319 321 322 321 324 323 322 320 320 320 321 321 321 320 318 318 319 318 318 318 317
294 293 294 295 295 296 297 299 302 302 303 307 311 315 318 319 318 318 316 320 322 321 321 320 322 322 321 323 323 324 324 324 322 321 320 319 315 314 319 315 314 310 313 316 318 317 317
294 295 295 295 295 295 297 299 302 302 304 306 309 314 318 317 320 317 317 319 321 321 322 321 321 320 323 323 322 322 320 321 322 320 323 317 317 312 313 311 308 313 315 314 316 314 313
295 295 295 295 295 296 297 300 302 302 303 304 310 312 319 311 318 316 317 320 322 322 321 324 325 324 323 322 319 320 314 313 319 318 320 320 312 314 312 313 313 315 316 317 315 314 314
295 295 295 296 296 297 298 301 302 302 302 303 308 311 316 319 319 317 317 321 322 320 322 323 323 323 324 321 312 320 318 318 319 318 316 315 313 309 311 313 311 315 315 315 315 313 315
296 297 297 299 298 298 301 301 301 300 302 304 305 306 311 319 320 319 318 321 323 322 320 322 321 322 325 310 317 314 315 320 320 318 314 311 310 310 308 309 313 318 315 315 311 312 316
297 298 298 299 300 300 300 300 299 300 302 304 305 308 312 316 321 321 319 321 323 323 319 322 321 319 316 317 315 314 313 314 316 319 316 314 313 309 313 314 316 315 315 311 315 315 315
298 298 297 298 299 299 299 299 299 300 303 304 304 307 311 311 317 323 321 320 322 323 323 321 323 321 323 319 316 313 315 310 314 314 318 316 317 314 315 313 315 314 314 314 314 314 315

GFSGBSN_850_thetae_030.txt.gz
Theta_e
300 300 300 300 305 315 318 315 322 323 323 322 320 312 309 307 307 308 309 310 312 311 310 309 309 308 307 310 316 319 315 314 311 312 316 315 317 318 314 314 314 314 315 319 324 325 326
300 300 300 300 300 301 312 318 313 321 321 323 322 317 310 307 307 308 309 311 312 311 310 309 308 307 308 314 320 319 317 314 312 316 316 317 317 317 315 317 315 319 316 324 326 326 325
300 300 300 300 300 300 300 311 318 314 316 320 322 322 312 308 307 308 309 311 312 310 309 308 308 307 308 310 318 317 318 316 315 315 316 317 317 318 319 318 319 319 316 319 325 326 326
300 300 301 300 300 300 300 300 311 318 316 319 319 322 316 310 307 307 309 312 312 310 308 308 308 309 310 314 318 318 320 319 318 318 317 317 318 319 318 319 319 317 315 316 322 324 325
300 300 300 301 301 300 300 300 300 312 316 317 318 322 320 311 308 307 309 312 311 309 308 308 308 317 314 318 318 318 319 320 320 319 319 318 319 318 319 317 315 314 316 318 319 321 322
300 300 300 300 300 300 300 300 299 302 314 315 318 318 322 313 308 307 310 312 311 311 311 309 309 311 313 319 318 317 318 320 319 319 320 319 318 315 315 315 316 318 319 318 317 318 320
304 303 300 299 300 300 300 300 299 299 305 311 317 318 322 315 309 307 310 313 317 322 318 312 312 311 314 318 319 318 317 318 319 320 318 320 316 317 318 317 319 319 319 318 317 315 320
304 305 304 301 299 300 300 300 300 299 300 309 316 318 322 318 310 307 311 313 318 315 318 319 320 322 318 318 316 318 318 318 319 319 319 317 318 318 319 320 319 319 319 319 317 316 319
303 304 304 304 301 299 299 300 299 299 299 308 314 318 318 320 310 307 313 314 314 314 317 319 318 317 317 317 317 318 317 319 320 319 319 319 320 320 320 320 320 319 320 320 319 315 314
302 302 302 303 304 303 301 302 300 299 299 305 313 318 316 320 309 309 322 320 311 311 319 321 321 318 317 316 318 318 318 318 318 320 320 319 320 320 320 320 319 318 319 319 319 318 315
304 303 302 302 303 304 303 305 302 299 298 301 313 317 319 319 309 317 322 322 319 322 313 319 322 319 316 317 318 317 318 319 318 320 319 318 321 320 320 319 319 319 319 319 321 319 319
302 303 303 301 302 302 303 301 305 303 298 300 312 318 317 318 310 314 321 324 321 323 321 323 320 318 317 318 318 318 319 319 319 319 319 319 320 319 319 320 319 319 320 319 320 319 320
300 303 303 302 300 301 301 302 303 305 303 301 310 317 317 319 312 309 318 322 320 324 319 321 319 318 317 317 317 316 316 317 317 319 320 319 319 319 321 320 319 320 318 318 319 319 319
299 301 302 303 301 300 301 302 302 304 305 302 310 316 318 319 312 313 317 324 323 320 322 319 318 317 318 316 317 316 315 315 315 317 316 318 320 321 320 320 320 319 318 318 322 321 320
298 301 303 302 302 299 299 301 301 302 305 303 308 314 315 317 311 317 321 324 318 322 318 318 317 317 316 316 316 315 314 315 314 314 316 320 321 320 320 320 320 319 318 318 320 319 322
295 300 302 302 301 300 298 298 300 301 304 304 308 312 314 317 314 313 319 319 321 321 320 319 317 316 316 315 315 314 314 315 316 315 318 320 320 319 320 321 320 319 318 320 318 322 324
299 298 301 300 300 299 299 297 298 301 304 304 308 312 313 316 314 311 318 317 319 319 321 321 320 318 316 316 315 314 315 315 316 321 319 319 318 320 321 321 320 319 318 317 317 315 318
300 296 300 300 299 299 299 298 297 300 303 304 308 313 313 314 311 312 317 317 316 319 320 322 320 320 316 316 316 315 315 315 319 320 319 320 320 318 321 319 320 318 319 319 315 316 314
300 297 297 299 299 298 298 297 296 299 301 303 309 312 313 315 311 311 313 316 316 317 320 321 321 320 319 319 319 319 319 321 321 319 319 318 318 315 317 316 317 319 318 318 317 312 316
300 297 297 297 298 297 298 297 296 301 300 304 309 313 313 313 314 309 313 316 317 316 318 320 321 320 320 319 319 320 322 321 321 319 320 319 317 315 315 315 316 321 322 321 318 314 315
299 297 297 297 297 296 296 296 296 301 301 303 310 313 313 314 313 310 311 314 315 315 319 320 320 320 320 318 319 320 322 321 321 318 319 316 318 317 316 320 321 319 321 321 318 317 316
299 296 296 296 296 295 295 295 296 301 302 304 310 313 314 314 313 312 311 313 313 314 317 318 320 320 318 318 317 320 322 320 319 319 318 317 318 319 320 317 316 317 316 316 317 317 317
298 296 296 296 295 294 294 296 297 300 302 305 305 312 315 314 314 314 312 313 313 313 317 317 319 319 318 318 321 320 322 321 320 318 318 317 313 312 317 312 311 312 313 314 316 317 316
297 295 295 295 294 294 294 296 300 301 302 304 304 310 315 314 316 315 314 313 313 315 316 319 318 319 320 321 321 321 319 319 321 321 319 314 313 308 311 308 310 314 313 313 313 312 311
295 294 294 295 294 294 296 298 299 300 302 304 307 307 314 309 316 317 316 314 314 316 319 318 321 320 322 321 316 317 312 314 316 317 318 317 311 313 310 310 312 314 315 312 313 314 313
294 294 294 293 294 296 297 297 298 299 302 302 305 308 309 316 316 318 316 315 314 317 317 322 322 322 322 314 310 316 316 316 317 316 313 313 308 310 310 311 309 311 314 314 312 313 314
295 294 294 295 295 296 296 296 298 300 301 302 304 305 305 310 317 317 316 315 314 319 318 321 322 323 323 309 311 312 315 316 316 315 311 308 307 307 303 306 309 311 314 313 310 309 314
295 296 295 295 295 295 295 297 298 301 302 302 304 304 305 309 313 318 316 315 318 320 319 320 320 319 311 314 313 311 308 313 313 315 314 312 310 307 311 309 313 314 313 312 310 314 314
295 295 295 296 296 296 296 298 300 302 302 302 303 303 307 305 311 314 318 316 316 320 321 321 320 320 319 316 313 310 312 308 311 315 315 314 311 311 311 311 313 313 314 315 314 314 315

GFSGBSN_850_thetae_033.txt.gz
Theta_e
300 299 300 300 300 301 309 316 318 315 318 322 323 322 320 311 308 307 307 308 310 312 311 309 309 308 307 308 316 319 316 312 310 311 312 315 317 317 314 313 313 312 314 315 315 325 325
300 300 300 300 299 299 300 304 313 318 316 316 321 322 322 317 309 307 307 308 310 312 311 309 308 308 307 309 319 319 316 312 311 312 315 316 317 317 316 315 315 317 316 324 324 325 325
300 300 300 300 300 299 299 299 300 311 317 316 314 320 321 322 312 308 307 308 311 312 310 309 308 307 307 308 319 319 318 314 313 314 316 317 317 318 318 316 318 319 318 323 324 325 325
301 300 300 300 300 300 299 299 299 300 311 317 316 313 317 322 317 309 307 308 311 312 310 308 308 307 308 310 317 317 319 318 317 316 317 317 318 318 318 318 318 316 314 318 324 324 324
303 302 300 300 300 300 300 299 299 299 301 311 315 314 316 321 320 310 307 308 311 312 309 308 308 309 310 314 314 317 318 319 320 319 318 317 318 318 318 316 313 313 315 317 323 322 322
305 303 302 300 300 300 300 300 300 299 299 304 311 314 314 317 321 313 307 308 312 310 315 314 309 308 310 318 318 318 317 318 318 319 319 319 317 314 313 314 316 317 317 316 317 316 320
305 305 305 304 300 300 300 300 300 299 299 300 312 315 314 317 321 315 307 310 313 320 318 316 310 308 310 316 317 316 317 317 318 319 318 318 315 316 316 316 318 318 318 318 317 317 319
305 304 304 305 306 302 301 300 300 300 299 299 307 314 316 315 321 316 307 311 316 314 313 316 316 318 319 320 319 318 318 317 318 317 319 316 318 317 317 317 319 319 319 319 317 315 315
304 305 304 304 305 305 304 303 305 300 299 299 304 312 318 315 320 317 307 317 318 314 311 314 316 315 316 317 318 318 317 317 318 318 317 317 318 319 319 319 319 318 319 318 319 317 314
300 303 305 304 303 303 305 305 305 306 300 298 301 313 319 318 317 317 314 320 312 311 316 318 321 318 316 317 316 318 317 318 317 318 317 317 318 319 319 319 318 319 318 318 318 317 313
297 300 303 305 304 303 303 304 305 306 306 299 299 312 317 317 314 309 321 318 314 320 310 313 321 318 315 316 317 317 318 318 317 319 317 317 320 319 319 318 318 318 319 318 319 319 317
299 296 300 303 305 303 302 303 304 305 306 303 300 311 316 318 318 313 321 320 320 313 312 318 320 317 315 316 317 317 317 318 317 318 318 317 319 317 317 319 318 318 319 317 317 318 318
300 299 297 301 304 304 303 302 303 303 305 305 300 311 315 317 318 317 313 321 321 315 314 320 318 316 315 316 316 316 315 317 317 319 318 318 318 318 320 319 318 317 315 316 317 318 318
301 300 298 297 301 303 304 301 302 302 302 304 303 309 313 315 317 315 312 322 321 318 319 320 317 316 315 315 316 315 314 314 314 315 316 318 318 319 320 319 319 319 316 316 320 318 318
302 301 299 297 298 301 304 302 300 301 302 304 304 306 311 314 317 313 320 323 316 318 319 315 316 317 316 316 315 315 313 313 313 314 316 318 319 319 319 319 319 319 317 316 318 316 319
302 301 301 299 296 300 304 303 301 301 302 303 304 306 309 314 316 313 318 320 319 319 321 320 316 316 316 314 315 314 313 313 314 313 314 317 318 319 318 320 319 318 317 317 316 321 322
303 302 301 300 297 298 301 303 301 300 301 303 304 307 309 312 316 311 316 316 317 318 319 321 320 316 316 315 313 312 314 314 314 317 315 318 316 316 321 319 318 318 317 315 315 314 316
302 303 302 301 298 298 300 302 301 299 301 303 304 308 309 312 313 310 312 314 315 316 317 319 320 320 316 314 314 314 314 314 315 318 317 317 315 315 319 318 318 318 318 315 314 316 312
302 304 301 301 299 298 302 301 301 298 300 303 304 308 310 311 314 311 311 314 314 315 316 318 320 319 317 314 315 314 314 318 318 316 317 317 316 315 317 316 316 319 317 317 315 310 315
302 304 303 301 298 298 302 301 300 299 299 303 305 309 311 312 312 312 312 313 316 315 315 317 319 320 320 318 317 317 320 320 319 318 318 316 314 316 317 317 315 319 320 317 316 314 314
303 303 302 301 299 301 300 300 299 298 299 302 304 308 311 313 311 312 311 312 315 316 315 314 316 319 320 319 318 319 320 320 319 317 317 316 317 314 314 314 319 318 319 318 317 316 316
303 303 302 301 300 298 300 299 299 298 298 299 304 309 311 312 311 311 312 312 314 315 315 316 315 318 316 318 316 317 319 319 318 318 317 315 315 318 318 316 315 316 315 314 315 316 315
303 303 301 301 299 299 300 299 298 298 296 299 302 307 310 311 312 312 312 311 312 314 314 314 317 318 318 317 318 317 319 319 317 317 315 314 312 313 316 311 311 312 312 313 314 314 315
304 302 301 300 299 298 299 298 298 298 297 299 302 304 310 311 312 312 311 311 312 313 313 313 312 315 317 319 319 319 318 318 319 317 315 311 310 308 310 308 311 314 312 311 312 311 310
303 301 300 299 298 298 297 296 297 297 296 299 303 304 308 309 311 312 311 311 311 312 312 312 315 312 315 319 315 317 311 316 315 314 317 313 308 310 311 311 312 314 311 312 312 313 312
301 300 300 298 297 297 296 296 296 295 296 298 302 304 305 310 312 313 312 312 311 311 311 315 311 317 317 311 308 316 318 318 316 317 312 309 307 312 307 310 312 312 311 313 311 312 312
299 299 298 297 296 296 295 295 294 296 297 299 301 305 304 306 312 314 314 313 312 311 312 316 321 320 321 306 309 311 312 315 316 315 311 309 306 310 303 306 308 308 312 311 312 311 313
299 298 297 296 295 295 294 294 295 296 297 299 300 305 306 304 308 313 315 315 313 312 313 314 320 319 308 314 313 309 309 313 312 313 312 314 311 308 305 305 312 311 312 310 309 312 314
297 296 294 295 295 294 296 297 297 297 299 299 302 304 305 305 307 310 314 315 314 314 315 319 318 319 318 314 310 310 309 305 311 314 313 314 310 311 311 311 310 312 312 313 315 314 313

GFSGBSN_850_thetae_036.txt.gz
Theta_e
299 299 299 299 299 299 299 304 314 317 319 319 315 321 322 322 321 312 307 307 308 309 311 311 309 308 308 307 314 319 315 312 310 310 313 315 316 316 314 312 312 311 312 315 314 323 324
301 300 299 299 299 299 299 299 300 307 315 319 318 312 320 321 322 318 309 307 308 309 311 311 309 308 308 306 319 318 315 312 311 313 315 316 316 316 316 315 315 316 317 321 323 324 325
300 300 301 299 299 299 299 299 299 299 302 312 318 317 312 318 320 321 312 308 307 309 311 311 309 308 308 308 317 318 316 314 312 314 315 316 316 316 317 315 317 317 321 322 323 324 324
303 301 300 302 301 299 299 299 299 299 299 300 312 317 317 315 316 321 317 308 307 308 311 311 308 307 308 308 316 318 318 317 316 315 315 316 316 317 317 317 316 314 314 318 323 323 323
306 305 302 303 302 303 300 300 300 299 299 299 302 313 318 316 315 319 320 310 307 308 311 311 309 308 308 311 312 316 317 319 319 319 318 316 317 317 317 315 313 312 314 317 324 323 322
305 308 305 305 305 303 303 300 302 300 299 299 299 306 314 315 316 317 320 310 307 310 312 313 314 310 308 315 317 317 317 317 318 318 318 318 317 313 311 313 316 317 317 316 317 316 322
301 304 307 305 306 306 306 304 302 301 300 299 299 303 310 316 314 319 320 308 311 316 318 318 310 308 308 314 316 317 317 317 317 318 317 317 314 315 315 314 316 317 317 317 315 315 317
299 301 303 307 305 306 306 306 306 303 301 300 299 299 313 314 319 319 319 307 313 313 315 315 315 315 318 318 318 317 317 317 317 317 318 315 316 315 316 316 318 318 318 317 316 314 315
300 298 300 302 306 305 305 305 306 306 306 302 299 299 309 313 318 318 319 309 316 318 313 313 314 314 314 316 317 317 316 317 316 316 317 316 316 318 318 317 318 317 318 317 318 316 314
301 301 299 299 302 305 305 304 304 305 305 305 300 299 311 315 317 316 317 317 318 315 313 315 317 316 315 317 317 317 317 317 317 316 315 316 316 318 318 318 316 318 316 317 317 316 314
300 301 301 299 299 303 304 305 303 304 305 306 303 299 310 314 315 312 316 317 313 315 311 312 320 317 317 316 316 317 317 317 316 317 316 317 318 318 318 317 316 317 317 318 318 317 316
300 301 301 300 299 298 302 305 303 303 303 304 306 301 309 313 314 314 318 318 317 317 311 312 319 317 314 315 316 315 317 317 317 317 317 315 318 316 316 316 316 318 318 314 315 316 317
302 301 301 301 300 297 299 303 304 302 303 303 305 303 308 311 314 312 316 315 322 316 312 316 319 315 313 314 315 314 315 316 316 317 317 317 317 317 318 318 317 316 314 315 316 317 318
301 302 301 301 301 299 297 301 305 303 302 303 304 304 305 310 314 315 314 319 320 316 315 317 316 315 314 314 314 315 313 314 314 314 315 317 317 318 318 317 316 317 314 315 318 317 316
302 301 301 302 301 301 298 298 302 304 302 303 303 304 304 309 314 315 316 319 316 315 317 315 316 316 315 314 314 314 313 312 313 313 316 316 317 317 318 318 317 317 317 314 316 314 318
303 302 302 302 302 301 299 297 301 304 302 302 302 303 302 307 313 314 314 318 319 315 320 320 316 315 315 313 314 313 312 312 313 313 314 316 316 317 318 319 318 317 315 316 314 320 321
304 303 303 302 302 302 300 298 298 303 302 301 302 304 303 306 312 312 312 314 316 317 318 319 320 318 315 314 313 312 313 313 312 312 313 315 313 313 320 318 317 316 316 313 313 313 316
300 303 303 303 304 302 301 299 298 303 301 301 304 303 305 306 312 313 314 312 313 317 317 318 319 320 317 313 313 313 313 313 314 315 314 315 313 312 316 317 316 314 315 314 314 316 311
297 300 303 303 303 303 301 300 298 301 300 301 304 305 308 308 312 312 312 312 313 315 315 316 318 319 318 315 314 313 312 313 314 314 315 316 314 314 315 314 315 318 316 315 312 310 314
298 298 301 302 302 303 301 300 299 301 300 301 303 304 309 309 311 310 311 312 312 314 314 315 317 319 319 318 314 313 314 318 316 315 316 315 314 314 316 315 314 317 317 315 315 313 313
297 298 298 303 303 303 301 300 299 302 300 301 303 304 309 309 309 311 310 311 312 313 314 314 315 317 318 319 317 318 318 319 317 317 314 314 315 313 314 314 315 316 318 315 316 315 316
298 299 299 300 303 303 301 300 300 301 300 301 302 305 308 309 308 310 312 311 312 312 314 313 315 315 316 318 315 316 319 317 317 315 315 312 315 314 317 315 315 317 315 314 315 315 314
299 300 300 299 304 302 301 300 299 302 299 300 300 304 308 308 309 309 310 311 311 312 313 314 313 313 315 315 316 316 316 316 315 316 314 312 311 312 316 311 313 313 311 313 313 312 314
300 301 300 299 303 302 301 299 301 300 299 299 300 303 307 309 310 309 308 310 311 312 313 313 314 313 313 317 317 317 316 316 316 315 313 309 310 308 309 308 312 313 311 311 311 310 310
301 300 300 300 302 302 300 300 300 299 299 299 300 302 306 307 309 311 310 308 310 311 312 313 313 313 315 317 316 318 312 316 315 312 311 310 308 309 312 311 311 313 311 311 311 311 309
301 301 301 302 302 300 300 300 300 298 298 298 299 301 303 307 309 310 311 309 309 310 309 311 312 312 313 314 311 317 319 317 316 317 310 309 306 311 305 310 312 312 311 311 310 311 309
301 301 301 301 300 300 300 300 300 299 298 298 297 299 302 302 307 310 310 310 310 309 309 310 312 314 313 302 307 310 316 315 317 318 314 309 306 310 302 306 310 309 310 311 312 311 311
301 301 301 300 300 300 300 299 298 298 298 298 297 299 301 302 304 307 311 311 310 310 310 311 315 315 307 313 312 310 306 312 312 314 315 317 313 308 305 306 316 310 311 311 310 310 312
302 301 300 300 300 299 299 299 298 298 298 298 297 297 301 303 305 308 310 313 311 311 310 312 313 315 315 314 307 308 307 303 311 314 311 316 314 313 312 313 311 311 311 312 312 312 312

GFSGBSN_850_thetae_039.txt.gz
Theta_e
300 300 300 299 299 299 299 299 299 301 308 316 318 318 316 318 321 322 321 314 308 307 308 310 311 309 308 308 309 318 315 311 310 310 314 315 316 316 316 313 312 313 314 314 317 322 323
304 303 300 299 300 299 299 299 299 299 299 302 311 317 319 316 314 320 320 320 310 307 308 309 311 309 308 308 314 318 313 311 310 312 315 315 316 316 316 315 315 315 316 322 323 324 324
308 306 305 302 300 301 299 299 299 299 299 299 300 308 316 318 316 313 318 321 313 308 307 309 311 310 308 309 309 318 315 312 311 313 315 315 316 316 316 317 315 316 321 322 324 324 326
305 307 308 306 306 302 302 302 299 300 299 299 299 299 309 317 317 315 314 320 317 309 307 308 311 310 308 308 308 318 316 316 314 313 314 314 315 316 316 316 315 315 316 319 323 324 323
303 302 306 308 307 306 305 303 303 300 300 299 299 299 300 314 318 316 315 316 319 309 307 309 310 309 309 309 309 314 316 317 318 318 318 316 316 316 316 317 317 315 317 319 325 324 324
302 303 303 304 307 307 306 306 305 304 300 300 300 299 298 307 316 317 316 317 317 309 310 313 313 311 312 312 315 315 316 317 318 317 317 317 316 316 315 317 320 319 319 318 319 318 323
302 301 301 302 303 307 307 306 306 306 306 301 300 299 299 301 313 317 316 319 309 312 315 315 313 312 308 312 316 316 316 317 317 317 319 317 318 319 317 317 316 318 319 319 318 317 321
302 303 302 301 299 302 306 306 305 306 305 305 303 301 299 300 312 316 317 319 310 313 313 312 313 314 316 316 317 317 316 317 317 318 317 318 320 317 315 316 318 318 319 319 317 315 316
297 299 301 302 301 299 301 305 306 305 306 305 304 302 300 302 313 313 316 315 315 315 316 313 312 312 313 314 315 316 316 316 316 317 318 319 317 317 317 317 318 318 319 318 319 317 315
302 301 297 299 301 301 299 301 305 305 304 305 305 304 301 310 310 311 314 314 312 316 313 313 314 314 314 315 316 316 316 317 317 317 316 318 316 318 318 318 317 320 317 317 318 318 318
302 302 302 301 300 301 301 298 301 305 304 304 305 306 302 310 314 313 314 315 314 314 315 313 318 316 316 316 315 316 316 317 318 318 318 320 318 319 319 318 317 320 317 318 319 318 318
301 302 302 302 301 301 301 300 298 302 304 304 304 305 303 309 312 313 315 317 316 319 316 311 318 318 317 314 315 314 315 316 316 318 317 317 316 317 318 316 316 317 318 315 317 319 322
301 301 301 301 302 301 301 301 300 298 303 304 303 303 304 307 309 311 315 316 319 320 312 313 319 315 314 314 314 314 316 318 318 319 319 317 318 317 317 319 317 317 318 321 320 324 323
302 302 302 302 301 302 302 301 300 297 301 305 302 303 304 304 309 310 314 316 320 316 315 315 316 314 315 314 314 314 315 317 314 314 315 318 318 318 317 319 320 318 319 322 320 322 319
303 303 302 302 302 302 302 301 301 299 298 304 302 302 304 303 308 312 315 317 316 316 315 315 315 315 314 314 315 314 315 317 316 315 318 318 318 316 318 318 318 318 319 316 320 317 323
303 303 303 303 303 302 302 302 301 300 298 302 302 302 303 303 307 312 314 315 316 314 318 319 316 316 316 314 315 315 314 314 315 314 315 318 318 317 317 318 317 318 317 321 319 323 323
303 303 304 303 303 303 302 302 302 300 298 301 302 303 303 303 307 311 314 314 314 315 317 319 320 320 316 315 315 314 315 313 313 313 314 316 316 315 319 320 320 318 319 316 317 318 321
303 302 303 304 304 303 303 302 302 301 298 301 302 302 303 303 308 311 312 312 313 314 316 317 318 320 318 315 314 315 316 316 312 313 316 317 317 318 318 316 316 316 319 319 323 319 316
298 299 301 302 303 304 303 303 301 301 298 302 302 302 303 303 309 310 311 311 312 313 315 317 318 318 318 315 315 314 313 313 312 314 317 317 316 318 317 317 316 319 317 315 315 315 318
298 298 297 299 301 303 303 303 302 301 298 302 302 304 304 304 307 308 310 311 312 312 313 316 317 317 318 318 314 314 314 315 313 314 314 315 316 318 318 318 317 319 318 316 319 320 320
300 298 298 296 299 300 303 303 302 301 299 300 302 304 306 306 306 307 309 310 312 312 313 314 315 317 318 318 316 316 315 318 316 316 315 317 318 316 315 314 315 316 318 317 318 319 322
300 300 299 298 297 298 302 303 302 301 299 300 301 304 305 308 305 307 309 310 311 312 312 314 315 315 316 319 317 317 319 318 318 315 316 313 318 314 315 314 315 318 316 317 317 316 316
299 300 299 299 297 298 301 303 302 300 299 301 301 303 304 307 307 306 307 309 311 312 311 312 313 314 315 315 316 316 315 316 317 318 316 315 316 316 318 312 315 318 316 316 315 315 318
300 300 299 299 298 298 300 302 301 300 299 301 301 303 305 306 308 306 306 309 310 311 311 311 312 313 312 313 316 316 315 315 315 315 314 313 314 314 316 312 321 317 312 313 316 315 313
300 300 298 299 298 298 299 302 300 300 299 301 301 303 305 305 308 308 308 307 310 310 311 312 313 313 313 314 315 317 315 316 314 313 313 311 312 313 319 318 315 314 313 314 315 316 313
301 300 299 300 300 300 301 302 301 300 300 301 300 301 304 305 307 308 308 307 309 310 310 311 312 313 313 312 313 319 322 319 318 316 310 309 310 319 310 319 321 317 313 310 312 316 312
299 300 300 300 300 299 300 301 301 300 300 300 300 301 303 303 304 308 310 309 308 309 310 309 311 312 312 308 313 316 320 316 320 319 316 314 312 317 310 319 316 313 310 311 317 319 311
300 300 301 301 301 301 301 301 300 300 301 299 300 299 301 301 303 306 308 309 308 308 309 309 311 312 309 312 314 314 314 316 317 316 316 318 318 317 311 317 322 310 310 316 316 311 311
300 301 300 301 301 301 301 300 301 300 300 299 298 300 299 301 302 304 305 308 308 309 308 310 309 311 311 314 310 309 313 309 315 320 311 320 318 319 318 321 315 310 314 313 312 312 311

GFSGBSN_850_thetae_042.txt.gz
Theta_e
308 306 304 302 301 301 301 299 299 299 299 299 301 307 311 314 316 314 316 320 320 316 308 307 308 311 310 312 310 315 316 311 311 310 314 315 318 319 319 319 318 318 319 319 321 321 326
306 308 308 306 305 303 301 301 299 300 299 299 299 299 302 310 313 315 312 316 318 320 312 308 308 310 311 312 309 318 313 310 310 311 314 316 318 318 319 319 319 319 319 325 324 325 326
304 304 306 308 308 306 305 303 302 299 299 299 299 299 299 300 309 313 313 310 314 319 317 309 307 309 311 311 309 318 313 311 311 313 314 315 317 318 319 320 319 319 322 325 326 327 328
303 303 303 304 307 308 307 306 303 302 300 300 299 299 299 299 302 312 313 311 312 318 320 311 308 310 313 310 308 316 315 313 312 313 314 314 315 317 319 319 319 320 321 321 323 327 326
302 302 303 303 303 305 307 307 306 304 302 301 300 300 299 299 300 308 310 310 312 313 318 310 309 310 313 309 308 311 317 317 315 314 315 315 316 319 319 320 320 321 320 321 322 327 327
303 302 302 302 302 303 304 307 307 306 305 303 301 300 300 299 299 304 307 309 310 312 313 311 313 312 312 312 313 312 316 315 318 317 317 317 319 321 320 319 319 320 321 322 322 325 327
299 302 303 303 303 301 302 304 307 307 306 306 305 300 300 299 299 303 308 312 316 315 313 317 317 315 309 313 316 316 316 316 318 319 321 321 322 320 319 318 320 321 320 321 321 321 322
299 298 297 300 303 303 302 300 304 307 306 306 306 305 302 300 299 305 313 316 316 313 315 315 312 314 314 313 317 318 316 319 319 321 321 322 322 321 320 320 321 322 321 321 322 320 320
302 302 301 300 298 299 302 302 300 304 307 305 305 305 305 301 300 306 311 316 315 316 317 317 314 314 314 314 316 317 316 318 319 320 321 322 321 320 321 321 321 322 322 322 322 321 320
301 302 303 302 302 302 297 299 301 299 304 306 304 305 306 303 304 309 312 311 314 312 319 316 314 314 314 315 316 316 317 317 319 320 321 322 321 321 321 321 322 321 321 321 322 322 322
301 301 301 301 302 302 302 300 300 301 299 305 305 304 305 302 314 314 314 313 316 316 315 315 317 316 317 316 316 317 317 317 319 319 320 321 321 321 321 321 321 321 321 322 322 323 322
302 302 302 301 301 301 302 302 301 301 300 302 306 304 304 304 310 312 314 315 316 322 314 314 319 318 318 317 316 316 316 317 318 320 321 321 319 321 321 321 320 321 322 322 323 323 323
302 302 302 302 302 302 301 302 302 301 301 299 304 304 303 306 307 312 315 317 320 317 314 314 320 319 318 317 317 318 318 319 319 320 321 321 321 320 320 321 321 321 322 324 323 324 324
303 303 303 303 302 302 302 301 302 301 301 300 300 305 303 304 308 310 313 318 316 310 313 315 318 319 318 316 317 318 318 319 319 319 320 320 320 320 320 321 321 322 323 324 322 323 322
303 303 303 303 303 303 302 302 301 302 301 301 299 303 303 303 306 310 314 318 311 312 315 315 316 320 318 316 317 318 319 319 319 319 319 320 319 320 321 321 321 322 322 322 323 323 323
305 304 303 303 303 303 303 302 302 302 301 301 298 300 303 302 304 308 313 315 311 312 315 317 316 320 319 316 317 318 319 319 319 319 319 320 321 321 321 321 321 322 321 323 323 323 322
304 304 304 305 304 303 303 303 302 302 302 301 299 302 304 302 303 305 312 313 311 313 316 319 319 317 319 317 316 318 318 317 319 319 319 319 320 321 322 322 322 322 322 322 322 322 323
302 301 302 304 304 304 304 303 303 302 302 301 300 304 303 302 304 306 311 313 311 313 315 318 319 322 320 318 317 317 318 318 317 318 319 319 320 322 320 320 320 320 321 322 323 322 322
297 296 296 296 302 304 304 304 303 303 302 301 301 302 303 303 305 306 309 311 311 313 314 318 319 320 321 320 318 318 318 318 316 319 319 320 320 322 320 319 320 320 320 320 322 321 323
299 298 298 298 296 300 304 303 304 303 302 301 301 304 304 304 304 307 308 311 311 311 313 316 318 319 321 321 319 318 318 317 316 318 318 319 320 320 321 319 319 321 320 321 322 324 323
298 299 300 299 299 297 301 303 304 304 301 301 302 304 304 306 306 307 309 309 310 312 312 314 318 319 320 320 320 319 317 318 317 316 317 320 320 320 319 318 318 318 318 321 321 322 322
298 298 299 300 300 298 298 303 304 304 301 301 301 305 305 305 305 307 310 310 310 311 312 313 316 318 319 319 319 320 320 320 319 319 319 319 319 320 320 319 319 319 319 319 321 320 321
299 299 298 299 300 300 298 299 304 303 300 300 301 304 305 306 307 307 310 309 310 311 311 311 313 314 317 318 318 316 316 316 317 321 321 321 320 320 319 319 319 321 321 320 321 321 321
300 300 300 300 299 300 299 297 301 301 301 300 301 304 306 308 308 307 306 307 308 310 312 311 311 314 314 315 314 315 316 317 318 318 319 321 321 322 321 318 326 319 319 320 320 321 321
300 299 300 300 299 300 299 297 299 302 301 300 301 303 304 309 308 307 306 307 307 308 311 311 313 313 313 313 313 312 313 316 319 320 320 320 322 322 327 321 320 318 317 318 320 321 320
300 303 302 301 300 300 299 298 298 301 301 301 301 302 304 308 308 306 308 306 309 310 312 311 310 314 313 316 317 317 312 312 319 320 315 317 318 325 319 323 326 319 320 317 318 323 320
300 301 301 300 300 300 299 298 299 300 300 301 301 302 304 305 305 306 308 308 307 309 312 311 312 314 314 317 321 318 316 314 318 323 319 318 318 324 324 326 322 320 317 315 321 323 319
300 300 300 300 300 300 299 299 302 300 300 300 300 301 304 305 306 306 307 308 307 308 312 311 313 315 317 317 317 318 322 320 318 320 321 321 322 323 323 327 327 316 315 320 322 319 318
300 299 299 300 300 299 299 299 301 300 300 300 300 301 302 303 303 304 304 307 308 308 309 311 311 312 314 316 318 318 321 318 321 322 318 322 322 324 322 323 322 315 320 318 319 319 317

GFSGBSN_850_thetae_045.txt.gz
Theta_e
303 305 307 309 307 305 304 302 300 299 299 299 299 299 299 302 308 312 314 313 309 318 317 319 310 308 309 316 316 315 316 315 311 310 316 318 318 320 320 319 320 321 321 322 323 322 326
304 305 304 306 309 308 307 305 303 301 299 299 299 299 299 299 299 304 309 314 310 314 316 317 315 308 313 317 314 314 318 312 315 315 317 317 319 319 320 320 320 321 321 324 324 325 326
304 304 305 305 306 308 309 307 306 304 301 300 299 299 299 299 299 299 303 309 312 310 312 315 319 309 313 314 314 317 316 315 315 316 317 318 318 319 321 321 320 320 321 324 322 325 326
303 302 301 304 304 304 306 308 308 307 305 303 301 299 299 299 299 299 301 306 309 311 311 314 318 309 315 315 312 316 317 315 315 316 316 318 318 319 320 320 320 320 322 323 324 326 327
303 304 303 303 302 304 304 304 307 307 306 306 303 301 300 300 299 299 299 303 306 309 310 311 316 314 316 315 311 312 319 316 316 316 316 316 318 319 321 320 321 321 322 323 323 324 327
301 300 302 304 304 303 303 303 304 306 307 306 306 304 301 300 300 299 299 302 306 307 311 310 314 316 316 314 312 312 318 317 318 318 318 319 319 321 321 320 320 320 321 322 324 324 325
301 301 301 297 302 303 303 303 302 303 306 308 306 306 305 301 300 299 299 314 317 319 316 313 318 315 313 314 316 316 316 317 319 319 321 321 323 323 321 320 320 321 321 322 323 322 321
301 301 301 300 299 297 300 303 303 302 303 307 307 306 306 304 301 299 301 313 316 317 316 315 315 315 317 315 317 316 318 318 319 322 321 323 324 322 321 320 320 321 321 321 322 322 322
302 302 302 302 302 302 301 299 300 302 302 304 307 306 305 305 303 301 309 314 316 317 316 313 315 316 315 315 316 317 318 318 321 322 322 323 323 322 320 320 321 322 322 323 322 323 322
302 302 302 302 302 301 303 302 302 298 298 301 305 306 305 305 303 308 312 314 315 315 317 315 318 317 316 316 317 316 317 318 320 321 321 322 322 321 321 321 321 322 322 321 322 322 323
302 302 302 302 302 302 301 301 303 302 299 301 301 305 305 304 310 314 316 316 317 318 313 317 318 317 317 316 317 317 317 317 320 320 321 322 322 322 322 321 322 322 322 322 323 324 324
302 303 303 303 303 302 302 301 301 302 302 300 301 302 305 304 305 313 316 317 319 319 315 316 319 319 319 317 317 318 317 317 318 320 321 321 321 322 322 321 322 322 323 323 324 324 326
303 303 303 303 303 303 303 302 301 301 302 302 301 300 304 305 307 310 315 318 317 314 314 315 318 319 320 320 319 319 319 319 319 320 322 321 322 321 321 322 322 322 324 325 325 326 326
303 303 303 303 303 303 303 303 302 302 301 302 301 299 302 305 306 311 313 317 313 310 312 317 318 320 320 320 319 319 320 319 319 320 322 322 322 322 322 321 323 323 324 326 330 326 325
303 304 303 304 304 303 303 303 303 302 302 302 301 301 302 304 305 308 308 316 313 311 313 314 317 320 321 319 319 319 319 319 319 320 321 322 322 321 321 321 322 323 324 324 325 325 324
303 304 304 304 304 304 303 303 303 303 302 302 302 303 303 304 304 307 308 314 311 311 311 314 314 319 322 320 318 320 320 319 319 319 320 321 322 321 321 322 322 323 324 324 324 325 327
302 303 303 304 304 305 304 303 303 303 302 302 302 303 303 303 304 306 309 312 313 310 311 313 316 316 320 321 318 319 319 319 319 319 320 321 321 322 323 323 323 323 324 323 324 324 326
302 302 303 303 304 304 305 304 303 303 303 302 302 305 303 302 305 306 308 310 310 311 311 312 316 317 318 321 319 318 319 319 318 319 320 320 322 324 323 323 322 322 323 323 325 324 324
302 302 305 303 301 302 303 305 304 303 303 302 302 303 303 304 306 309 307 309 310 312 312 313 317 319 320 320 321 319 318 318 318 319 321 320 320 324 323 323 322 322 323 323 324 323 324
302 301 300 301 301 299 301 304 305 304 303 302 302 304 304 305 305 308 307 309 309 310 312 311 315 317 319 321 321 321 319 318 319 318 319 320 320 321 324 324 322 321 321 321 322 326 324
302 301 300 300 300 299 298 298 302 304 304 302 302 305 305 306 307 309 308 307 308 310 311 312 313 316 316 319 319 320 320 320 318 317 319 321 321 320 320 321 321 321 321 321 321 321 323
298 298 298 298 299 299 300 298 298 303 305 303 300 305 305 307 306 308 308 308 308 309 310 312 314 316 317 317 318 320 319 319 319 319 320 320 321 321 320 321 320 319 319 319 319 320 321
297 297 298 298 298 299 299 299 298 300 304 303 300 303 305 306 308 309 310 308 307 309 310 310 312 313 316 317 319 318 318 318 319 321 321 320 323 321 323 321 321 323 319 319 319 320 321
298 299 299 298 298 298 299 300 299 300 302 302 301 303 306 309 309 309 308 308 307 309 311 311 311 314 314 316 317 317 316 316 318 319 319 322 322 322 324 322 325 320 320 320 319 320 320
300 300 300 300 300 300 299 299 300 299 304 303 302 304 306 310 308 308 308 308 307 307 310 311 311 312 312 315 316 315 315 314 315 317 318 319 324 324 327 325 320 319 320 320 320 320 320
301 301 301 301 300 300 300 299 300 299 299 301 302 303 306 309 309 307 308 307 308 310 311 310 310 311 313 315 315 314 310 312 314 318 318 320 321 326 324 324 325 321 320 319 320 323 320
301 301 301 300 300 300 301 300 300 299 298 300 303 303 304 306 307 307 309 308 307 309 312 310 311 314 314 318 318 317 312 311 313 321 320 320 321 327 326 325 322 320 320 320 323 322 321
300 300 300 300 300 299 299 300 300 299 299 301 301 303 305 305 306 306 307 308 307 308 312 309 313 314 317 317 318 315 317 316 315 313 319 322 322 326 325 327 328 320 320 321 322 321 322
300 302 302 303 303 301 300 300 300 300 301 300 302 302 304 305 305 307 308 309 308 307 308 310 312 314 314 316 317 314 321 325 316 320 315 321 321 325 323 324 323 319 320 319 320 321 322

GFSGBSN_850_thetae_051.txt.gz
Theta_e
301 301 301 301 304 303 305 307 307 308 307 303 302 300 300 299 300 299 299 299 300 300 302 306 307 307 310 316 316 317 319 316 315 314 311 313 316 316 315 316 319 317 318 320 320 323 323
304 303 302 301 301 304 304 304 305 307 308 307 306 302 300 300 300 300 300 300 300 300 301 304 308 308 312 317 315 318 316 316 313 314 311 316 317 318 319 319 317 319 318 318 319 321 324
302 304 305 304 302 302 301 302 305 305 306 305 304 307 304 300 300 300 300 300 300 300 300 303 308 310 311 307 313 316 318 319 315 314 312 317 318 318 319 318 320 319 318 317 317 322 322
303 303 302 301 303 305 304 303 303 303 304 303 305 306 306 304 301 300 300 300 300 300 300 302 307 311 312 306 312 314 316 318 318 315 316 317 318 318 319 319 318 318 317 316 317 322 324
303 301 303 304 303 303 302 305 304 304 303 303 303 305 306 306 305 301 300 300 301 300 301 309 308 311 315 314 313 311 315 316 318 316 316 317 318 317 318 316 316 317 317 317 318 324 325
302 303 303 303 303 303 304 303 303 305 304 303 303 302 305 306 305 303 300 300 301 301 308 317 314 314 312 311 314 316 315 315 318 316 316 317 317 315 314 315 317 318 318 317 322 322 324
302 303 302 303 303 303 302 301 301 299 303 304 303 303 304 306 306 304 302 300 311 317 319 319 316 306 308 314 317 315 314 315 318 317 316 317 315 316 315 316 318 318 318 316 318 321 322
300 300 300 301 302 303 303 303 303 302 300 298 301 303 301 305 306 305 304 301 308 314 315 316 316 319 315 314 318 317 313 315 319 319 316 316 317 317 319 320 321 321 318 317 323 324 322
300 302 302 302 302 303 303 304 304 304 303 303 301 299 301 303 305 304 304 301 302 311 315 314 312 312 310 311 315 316 315 316 318 318 318 318 319 319 320 321 321 319 318 318 322 322 320
299 301 301 302 302 303 303 303 303 304 304 304 303 302 298 301 303 308 310 313 312 314 316 311 310 312 311 311 315 315 317 315 317 318 318 318 319 320 321 322 320 317 318 321 322 321 319
300 300 301 302 302 302 303 303 304 303 302 302 302 303 299 300 305 308 312 316 317 316 309 309 312 313 313 312 315 314 314 317 316 317 317 319 320 320 321 322 320 318 321 322 322 320 319
299 300 300 301 301 302 303 303 303 303 303 302 302 302 300 301 303 304 307 314 317 317 317 312 317 318 315 312 314 316 314 315 317 317 317 318 320 319 319 321 321 320 322 322 322 320 321
299 300 300 300 301 302 303 303 304 303 304 303 302 302 303 301 302 305 308 311 316 316 310 309 319 318 318 317 314 315 316 315 315 318 318 318 319 319 319 320 321 319 320 321 325 322 322
298 299 300 300 301 301 302 303 304 304 304 304 302 301 302 302 301 304 307 312 315 308 308 313 313 319 319 318 318 317 317 317 315 316 317 318 319 319 319 320 320 320 319 322 328 325 327
298 299 300 301 301 301 301 303 304 304 304 304 303 302 302 303 301 303 307 312 308 308 309 308 310 313 319 320 320 318 317 317 318 316 318 318 319 319 319 320 319 320 320 320 327 326 327
298 299 300 300 301 301 301 302 303 304 304 304 303 303 302 303 302 304 308 310 310 308 308 309 310 312 314 317 320 319 319 319 319 317 317 319 320 319 319 319 319 319 320 321 325 328 331
298 298 299 300 301 301 302 303 303 304 304 304 304 303 303 303 302 304 306 307 307 309 309 308 309 310 312 312 314 316 320 319 318 318 318 317 318 319 320 321 321 320 320 321 323 324 323
298 298 298 299 300 301 302 303 303 304 304 304 304 304 303 303 304 304 305 306 307 306 308 308 310 310 311 313 313 314 318 321 320 318 319 318 320 318 318 320 320 320 320 321 323 325 325
298 298 298 299 300 300 301 302 303 303 304 305 304 303 303 303 304 305 305 306 307 307 308 308 308 310 311 312 313 314 320 320 321 318 319 318 318 318 319 319 320 320 320 321 323 324 324
298 298 299 300 300 300 301 302 302 303 304 304 302 303 304 305 304 304 305 305 306 307 307 307 309 308 308 311 312 313 319 321 320 318 319 318 318 318 318 320 323 323 322 321 322 321 323
298 298 299 299 300 300 300 301 302 302 303 305 301 303 304 306 305 305 304 305 306 307 307 306 307 308 308 310 312 313 318 319 319 320 318 318 318 318 319 319 321 323 323 321 322 323 323
298 299 299 300 300 301 302 302 302 302 303 305 300 304 304 304 305 305 305 305 305 306 306 307 307 308 308 308 311 313 317 318 319 320 318 318 319 318 319 320 321 320 320 321 321 322 323
299 299 299 299 301 301 300 300 302 303 303 305 302 303 304 304 305 305 305 305 306 306 306 307 307 307 308 309 310 316 318 319 319 319 320 320 318 319 319 319 319 318 319 320 321 321 319
298 297 297 297 297 298 298 299 304 303 304 305 303 303 303 307 304 305 305 305 305 308 307 308 308 307 307 308 315 316 315 315 316 318 320 320 319 317 317 318 320 318 318 320 321 321 318
297 297 297 297 297 298 298 298 299 302 302 302 301 303 304 305 305 305 305 306 306 306 307 308 309 308 307 308 313 314 312 314 315 318 319 318 318 318 319 319 319 319 320 320 319 319 318
298 298 299 299 299 299 298 298 298 300 300 302 301 301 304 304 306 305 306 306 306 306 306 307 307 308 308 308 312 313 312 317 318 319 319 319 319 318 316 319 320 318 319 319 318 319 317
300 300 300 301 301 299 300 300 299 298 299 301 301 300 300 301 305 306 306 306 307 307 307 307 308 308 308 307 308 310 312 315 316 316 318 319 316 318 314 316 318 319 318 319 320 318 318
300 300 300 300 300 301 301 301 300 298 298 299 300 300 300 300 305 306 307 308 307 307 307 308 309 309 309 309 309 308 308 313 314 313 312 317 318 315 318 320 321 317 319 318 317 318 318
300 300 300 300 300 299 300 301 301 299 299 299 300 299 300 299 305 306 306 307 307 308 308 309 309 308 309 308 310 310 308 310 311 312 313 317 317 317 317 316 318 317 318 320 320 321 320

GFSGBSN_850_thetae_054.txt.gz
Theta_e
306 305 305 304 302 302 302 301 300 304 306 305 306 304 302 300 300 300 300 300 300 300 300 300 302 305 305 311 311 314 314 318 317 317 314 311 315 315 313 314 316 316 316 319 318 322 322
303 303 305 304 304 302 302 302 302 301 304 305 306 304 302 304 301 300 300 300 300 300 299 300 302 305 308 315 310 315 318 318 316 315 314 312 313 316 316 317 317 318 318 317 317 323 323
303 304 302 301 302 304 304 303 301 301 302 302 304 304 304 303 303 301 300 300 300 300 299 299 302 305 311 305 307 315 318 318 319 319 313 312 313 316 317 317 318 318 316 315 316 321 321
302 303 302 302 303 304 302 303 303 303 302 302 302 303 303 305 303 301 301 300 300 300 299 299 302 307 309 305 305 307 307 315 317 319 315 312 316 316 318 318 317 317 316 316 316 322 323
303 303 302 303 303 303 303 303 302 303 304 304 304 302 302 302 305 302 300 301 301 300 300 300 310 312 310 309 312 311 310 313 317 318 316 316 316 316 317 314 314 315 315 316 317 318 323
303 303 303 302 303 303 304 304 304 302 302 303 305 304 302 302 303 304 302 300 301 301 300 304 316 313 310 308 314 316 315 314 316 317 318 316 316 314 312 312 315 315 316 315 314 322 323
302 302 302 300 300 301 301 302 302 303 303 302 299 301 302 301 302 304 304 301 305 315 313 317 317 310 312 312 312 316 316 314 315 317 313 316 315 314 313 313 315 316 316 316 316 318 324
301 301 300 300 302 302 302 302 303 304 304 304 302 302 299 300 302 304 304 303 307 309 308 309 313 315 313 315 316 315 316 315 315 317 314 315 316 315 315 315 317 317 318 318 316 321 320
300 300 301 300 301 302 302 302 303 303 304 304 305 304 302 300 299 302 305 304 310 312 311 311 310 313 312 311 315 311 315 314 317 317 316 315 317 316 316 316 318 318 319 317 317 320 320
299 298 299 299 299 301 302 302 303 303 303 303 304 304 303 302 298 303 307 311 310 313 313 312 312 309 311 311 313 307 312 313 316 318 317 316 316 317 318 318 318 319 318 317 319 318 318
298 298 298 299 300 300 300 301 302 303 304 304 303 302 303 303 298 305 309 311 312 313 299 306 311 310 311 310 312 313 309 315 315 316 316 318 318 318 318 318 318 319 319 318 321 320 319
297 298 298 298 299 299 300 301 301 303 303 304 303 302 302 303 299 299 302 307 315 316 313 312 314 311 311 310 313 314 313 316 316 314 315 316 317 316 317 318 318 319 320 319 318 318 320
297 297 297 298 298 298 299 300 301 303 303 304 304 303 302 303 301 301 303 310 314 311 308 308 318 316 312 311 310 313 313 314 314 316 315 316 316 316 317 318 318 319 317 319 321 321 321
296 296 296 297 297 299 299 300 301 302 303 304 304 304 302 302 303 301 303 311 313 309 307 309 310 317 317 313 312 313 314 312 312 314 315 317 319 317 317 317 318 318 318 319 324 324 324
295 296 296 297 297 298 299 300 301 301 303 304 304 304 303 302 303 301 303 311 310 308 308 308 308 309 318 318 318 314 314 314 314 314 315 317 318 317 317 317 317 319 319 318 323 324 323
295 295 296 296 298 299 300 301 301 301 303 304 304 304 303 303 302 301 304 308 311 309 309 309 308 310 310 312 316 317 317 316 316 315 314 316 318 317 317 317 316 318 319 321 322 326 326
294 295 296 297 297 298 299 300 301 302 303 304 304 304 304 303 302 303 304 306 307 308 307 309 309 309 310 311 312 312 317 318 316 316 316 315 316 318 318 318 318 318 318 320 321 322 322
295 296 296 297 297 298 298 299 301 302 303 304 305 304 304 303 303 302 303 304 306 307 307 308 308 308 310 310 312 312 314 315 318 317 317 315 316 317 317 317 317 317 319 319 322 323 321
295 296 297 298 298 298 298 298 300 302 303 303 304 302 303 303 303 303 302 304 305 306 307 306 308 308 307 309 309 312 313 314 317 320 318 316 316 317 318 317 318 317 318 319 321 320 323
296 297 297 298 298 298 299 299 299 301 302 303 301 303 303 303 303 303 303 303 304 305 305 306 307 307 308 308 308 310 311 313 316 319 319 318 317 317 318 318 318 321 319 319 320 319 321
296 297 297 298 299 299 299 300 300 301 301 302 300 302 304 305 304 303 303 304 304 304 305 306 307 306 307 308 307 307 311 316 317 318 318 319 318 318 317 318 318 318 320 321 319 319 321
296 297 298 298 299 299 299 300 300 300 301 302 300 302 303 303 304 304 303 304 304 305 306 306 306 306 307 307 307 307 308 314 317 319 319 318 320 316 318 318 319 318 317 320 320 320 321
297 297 298 298 299 299 299 300 300 300 300 302 303 303 304 304 304 306 305 303 304 304 305 305 306 306 306 306 306 308 314 313 317 318 317 318 319 318 319 317 318 318 318 318 318 319 320
298 298 299 299 299 300 300 301 300 301 301 301 303 302 303 306 303 305 305 304 304 305 304 305 305 305 306 307 308 312 314 314 316 318 317 317 317 318 315 316 320 318 317 317 317 318 318
299 299 298 297 297 298 298 298 300 301 302 301 303 303 303 305 304 303 304 305 305 304 305 306 306 306 306 307 306 307 307 310 312 315 318 316 317 316 315 317 317 317 317 317 318 317 317
296 296 297 297 297 297 297 297 298 298 300 300 303 302 304 304 305 304 304 304 304 304 304 304 305 307 306 304 305 306 306 311 315 316 316 318 317 315 316 318 318 316 316 318 317 317 316
298 298 298 298 298 298 298 298 298 298 298 299 303 302 301 300 303 304 304 304 304 304 304 304 305 305 306 303 303 306 307 311 312 312 316 316 316 317 316 316 315 316 316 318 319 317 317
300 300 300 300 300 300 300 299 299 298 298 298 300 300 301 300 302 303 305 305 305 304 304 305 306 306 305 305 305 304 303 310 311 312 311 313 316 316 315 318 317 317 319 318 316 318 318
301 300 300 300 300 300 300 300 299 299 299 298 299 299 300 301 302 303 304 306 305 305 305 306 306 306 307 305 304 304 305 301 308 310 311 313 312 315 315 316 315 317 318 317 316 318 319

GFSGBSN_850_thetae_057.txt.gz
Theta_e
303 304 305 306 306 306 305 304 304 304 302 302 303 304 301 303 303 301 301 300 300 299 299 299 299 300 303 307 306 312 314 312 317 316 317 314 312 315 313 313 315 313 315 317 317 319 322
302 302 304 303 302 303 304 305 305 304 303 303 302 306 306 301 303 302 301 301 300 300 299 299 299 300 306 312 307 308 311 311 317 317 316 314 311 314 315 315 316 316 317 316 317 321 322
304 304 303 303 303 303 303 302 302 302 302 302 302 303 302 304 301 302 301 300 300 301 300 299 299 299 307 303 305 305 314 317 318 316 316 314 313 316 316 315 317 317 316 314 315 321 320
303 303 303 303 303 303 303 302 301 302 300 301 301 303 300 301 301 301 301 301 300 300 301 300 299 301 307 304 305 305 307 316 318 319 318 317 313 313 315 317 315 315 315 315 316 320 322
302 303 303 303 302 303 302 303 303 303 302 302 300 302 304 302 300 300 301 301 300 300 301 300 300 307 310 307 308 313 312 307 316 315 316 318 314 315 315 313 313 313 312 315 315 317 320
301 301 302 302 302 302 302 302 302 301 301 302 303 301 301 300 300 299 300 301 300 302 302 301 310 309 306 308 309 314 315 315 309 314 316 317 316 312 310 311 313 312 315 315 314 316 322
300 300 301 301 302 301 302 302 301 302 303 304 304 304 304 302 298 299 301 301 304 312 311 308 311 308 309 311 314 314 316 316 312 315 314 314 313 314 314 312 313 315 315 315 314 315 320
299 299 300 300 300 300 300 302 302 302 303 303 303 304 305 304 302 299 299 303 305 306 308 307 308 311 311 312 314 312 315 314 314 313 312 313 314 314 314 313 314 314 315 316 316 316 320
298 298 298 299 299 300 299 300 301 302 302 303 303 303 304 305 303 301 299 304 308 307 308 311 304 304 307 308 313 311 312 314 313 314 313 314 315 315 315 315 315 315 316 316 317 317 319
298 298 298 298 298 299 300 299 300 301 302 302 303 304 303 304 303 300 304 308 308 307 309 308 311 308 309 312 314 308 309 313 315 313 315 315 315 315 315 315 315 316 316 317 316 316 318
297 297 297 298 299 298 298 299 299 300 301 302 303 304 303 303 303 302 304 306 305 310 301 304 310 309 310 310 309 311 308 311 312 315 316 317 316 316 316 316 316 317 318 318 317 318 317
296 297 297 297 297 298 298 299 299 300 300 302 303 304 303 302 302 303 301 301 308 314 310 308 311 311 312 310 310 312 312 314 314 314 314 315 315 315 315 316 316 317 318 318 317 316 319
296 297 297 297 297 297 297 298 298 299 300 301 303 304 304 303 302 303 301 304 315 312 307 307 313 311 311 310 309 312 311 313 314 314 313 313 313 314 315 316 316 316 316 318 318 319 320
296 296 296 296 296 296 297 297 298 299 300 301 303 304 304 303 302 302 302 308 313 309 307 308 308 312 312 310 311 310 312 310 312 314 312 313 315 314 315 316 317 317 316 318 321 321 320
296 296 296 296 295 296 296 297 298 299 300 301 303 304 304 304 302 302 301 308 311 309 307 308 307 310 314 316 313 312 312 312 312 312 315 315 316 316 315 316 316 317 317 317 320 321 323
296 296 295 295 295 296 296 297 298 299 300 301 303 304 303 304 303 302 302 306 310 310 308 309 307 308 310 311 313 313 314 314 314 313 313 314 317 317 316 316 315 317 317 320 320 325 325
295 294 294 294 295 295 296 296 298 299 301 301 303 304 304 304 303 302 302 303 306 306 307 308 309 309 309 310 311 311 314 315 316 315 313 313 315 315 316 316 316 316 317 319 320 319 320
293 293 294 294 295 295 295 297 297 299 300 302 303 304 303 304 303 303 302 302 304 305 306 307 308 308 308 309 310 311 313 312 315 317 316 314 315 316 316 315 316 316 317 318 319 321 318
293 293 294 294 295 295 297 298 298 299 300 302 303 301 303 304 304 302 302 302 303 305 305 306 306 307 307 307 307 308 311 311 314 316 319 318 316 317 317 315 315 316 315 316 318 317 320
293 294 294 295 295 297 297 298 298 298 299 301 300 302 301 303 303 303 303 303 303 304 305 305 306 306 307 307 307 307 308 309 309 317 318 318 317 316 318 317 316 318 317 316 318 318 318
293 293 294 295 296 297 297 297 298 299 299 300 300 301 303 304 303 303 303 303 303 304 304 305 305 305 306 307 307 307 307 309 310 317 318 318 319 319 316 316 317 318 318 316 317 318 319
293 294 295 296 297 297 297 298 299 299 299 299 299 301 303 302 304 303 304 304 303 303 304 304 304 305 305 305 306 306 306 307 309 315 317 317 318 317 316 317 316 317 317 317 317 317 318
295 295 296 296 297 297 298 298 299 299 299 301 301 301 303 304 304 304 303 303 304 304 304 303 304 304 304 305 305 306 306 306 310 312 315 316 316 317 318 317 316 317 317 317 317 318 319
296 296 296 297 297 298 298 298 299 299 300 301 301 302 303 305 303 304 304 303 303 304 304 304 304 304 305 305 305 306 309 309 312 315 315 316 316 316 318 315 321 318 316 316 317 316 316
297 298 299 298 298 298 299 299 299 299 300 299 301 302 303 304 304 303 304 305 304 303 304 304 304 305 305 305 304 305 303 307 308 312 316 314 315 315 319 319 316 318 316 316 316 317 315
298 297 296 296 299 299 299 299 300 300 300 299 299 301 303 304 304 304 304 304 304 303 304 303 304 305 305 303 304 306 305 307 312 315 315 314 312 313 314 318 319 315 314 315 315 317 314
296 296 296 296 297 296 297 297 299 299 300 301 301 300 302 302 303 304 304 303 304 303 303 303 304 304 304 301 302 304 306 308 308 310 312 315 314 316 316 317 314 315 315 317 319 318 315
299 300 299 299 299 298 297 297 297 297 298 299 300 301 301 301 302 303 304 304 303 304 302 304 304 303 302 302 303 304 300 306 308 310 310 311 313 314 314 316 316 314 314 319 315 316 317
299 300 300 300 300 299 299 298 298 298 298 298 298 299 300 301 302 303 304 304 304 304 304 304 305 305 304 303 301 302 301 298 306 307 309 310 308 310 311 313 314 312 313 312 313 316 316

GFSGBSN_850_thetae_060.txt.gz
Theta_e
303 302 303 303 303 303 303 303 304 305 305 305 304 303 303 304 304 307 305 300 300 300 301 300 299 299 300 305 304 309 316 314 312 317 317 316 311 314 311 310 312 310 313 315 317 316 318
301 303 303 303 303 303 303 303 304 304 304 303 303 304 303 303 303 305 306 305 300 300 300 301 300 299 301 308 304 306 307 307 308 314 316 316 312 312 313 313 313 315 315 315 315 316 320
303 303 303 302 302 303 303 303 303 302 301 301 300 301 301 302 302 300 304 307 302 300 300 300 301 300 301 301 304 303 306 314 314 316 316 315 314 315 314 314 316 316 315 312 313 317 319
302 302 303 303 302 302 302 303 303 303 303 302 300 300 299 300 303 301 299 301 309 303 300 300 301 301 302 302 304 304 304 309 316 316 316 317 315 312 313 315 314 315 313 314 313 317 319
301 302 302 301 302 302 302 301 300 301 300 300 300 302 302 301 300 298 298 299 301 308 301 300 301 301 304 303 305 311 312 306 311 317 319 312 314 313 314 313 313 311 312 313 314 315 319
301 301 301 301 301 301 301 301 302 300 300 302 303 304 304 304 304 304 299 298 301 303 306 302 308 306 302 303 308 312 314 315 309 317 313 315 315 311 309 311 315 313 313 312 313 315 317
300 301 300 299 300 300 301 300 300 302 302 302 302 303 303 304 305 304 303 298 304 308 306 309 310 303 303 310 311 315 315 315 311 312 313 313 312 313 313 312 311 312 314 314 312 312 316
298 299 299 299 299 299 299 300 300 301 302 302 302 302 303 303 304 305 303 301 304 305 307 306 306 308 306 311 314 310 311 314 312 312 312 312 314 313 313 312 313 313 314 313 313 314 315
298 299 298 298 299 299 299 299 300 299 300 301 302 302 302 303 304 304 302 301 306 304 308 307 306 305 305 308 311 308 310 313 312 312 313 314 314 313 313 313 314 313 313 314 315 314 314
297 297 297 297 298 298 297 299 298 299 300 300 301 301 303 304 303 302 304 306 305 303 308 307 310 308 306 307 311 306 309 312 312 313 312 313 314 314 313 314 313 314 313 314 315 315 316
298 297 297 297 297 297 298 298 297 298 299 299 300 301 303 304 303 303 303 303 301 307 303 303 310 308 309 309 308 312 309 311 313 313 314 315 314 314 315 314 313 314 314 315 316 314 316
296 296 296 296 297 297 297 297 297 298 298 299 300 301 303 304 303 303 302 302 303 312 311 306 310 311 313 312 309 311 310 310 312 314 314 313 314 313 315 314 313 316 317 316 315 314 318
296 296 296 296 296 296 297 297 297 297 297 297 299 300 303 303 304 303 302 302 309 312 307 306 308 311 311 311 310 311 311 312 311 312 313 313 314 313 315 315 314 315 315 317 318 319 320
296 296 296 296 296 296 296 296 296 297 297 298 299 300 302 304 303 303 302 305 309 310 310 308 308 307 310 310 309 311 309 310 311 311 311 313 313 312 312 314 314 315 316 317 321 320 318
295 296 295 295 296 296 295 295 296 297 297 298 299 300 302 303 303 303 302 304 308 310 308 309 308 309 311 312 311 311 310 308 310 312 314 313 312 313 313 314 315 315 316 315 317 319 321
295 295 295 295 295 295 295 295 295 297 297 298 299 300 301 303 304 303 302 302 307 309 307 308 309 309 310 310 312 312 311 313 311 313 312 314 316 316 315 314 314 316 315 319 317 323 324
294 295 295 295 295 294 294 294 295 295 296 298 300 301 301 303 303 302 304 302 303 303 306 307 308 309 308 309 310 311 315 312 314 314 312 313 313 315 315 315 314 315 315 317 317 317 319
294 294 295 294 294 293 294 294 295 295 296 298 300 301 301 303 303 300 304 303 301 302 304 306 308 308 308 307 307 311 313 312 309 314 313 313 313 315 315 314 314 314 315 316 317 318 317
293 294 295 294 293 294 294 294 294 295 297 298 300 301 301 303 304 303 304 303 302 302 305 305 306 307 306 306 305 308 309 309 307 310 319 318 314 315 315 314 314 314 314 315 316 315 317
294 294 294 293 293 294 294 295 295 296 297 298 299 301 301 302 302 303 303 303 303 302 302 305 305 305 306 306 306 307 307 308 307 308 312 317 318 315 317 316 315 316 315 314 316 316 316
294 294 293 293 293 294 295 295 296 297 298 298 299 299 302 303 303 303 303 303 303 303 303 304 304 305 306 306 305 306 307 307 308 309 317 316 318 318 318 317 317 316 317 315 315 315 316
292 292 293 293 293 293 293 294 296 297 298 299 299 300 301 302 303 304 303 303 304 303 303 304 304 304 304 305 305 305 304 305 306 309 311 315 316 315 316 317 317 317 314 314 314 315 315
292 292 293 293 293 294 295 296 297 297 298 299 299 300 303 303 304 303 304 304 303 303 302 303 303 303 303 304 304 304 304 305 306 307 310 313 313 314 318 316 316 316 316 315 316 315 315
294 294 294 295 295 296 296 297 297 298 298 299 299 300 301 304 303 304 304 303 303 303 303 304 303 302 303 304 304 305 304 304 304 305 308 314 314 312 315 314 319 316 313 314 315 315 314
296 296 296 296 296 297 297 297 297 298 298 299 299 300 301 302 304 303 304 303 303 303 304 303 303 303 304 305 304 305 303 305 307 310 310 314 313 314 313 313 313 313 315 314 316 316 314
297 297 297 297 297 298 298 298 298 298 298 298 299 300 301 302 303 303 304 304 303 303 302 303 303 304 304 302 304 308 304 305 308 312 309 311 311 311 315 314 314 311 314 314 316 316 314
297 296 296 297 297 297 297 299 299 299 299 299 299 300 302 302 302 303 303 304 304 303 303 303 303 303 304 302 306 308 307 305 306 310 313 313 313 315 314 314 312 312 313 315 319 312 313
299 298 297 297 297 296 296 297 299 299 299 299 299 299 300 300 302 303 303 304 304 303 303 303 304 302 300 301 303 306 302 304 305 307 311 312 313 310 312 314 312 312 314 319 315 314 314
300 300 299 298 299 299 297 297 297 298 299 299 299 299 300 300 301 302 303 303 304 304 303 304 304 302 302 301 300 301 300 296 305 307 308 308 308 308 309 310 309 312 313 311 312 314 315

GFSGBSN_850_thetae_063.txt.gz
Theta_e
303 302 303 303 303 302 302 303 303 304 303 302 301 301 300 300 301 302 302 301 305 308 305 301 300 300 300 301 302 304 314 315 317 315 315 312 313 313 314 311 311 312 314 313 314 315 315
302 303 303 302 302 303 303 303 303 304 303 303 302 300 299 299 298 299 301 301 300 304 307 305 301 300 301 305 304 304 305 307 310 311 317 315 312 312 313 312 314 314 313 315 315 315 317
302 301 301 302 302 302 302 302 303 303 303 304 303 301 300 300 299 298 298 298 299 299 301 308 303 301 301 301 302 302 303 304 311 309 313 315 313 312 313 315 314 315 317 316 316 315 318
302 302 301 301 301 302 301 302 302 301 300 299 298 299 301 302 302 302 302 301 299 299 300 305 305 301 302 302 302 303 303 304 311 314 314 315 313 312 312 314 314 316 315 317 314 318 319
301 301 301 301 301 301 301 301 301 302 302 300 300 302 302 303 303 303 302 302 301 299 302 304 305 301 303 302 302 306 307 304 304 314 314 314 315 312 313 314 316 314 317 315 315 316 320
300 300 301 300 300 300 300 300 301 300 302 303 302 301 302 302 302 303 303 303 300 305 308 304 306 306 304 302 306 312 313 314 307 311 315 313 312 314 313 314 315 317 316 315 316 317 318
299 300 299 300 300 299 299 300 300 301 300 301 301 302 302 302 302 303 303 304 301 305 304 308 309 305 305 306 308 313 315 314 311 309 316 313 316 315 313 315 314 314 314 315 314 314 315
299 299 299 299 299 298 299 299 299 300 300 300 300 301 301 301 302 303 302 302 304 303 304 304 304 306 307 306 310 311 313 312 311 311 313 314 317 316 313 314 315 315 316 316 316 315 316
298 298 298 298 298 298 299 299 298 299 299 299 299 300 301 302 303 303 303 301 304 301 305 306 306 306 305 307 307 307 307 313 312 313 313 316 315 315 314 314 315 315 316 316 316 315 316
298 297 298 298 298 298 298 298 298 298 297 298 299 299 300 302 302 303 304 304 303 302 308 307 308 308 306 306 309 306 307 309 312 313 313 313 314 314 315 315 315 316 315 315 315 315 320
297 298 297 297 297 297 297 298 297 297 297 297 298 298 300 301 303 303 303 302 303 305 308 306 310 308 308 307 307 311 307 309 312 313 314 315 315 315 314 315 314 315 315 316 315 316 317
297 297 296 296 296 297 297 296 297 297 297 297 298 298 299 301 303 303 303 302 301 310 309 309 310 311 310 310 310 311 309 309 310 313 314 314 314 315 315 314 314 315 316 317 317 318 321
295 296 296 296 296 297 296 296 296 297 296 297 297 297 298 300 302 303 303 302 307 308 308 307 308 308 309 310 312 311 310 310 311 315 316 315 314 314 314 315 314 316 318 320 322 323 323
295 297 296 296 296 296 295 295 296 295 296 297 297 298 299 300 302 304 303 304 307 306 310 309 308 308 309 311 311 311 310 309 310 312 314 316 315 315 314 316 317 316 317 322 323 323 322
295 295 297 296 296 295 295 296 295 295 295 297 297 297 298 300 301 303 302 303 305 305 308 308 309 309 311 310 310 311 310 310 309 312 314 314 314 312 313 314 316 317 318 318 320 320 323
295 294 295 294 295 296 295 295 295 295 295 296 297 297 298 300 301 302 302 304 302 307 306 307 309 309 309 309 311 312 312 310 311 312 313 314 317 315 315 314 314 317 317 319 319 323 324
294 294 294 295 295 296 295 295 295 294 295 296 297 299 299 300 301 302 304 304 302 302 302 306 308 308 308 308 308 312 313 309 308 313 313 314 315 315 316 315 316 316 318 318 319 320 323
293 293 294 293 294 295 295 294 293 294 295 295 296 299 299 301 302 301 304 303 302 302 303 305 306 308 308 307 307 309 311 310 308 309 315 314 315 315 316 314 315 315 317 319 321 321 320
294 295 294 294 294 294 295 293 294 294 295 295 298 298 299 301 302 302 304 303 302 302 304 305 306 306 307 307 307 308 308 308 307 309 310 319 315 316 316 316 314 315 316 317 317 317 321
292 292 293 293 294 295 295 293 294 294 294 296 298 300 299 301 301 302 303 303 303 302 302 302 305 305 306 306 306 307 306 306 307 309 312 317 319 316 316 318 318 317 315 316 318 320 319
292 292 293 293 293 294 294 293 294 294 295 296 298 299 300 301 300 302 303 303 303 303 302 303 303 305 305 305 305 305 306 306 306 309 312 317 318 318 318 317 317 317 317 317 316 317 318
293 294 293 294 295 295 293 292 293 294 295 296 298 299 299 300 302 301 303 303 303 303 304 303 304 305 305 305 305 305 305 305 306 307 308 309 317 317 317 316 316 317 317 316 315 316 316
292 292 292 292 291 291 292 293 293 294 294 297 297 298 299 300 301 303 305 303 303 303 303 303 304 304 304 304 303 304 304 304 305 305 307 309 315 315 316 315 315 318 316 315 316 316 316
294 294 294 294 293 293 293 293 293 294 294 296 298 298 299 300 302 303 303 303 303 303 303 303 303 304 303 303 303 304 303 304 304 305 306 308 314 313 316 314 314 316 314 313 316 316 315
297 297 297 296 296 295 294 294 294 296 297 297 298 299 299 301 301 303 303 303 303 303 303 303 303 303 303 304 305 307 305 306 307 306 306 307 309 315 316 315 313 312 314 317 318 317 316
297 297 297 297 297 296 296 296 297 297 297 297 297 298 300 300 301 301 303 303 304 303 303 303 303 303 303 303 305 307 308 306 308 312 308 308 310 315 315 317 315 313 315 314 316 316 315
297 297 297 297 298 297 297 297 297 297 298 298 298 298 299 299 300 301 303 305 303 303 304 302 302 303 303 305 306 308 308 306 308 311 310 311 312 314 315 316 314 312 313 314 315 314 314
298 298 298 298 297 296 298 298 298 298 298 298 298 299 299 299 301 302 302 303 303 303 304 303 304 303 303 305 306 306 306 307 307 307 312 312 313 314 314 316 314 310 314 315 314 312 313
299 300 299 299 299 297 296 296 298 298 299 299 299 298 299 299 300 301 302 303 303 303 303 303 304 302 302 304 304 305 306 303 307 308 307 310 312 314 313 314 310 311 311 310 311 311 312

GFSGBSN_850_thetae_069.txt.gz
Theta_e
302 302 303 303 302 302 303 302 301 302 302 302 303 301 300 298 297 298 298 298 298 299 299 300 300 300 302 311 311 309 305 309 310 313 316 316 318 318 319 318 318 319 319 318 318 318 318
303 303 303 302 302 303 302 302 301 302 302 302 302 298 297 297 298 298 298 298 298 298 299 299 300 299 306 312 312 308 307 306 311 318 317 316 317 318 318 318 319 318 319 319 317 318 318
302 302 303 304 303 302 302 302 302 301 301 301 303 303 302 300 299 299 298 298 298 298 299 299 300 300 306 309 311 310 307 306 305 310 316 316 317 317 318 319 317 318 318 319 320 318 319
302 301 302 302 302 302 301 301 301 301 300 301 301 302 303 302 300 299 299 298 298 299 299 300 301 307 308 307 309 309 309 308 308 307 308 314 317 318 317 317 318 319 318 319 320 320 320
301 301 301 301 301 301 301 300 300 300 300 300 301 301 302 301 299 299 298 297 299 300 300 301 308 310 310 309 309 308 309 309 311 310 308 311 314 316 318 319 319 320 320 321 321 321 320
300 300 302 301 300 300 300 300 299 299 300 300 301 301 300 301 299 299 298 299 305 306 309 310 310 311 311 309 310 309 313 314 314 311 309 312 314 318 318 320 321 321 321 322 322 323 320
299 299 299 300 299 299 300 300 299 300 300 299 300 301 300 300 298 299 301 307 307 311 308 306 308 311 309 309 311 311 311 314 315 313 313 311 316 318 319 319 320 320 321 322 323 322 321
299 298 299 300 299 300 300 300 298 300 300 298 299 300 300 299 298 299 306 307 306 305 306 306 307 307 307 306 307 310 313 315 314 316 314 311 315 316 318 319 320 320 320 321 322 321 320
298 298 298 298 300 299 298 298 298 298 299 298 300 299 298 297 298 304 306 306 306 307 308 307 308 309 309 308 308 308 312 315 315 315 317 314 314 316 318 319 320 321 321 322 321 321 321
298 298 298 297 298 297 299 299 298 297 298 298 298 298 297 296 301 305 305 305 306 307 311 312 311 311 311 309 310 308 310 313 312 314 315 317 315 317 318 319 321 321 320 320 320 321 322
298 298 298 297 297 299 299 299 298 297 297 298 299 298 298 298 302 303 305 305 306 308 309 310 311 311 310 310 309 310 309 312 314 312 313 317 318 315 317 319 320 321 320 320 320 321 322
297 297 297 297 297 297 297 297 297 297 298 297 298 297 297 299 302 303 304 306 307 314 309 310 311 312 313 312 311 311 309 309 311 313 313 312 313 316 316 316 318 319 320 320 320 321 323
297 296 295 295 296 296 296 295 297 298 298 297 296 297 297 300 303 305 304 306 311 309 307 308 311 311 311 311 313 311 310 311 314 315 316 314 315 316 316 315 317 317 319 322 323 324 324
294 294 295 296 296 296 296 298 297 298 297 296 297 296 298 300 301 302 304 308 308 305 307 308 309 309 308 310 314 313 313 311 311 311 314 318 318 316 316 317 317 319 320 324 326 327 325
294 295 295 295 295 295 297 297 297 297 295 296 296 297 298 300 301 302 304 309 306 306 306 307 309 307 308 312 312 314 314 314 312 311 314 316 315 315 317 317 316 319 320 320 322 325 328
294 294 294 295 296 295 295 295 296 296 295 296 297 299 300 301 302 303 304 305 306 306 308 308 306 306 309 311 313 315 315 313 312 312 312 314 316 316 317 317 317 319 320 321 321 326 328
293 293 293 294 294 295 296 295 295 294 297 295 297 299 300 301 302 303 306 305 305 304 305 307 307 308 309 310 311 314 316 314 311 311 311 312 314 317 317 319 319 317 320 321 322 323 325
293 292 293 293 294 295 294 295 295 297 296 295 297 301 301 302 302 303 304 304 304 305 305 305 306 307 309 310 310 311 316 311 308 308 313 312 314 317 319 319 318 319 320 322 324 324 325
293 293 293 293 293 294 293 294 294 294 296 296 297 299 300 301 304 305 304 304 304 304 305 306 306 306 308 308 310 310 313 311 308 308 311 312 315 315 317 320 318 320 320 321 322 323 327
292 292 293 293 293 294 294 294 294 294 295 296 298 301 299 301 302 304 304 305 304 304 305 305 307 306 307 309 310 309 310 308 307 307 307 310 316 317 319 320 319 319 320 320 321 324 323
292 292 293 292 293 293 294 295 294 294 295 296 296 300 301 302 303 303 304 305 304 304 305 304 306 306 307 308 309 309 309 309 308 307 308 311 318 319 317 319 319 319 319 320 320 321 321
292 292 293 292 293 292 293 293 293 294 295 295 296 298 299 300 301 303 303 304 304 305 305 306 306 305 306 306 307 307 308 309 309 309 309 309 315 316 319 317 318 319 318 318 319 319 320
293 293 293 293 292 292 293 293 293 293 294 296 296 297 298 300 302 303 303 303 303 304 303 305 306 306 306 307 307 308 308 308 308 309 309 308 312 315 322 317 317 318 319 319 319 319 321
294 294 295 294 294 293 293 293 293 294 294 296 296 297 298 300 301 302 302 303 304 304 305 305 305 306 306 307 307 307 307 307 308 308 308 309 311 313 317 318 318 320 318 318 319 319 319
295 296 296 296 296 295 294 293 293 294 294 295 296 297 298 300 300 300 301 302 302 303 305 306 305 306 306 306 308 308 309 309 310 309 309 309 310 314 313 317 317 315 317 319 321 320 317
296 296 297 297 297 296 296 295 294 293 293 294 296 296 297 300 301 299 300 301 303 304 306 305 306 305 303 307 310 310 311 310 310 310 309 309 310 313 316 317 316 315 317 316 316 320 315
296 296 296 297 297 298 297 297 297 295 293 293 295 296 297 298 298 301 302 302 302 303 305 306 306 305 303 307 309 309 310 309 311 313 311 312 311 312 314 315 313 315 316 316 317 318 315
296 296 297 297 298 298 298 298 298 297 295 293 293 295 295 297 297 299 300 302 302 303 307 306 305 305 304 309 309 309 310 310 310 312 312 311 312 312 312 313 314 315 314 316 316 315 315
297 297 297 298 298 298 298 298 298 298 298 295 295 295 296 297 298 300 299 301 303 303 304 303 305 305 306 308 309 309 310 310 310 311 312 313 311 313 312 312 315 315 315 313 314 314 312

GFSGBSN_850_thetae_075.txt.gz
Theta_e
303 303 304 305 305 304 303 303 302 302 303 302 301 300 302 301 299 299 298 297 297 297 298 298 298 299 299 304 305 306 311 312 310 309 317 317 315 312 313 315 317 317 316 317 317 317 318
304 304 302 302 303 303 304 303 302 302 301 301 300 300 299 300 299 298 297 297 297 297 297 297 298 299 301 306 304 311 310 310 308 308 308 313 317 315 316 316 316 318 318 317 317 317 317
301 303 303 303 302 301 301 302 302 302 301 300 299 299 299 299 299 297 296 296 296 297 297 299 300 301 303 301 302 304 310 310 311 308 310 309 309 309 315 316 317 318 317 317 316 317 315
300 301 302 302 302 302 301 301 300 301 301 300 299 300 299 298 298 297 296 296 296 297 299 304 304 304 306 304 309 307 308 310 311 311 312 310 308 309 313 316 317 318 317 316 316 316 317
301 300 300 300 300 301 302 301 299 300 301 300 299 301 300 298 298 297 296 296 297 299 303 307 307 305 311 311 310 309 310 311 312 311 311 310 309 309 313 316 316 316 316 317 317 317 317
300 300 299 300 299 299 300 300 300 302 301 301 299 299 300 299 299 296 295 302 307 308 309 311 311 312 312 310 309 309 311 312 313 313 312 311 310 307 313 314 318 318 318 316 316 317 317
301 300 300 299 298 299 300 301 301 300 300 299 299 298 299 299 298 295 300 308 307 309 307 310 312 313 311 312 309 307 308 312 313 315 313 313 307 308 309 314 316 317 319 318 318 318 319
299 299 298 300 299 298 299 298 300 301 299 300 299 298 298 298 298 300 306 307 307 306 307 307 306 307 309 309 306 307 307 309 313 314 314 314 310 310 312 315 316 317 317 317 318 319 320
298 298 297 299 299 299 299 298 297 298 299 300 299 298 298 299 297 303 306 306 307 307 306 305 307 308 308 309 309 309 310 308 313 313 314 315 317 316 316 312 315 314 314 318 318 319 319
298 298 298 298 299 299 298 297 297 298 300 300 298 297 297 299 298 304 304 305 306 307 307 308 310 309 310 310 311 310 310 308 315 315 315 316 316 316 318 315 313 314 315 317 319 320 323
297 298 298 298 298 298 298 297 296 297 297 297 298 297 298 298 298 299 302 304 305 306 309 313 312 311 312 311 312 310 310 308 313 314 314 314 316 316 318 316 313 315 318 319 321 322 323
296 295 295 296 297 297 297 296 296 296 296 297 297 297 298 297 297 300 303 304 305 309 310 313 312 311 312 311 313 311 309 309 311 313 314 313 313 314 315 316 315 316 317 319 320 321 325
296 295 294 296 296 295 296 295 297 297 296 296 297 297 298 297 297 299 303 303 308 309 309 310 313 314 313 313 313 312 309 310 311 312 313 312 313 313 313 315 315 316 319 324 326 326 326
294 295 295 294 294 295 295 294 295 296 297 297 298 299 298 297 296 298 300 304 306 308 305 308 311 310 309 309 309 311 309 309 310 311 312 312 314 315 314 314 317 317 320 325 328 326 323
294 294 294 294 294 294 294 294 294 296 296 296 297 298 297 297 297 298 300 302 304 304 307 307 308 307 308 309 308 312 312 311 311 309 312 314 316 314 314 315 316 318 321 318 323 321 326
294 294 294 294 294 294 293 294 293 294 296 296 296 297 297 297 298 299 301 301 303 304 306 306 307 308 307 306 311 312 315 315 315 313 311 313 315 314 315 316 317 318 318 320 319 325 328
294 293 293 293 293 293 293 292 293 293 294 296 296 297 297 298 299 299 301 301 303 303 304 306 306 307 308 308 309 309 315 313 312 311 310 312 314 315 316 318 319 319 320 320 320 323 326
293 293 293 293 293 293 293 293 293 293 294 295 296 298 297 299 299 300 300 301 302 303 303 305 305 306 306 307 307 308 311 314 311 310 313 312 316 315 314 315 316 315 320 320 324 325 323
293 293 293 293 292 292 292 293 293 293 294 295 296 296 296 298 300 300 301 301 301 302 304 305 305 306 306 305 306 307 313 310 310 311 309 309 315 317 314 314 314 317 319 320 319 320 324
294 293 293 293 293 292 292 292 293 293 294 295 296 297 298 299 298 301 301 302 303 303 304 303 304 305 305 306 306 306 309 312 310 310 309 309 311 313 316 317 315 318 320 320 320 324 323
293 292 292 292 292 292 293 293 292 293 294 295 295 298 298 293 299 300 302 304 304 304 305 304 305 304 305 305 307 307 308 311 310 309 309 310 311 313 314 313 315 316 317 319 321 321 325
291 292 292 292 293 293 293 293 293 293 295 295 296 297 298 299 299 302 301 302 302 304 305 306 305 305 306 304 304 306 308 308 309 310 310 309 311 311 312 313 314 316 318 318 322 320 321
292 292 292 293 293 293 293 293 293 293 294 295 295 296 296 298 299 300 303 303 303 303 303 304 306 306 307 307 307 307 308 308 309 310 310 310 309 309 313 313 313 318 319 320 321 321 322
292 292 293 294 294 294 294 294 294 292 293 294 295 295 297 296 297 298 299 301 304 304 304 304 304 305 307 307 307 307 307 307 308 309 309 309 310 309 312 313 321 316 317 319 320 321 321
293 294 294 295 295 295 296 296 294 294 292 294 294 295 297 294 297 298 299 300 301 302 304 304 304 305 305 306 307 307 305 306 307 307 308 308 309 310 311 314 314 317 318 318 321 318 315
294 294 295 295 296 296 296 296 296 295 293 293 294 294 295 297 296 298 300 300 300 301 303 303 305 305 305 305 304 305 306 307 308 308 307 307 308 309 312 314 318 316 316 314 316 319 314
294 294 294 295 296 296 296 297 296 295 295 293 294 294 296 297 297 297 298 299 299 301 302 302 305 305 304 302 302 304 306 307 308 309 308 308 309 311 311 312 313 317 315 314 318 317 316
294 295 295 296 296 296 296 296 297 296 296 295 293 294 295 296 297 297 297 298 299 300 303 303 304 305 303 301 302 304 305 308 310 310 310 309 311 310 310 311 312 316 315 318 316 313 311
295 296 296 297 297 296 297 296 297 297 297 296 294 293 295 297 296 297 297 297 298 299 300 300 302 302 304 304 304 305 308 308 310 312 311 311 310 311 310 310 314 314 314 311 310 309 308

GFSGBSN_850_thetae_078.txt.gz
Theta_e
303 303 302 301 302 303 304 304 304 303 302 301 301 300 298 298 297 298 297 297 297 297 297 297 297 297 299 301 302 304 309 309 311 309 308 317 315 310 309 311 313 314 316 317 317 317 316
302 302 304 304 303 302 301 301 301 302 302 301 301 300 299 298 297 296 296 297 297 297 296 296 297 301 302 304 303 308 308 309 310 309 308 310 313 315 312 313 312 315 315 316 317 316 316
300 300 301 302 302 303 303 302 301 300 301 301 301 300 300 300 298 296 296 296 297 297 296 296 300 303 304 301 302 302 304 308 310 309 308 309 310 308 309 312 315 317 315 315 315 316 315
302 301 300 300 300 300 301 302 302 300 301 300 301 300 299 299 299 297 296 296 297 297 298 300 303 306 307 302 310 309 307 306 308 310 310 309 311 309 308 312 315 316 315 316 316 315 315
300 300 300 299 299 300 299 300 301 300 302 301 300 299 298 298 297 296 296 296 299 304 302 301 305 307 307 308 310 310 310 311 313 312 311 311 311 309 309 313 314 314 316 315 315 316 315
302 302 301 300 300 298 299 299 301 302 301 301 300 299 299 297 297 296 296 301 306 308 309 309 308 310 307 308 310 308 308 309 311 313 312 311 309 306 308 312 316 315 315 314 314 316 316
301 300 299 298 299 299 298 299 298 298 300 300 300 300 299 298 298 296 304 306 307 307 306 308 310 310 310 312 312 311 309 308 312 314 312 311 308 308 305 309 314 315 316 316 315 317 318
299 299 298 298 298 300 299 299 298 297 297 298 299 299 299 297 297 298 305 304 304 305 306 306 306 305 307 309 308 310 308 306 312 313 313 313 310 309 308 310 311 314 315 316 316 317 317
297 297 298 297 298 298 299 299 298 297 297 298 299 298 298 297 297 298 303 302 305 306 305 305 304 306 305 304 307 305 306 308 311 312 313 314 315 312 311 315 317 313 314 314 314 317 317
298 298 297 298 298 298 298 298 298 297 296 296 297 297 297 297 298 299 302 303 305 306 304 306 308 308 308 308 308 307 309 308 308 313 314 314 314 316 316 317 316 318 313 314 316 319 321
298 297 296 295 296 296 297 298 297 296 296 296 296 296 297 297 297 297 299 302 304 306 303 307 310 309 309 310 311 310 310 309 313 313 313 313 314 315 316 317 316 317 313 315 318 319 321
297 296 295 295 294 296 296 296 295 295 296 297 296 297 296 297 297 297 299 302 304 305 306 309 311 310 311 311 311 309 308 309 311 312 313 312 312 313 314 314 315 315 315 316 318 320 321
295 295 295 295 295 294 295 295 295 295 296 296 296 297 297 298 297 297 298 302 303 306 305 309 312 311 312 312 311 309 308 311 310 311 312 311 311 311 313 314 314 315 317 320 321 322 321
295 294 295 294 293 294 295 294 294 293 294 296 296 296 297 298 298 297 299 303 304 303 304 306 307 310 311 311 311 310 308 309 309 310 311 310 311 313 313 313 316 316 319 323 323 325 323
294 294 294 294 295 294 294 293 293 293 293 295 296 296 295 296 298 296 298 303 302 303 304 305 306 307 310 307 308 310 308 308 308 309 310 312 314 312 313 313 314 318 321 318 323 324 323
294 294 294 293 293 293 293 293 292 293 293 294 295 295 295 296 297 298 300 301 301 302 303 303 305 307 307 307 309 308 313 314 314 310 309 312 313 312 315 314 316 316 318 321 321 324 326
294 293 293 293 293 292 292 293 293 293 293 294 294 295 295 296 297 298 297 298 300 300 301 304 305 305 306 306 306 306 314 313 311 310 310 312 312 314 316 317 318 318 320 320 320 321 328
293 293 293 293 293 293 292 293 292 293 293 293 294 295 296 297 298 298 298 298 299 299 301 302 304 305 306 306 306 306 312 313 311 310 312 312 313 313 313 313 316 317 318 320 320 323 323
292 293 293 293 293 292 292 292 292 293 294 293 294 295 295 296 299 297 298 299 299 299 300 302 304 304 304 305 304 306 311 310 310 309 309 309 312 313 313 314 316 316 317 317 320 320 325
292 293 294 293 293 293 292 292 292 292 293 294 295 295 297 297 296 299 298 298 300 300 301 300 301 303 304 305 306 305 309 311 309 310 308 309 310 311 313 314 314 316 315 314 319 321 321
293 293 293 292 291 292 292 293 293 293 293 294 294 293 296 298 298 298 299 299 301 301 301 302 304 304 304 304 304 304 307 310 310 309 309 309 309 310 311 312 312 313 316 316 316 318 322
292 291 291 292 292 292 293 294 293 293 293 294 294 295 296 298 298 299 301 300 302 302 304 305 305 306 306 306 306 307 307 308 309 307 309 308 308 310 310 311 314 315 315 314 315 317 317
293 294 293 292 292 293 293 294 294 293 293 294 294 294 295 296 297 297 298 299 303 303 303 302 303 304 306 306 307 307 307 307 307 309 309 308 310 308 308 312 311 315 315 315 315 318 319
293 291 292 293 293 294 294 294 294 294 294 293 294 295 296 295 296 297 298 298 301 301 303 303 303 304 305 306 305 306 306 307 306 307 308 308 308 307 308 310 315 316 313 317 320 318 320
292 293 293 294 294 295 295 295 295 295 295 293 293 294 296 294 297 297 298 300 300 300 301 303 304 304 305 305 305 305 304 305 305 306 307 307 307 306 306 310 309 314 315 318 313 315 318
292 292 293 294 294 295 295 296 296 296 296 295 293 294 294 295 296 297 298 299 299 300 301 302 304 304 304 301 302 304 305 306 307 307 306 307 306 306 308 311 310 314 314 314 316 317 314
292 293 293 294 294 294 295 296 296 297 296 295 293 293 294 295 295 295 296 297 298 300 300 301 300 304 304 299 300 302 305 306 306 307 307 305 306 309 308 310 311 312 315 315 318 317 312
292 293 294 294 295 295 295 296 296 296 296 295 294 293 294 295 295 295 296 297 297 298 299 299 300 304 302 300 301 302 301 304 306 309 310 308 308 308 308 311 311 314 314 316 313 311 310
293 294 295 296 296 296 296 296 296 296 296 296 295 293 293 294 295 296 296 296 296 296 298 299 300 300 300 302 301 303 304 305 309 311 309 311 308 307 308 309 312 311 312 310 309 307 306

GFSGBSN_850_thetae_081.txt.gz
Theta_e
304 304 304 303 303 302 301 301 301 301 301 302 301 300 299 299 297 297 296 297 297 297 296 296 296 296 298 301 301 303 310 309 310 310 309 315 314 310 307 308 310 313 315 316 316 316 316
301 301 301 303 303 303 303 303 302 301 300 301 301 300 300 299 298 297 297 296 296 297 296 296 295 297 304 304 302 305 303 306 308 310 308 311 314 313 311 310 309 311 313 313 314 315 315
301 301 300 300 300 301 301 301 302 301 300 302 301 301 300 299 298 297 296 296 297 297 296 296 297 300 304 301 302 301 301 306 307 309 309 308 309 310 308 308 311 315 314 313 313 313 312
302 301 300 299 299 299 299 300 300 301 301 302 301 300 300 298 298 297 296 296 297 297 300 301 301 303 304 302 303 305 308 305 305 307 310 309 309 311 308 308 311 314 314 315 314 313 314
300 301 301 301 300 299 299 299 299 300 301 302 301 300 300 299 298 296 296 296 298 307 307 306 304 302 305 305 306 310 309 308 308 312 311 310 311 310 308 308 310 312 314 313 314 314 313
302 302 301 301 299 299 300 298 299 298 297 297 299 299 299 298 298 296 297 300 303 307 308 308 307 308 305 306 311 309 308 307 310 311 313 310 309 305 307 308 310 313 314 312 313 314 314
299 300 300 299 297 298 301 300 300 299 298 297 298 298 298 298 297 296 303 302 302 305 305 306 308 309 308 310 312 311 309 308 308 313 311 310 307 306 305 308 310 312 313 314 313 313 314
299 298 298 296 297 297 297 300 299 298 298 296 296 298 297 297 297 296 302 302 301 301 301 305 304 305 306 306 307 310 309 308 310 312 312 313 310 309 307 307 307 309 311 311 313 314 315
298 298 298 297 297 298 298 298 298 298 297 296 295 295 296 296 295 298 299 302 302 303 304 305 304 305 305 304 306 305 307 307 310 312 312 313 314 313 310 309 311 312 314 312 313 314 314
297 297 297 296 296 296 297 297 297 297 296 296 296 297 296 297 297 296 299 301 303 304 304 304 306 306 305 305 306 304 305 306 306 311 311 313 313 315 314 316 315 316 315 315 313 316 316
297 297 296 295 294 293 295 296 295 295 295 295 297 296 296 296 296 297 296 300 302 305 301 303 308 308 307 306 309 305 306 307 307 313 312 313 313 314 315 315 315 315 315 315 316 316 317
296 296 296 295 295 294 293 294 295 295 295 295 297 296 296 297 297 297 297 300 302 303 302 304 310 309 308 309 311 308 308 308 310 312 312 311 311 312 312 313 313 314 315 314 314 317 319
296 294 294 295 295 294 294 294 294 294 294 294 295 296 296 296 296 298 297 299 302 303 301 304 306 306 308 311 310 308 308 309 310 312 312 311 311 311 312 313 313 314 316 315 315 317 317
294 295 295 294 293 295 294 294 293 293 293 293 294 296 296 296 296 298 296 300 301 299 301 303 305 305 308 310 311 308 306 307 309 308 309 310 310 310 312 312 313 314 316 317 320 320 321
295 295 295 294 293 294 294 294 293 292 293 293 293 294 295 296 295 297 296 300 299 300 302 303 304 308 309 308 306 308 306 307 308 308 310 311 312 311 311 312 313 316 318 316 321 320 324
295 295 293 293 293 293 293 292 292 293 293 293 294 293 294 295 296 297 296 298 300 301 300 300 304 307 307 306 306 307 309 313 312 308 308 311 312 311 315 313 313 314 316 322 318 321 324
294 294 292 291 293 293 292 292 293 292 293 294 293 294 294 295 296 297 297 296 298 299 299 301 304 305 306 306 305 306 313 312 311 310 310 311 312 312 315 316 315 317 316 317 319 320 325
293 293 292 293 293 292 292 292 292 292 293 294 293 289 296 297 297 297 297 297 297 298 299 299 302 303 304 305 305 307 312 313 310 311 312 311 313 312 311 312 314 315 316 318 322 324 322
293 292 292 293 294 293 293 292 293 292 293 294 293 294 294 294 296 298 297 298 297 298 298 299 301 303 303 304 305 307 311 310 310 308 310 309 311 310 308 312 316 317 316 315 317 318 320
292 292 292 294 294 293 292 292 292 292 293 294 293 293 294 296 295 293 296 298 297 298 299 300 300 300 300 303 304 306 309 310 309 309 308 308 309 309 309 309 312 312 314 314 313 319 321
292 293 294 293 292 291 291 291 292 293 293 293 293 292 294 288 294 296 295 294 297 298 299 299 300 302 303 305 305 304 308 310 309 309 308 306 308 309 309 309 310 311 312 312 313 314 316
292 294 292 291 291 291 292 292 293 294 293 293 294 294 295 296 296 297 297 300 300 299 302 302 302 303 305 305 306 307 306 307 309 307 308 307 308 308 309 308 309 311 309 312 313 314 315
292 293 293 294 293 291 292 293 294 294 294 293 293 293 294 294 295 296 297 298 298 299 302 302 303 303 304 305 306 306 306 306 307 308 308 308 307 308 306 306 307 310 312 314 315 315 313
292 291 293 292 292 293 293 294 294 294 294 294 293 293 295 293 296 296 297 297 300 301 303 302 303 303 304 305 305 305 305 305 305 306 306 307 307 306 305 306 304 310 312 313 315 316 315
291 291 292 292 293 294 294 295 295 295 295 295 294 292 295 293 296 296 297 298 299 299 301 302 303 303 304 304 304 304 303 304 304 305 307 305 306 305 304 306 305 307 313 313 313 315 313
293 291 292 292 293 293 294 295 295 296 296 296 294 293 293 294 293 296 296 297 298 299 301 301 299 304 303 300 303 304 305 305 306 306 305 305 304 305 305 307 306 310 312 311 311 316 312
291 292 292 292 293 294 294 294 295 296 296 296 295 294 293 294 294 294 295 296 298 298 299 300 298 303 303 299 301 302 304 304 306 305 306 305 306 308 306 306 307 310 314 312 316 315 310
291 291 292 293 294 294 295 295 295 296 296 297 295 295 293 293 294 295 296 295 296 297 293 297 297 299 301 302 302 302 301 303 304 304 307 306 306 306 305 307 307 311 313 311 311 309 308
291 292 293 294 294 295 295 295 295 296 296 296 295 295 293 293 294 295 295 296 296 296 296 297 297 298 299 301 300 302 303 301 305 305 308 309 307 307 307 307 309 308 311 308 306 305 305

GFSGBSN_850_thetae_084.txt.gz
Theta_e
302 301 303 304 303 303 303 302 302 301 300 299 300 300 299 299 298 297 297 297 297 297 296 296 296 296 296 299 300 301 309 308 309 310 309 312 314 309 306 306 308 311 313 314 315 315 314
300 299 299 300 302 302 301 300 301 301 300 300 302 301 299 299 298 297 297 297 297 297 296 296 296 296 298 301 301 302 301 304 307 309 309 312 315 314 309 308 308 309 310 310 312 313 314
301 301 300 299 299 298 299 298 300 302 302 302 301 301 300 298 298 297 297 297 297 296 297 297 299 300 300 298 300 301 301 305 303 306 309 308 310 308 307 307 309 311 312 311 311 312 312
302 301 299 300 300 299 298 300 299 299 299 298 299 300 299 297 296 296 296 296 297 298 300 303 307 306 303 300 300 301 303 303 303 306 308 309 309 310 309 309 309 311 311 313 312 311 313
301 301 302 302 301 300 299 299 299 299 298 297 296 296 299 297 296 295 295 296 298 303 306 306 306 305 303 302 305 306 308 309 306 306 306 309 309 309 307 307 306 308 310 311 312 313 313
302 302 301 301 299 297 299 300 300 299 299 297 296 295 297 297 295 294 295 297 298 306 306 307 307 306 303 305 310 309 308 308 309 311 310 309 308 304 304 305 307 308 311 312 313 312 312
299 299 300 299 297 295 296 300 300 299 298 297 296 295 295 295 295 295 297 301 300 302 301 302 304 308 306 307 307 310 307 308 307 311 310 308 306 305 305 307 308 310 310 309 308 310 311
298 298 297 296 296 298 298 297 298 297 297 296 295 294 296 295 295 296 298 301 298 297 299 301 302 302 301 302 305 305 307 308 310 312 311 312 309 306 306 305 306 307 307 307 308 310 311
298 298 297 297 296 296 298 298 297 296 296 295 294 295 296 295 296 296 296 301 299 300 299 303 303 304 304 304 305 304 305 307 307 311 312 312 313 312 309 310 309 309 310 312 313 313 311
298 297 297 296 295 294 294 294 294 295 295 295 296 296 296 295 296 296 297 296 300 302 303 303 304 304 304 305 306 304 304 307 306 310 311 311 310 313 311 311 309 314 314 315 314 313 313
298 298 296 295 294 293 293 294 295 295 294 294 295 296 296 295 296 296 296 296 300 303 302 300 304 307 306 305 306 306 304 305 306 310 312 311 313 315 315 314 313 314 315 315 314 314 314
297 296 295 294 294 295 294 295 295 294 293 293 293 295 296 296 296 296 296 296 300 302 301 301 305 304 305 307 308 305 305 306 307 312 311 309 311 311 311 312 312 313 314 313 313 315 316
296 295 294 295 295 294 294 294 294 293 293 292 292 293 295 296 296 295 297 297 299 301 299 299 303 303 305 305 308 306 307 310 310 311 311 310 311 311 312 312 312 313 314 313 314 318 316
295 294 295 294 294 295 295 294 293 293 292 293 293 293 293 293 295 295 297 298 299 297 299 301 301 304 308 307 307 308 307 307 308 307 309 309 309 310 311 311 312 313 314 315 318 318 318
294 295 294 294 294 293 293 293 292 292 293 293 293 293 293 293 294 295 296 297 297 300 300 300 300 307 306 307 306 306 306 306 306 307 309 310 311 310 311 311 312 315 316 315 318 317 320
294 296 295 294 292 293 293 292 292 292 293 293 294 293 293 295 295 297 295 296 297 298 298 300 301 305 306 305 307 306 308 310 309 307 308 310 311 311 313 312 312 314 315 320 318 317 320
294 294 294 292 291 293 292 292 292 292 292 293 294 293 294 296 296 296 294 296 296 296 297 299 301 301 303 304 306 307 310 311 310 309 309 310 310 311 314 314 314 316 316 317 317 320 321
293 294 294 292 294 293 292 292 292 292 292 293 293 290 295 295 294 295 291 296 297 297 297 297 299 301 302 303 303 306 309 312 309 310 312 311 311 311 311 310 313 314 314 314 320 319 318
293 293 293 292 293 294 293 292 292 292 292 293 293 293 293 294 287 290 297 296 297 297 297 297 298 299 303 301 302 305 307 309 309 309 311 310 310 309 306 311 314 316 315 315 313 316 319
293 292 292 292 294 294 293 292 292 292 293 293 293 292 293 295 294 292 295 295 296 297 298 298 298 299 300 301 301 303 305 307 309 309 309 307 308 308 308 307 308 308 311 311 313 313 312
292 292 293 294 293 292 290 291 291 293 294 293 293 290 292 290 292 293 296 296 296 296 297 298 299 299 299 302 304 305 306 308 309 308 308 305 308 309 308 308 308 309 309 310 311 312 313
292 292 293 293 291 291 291 292 292 293 294 293 293 293 294 294 295 294 296 296 297 298 300 299 299 299 301 303 304 307 305 306 308 307 307 306 307 307 308 307 307 309 307 306 306 308 310
291 291 291 292 293 294 292 291 293 294 294 293 293 293 293 294 294 292 294 296 297 298 299 299 301 302 303 304 303 305 306 305 306 307 307 307 305 305 304 305 305 305 308 311 310 312 312
291 293 292 292 293 292 292 293 293 294 295 294 293 293 293 292 293 295 296 297 297 298 299 301 301 303 303 304 305 305 305 304 304 305 305 306 306 305 305 304 302 304 311 312 311 311 310
293 293 291 291 291 292 293 294 295 295 295 295 294 293 293 292 295 294 296 296 297 297 298 300 298 302 303 303 302 303 302 303 303 303 305 304 305 305 303 305 304 305 312 310 309 310 311
292 292 292 291 292 292 293 293 294 295 296 295 294 294 293 292 292 294 295 295 296 298 298 299 296 301 302 299 302 303 303 304 304 303 304 304 303 305 304 306 302 302 312 311 311 312 307
293 293 292 291 292 292 292 293 294 295 295 296 296 295 293 292 293 294 294 295 297 297 297 297 296 300 301 298 300 301 303 303 304 304 306 305 305 306 305 306 305 307 310 311 314 311 301
291 291 292 291 291 292 293 294 294 294 295 297 297 295 295 292 293 293 295 295 294 294 294 295 296 297 300 302 303 302 302 303 304 304 305 305 306 306 307 307 306 307 311 312 309 301 300
291 289 290 291 292 293 294 295 295 295 296 296 296 295 295 293 293 293 294 294 294 295 296 296 297 298 298 302 301 302 302 301 302 304 303 307 306 307 306 306 304 300 302 300 301 299 300

GFSGBSN_850_thetae_087.txt.gz
Theta_e
301 301 301 302 303 302 301 300 299 299 299 299 299 299 298 298 297 296 297 297 297 297 297 297 297 297 297 298 299 301 302 309 309 309 309 309 309 307 308 308 309 314 314 314 314 314 313
300 300 299 299 299 299 299 298 298 300 300 302 299 297 297 296 295 296 296 296 297 297 297 297 298 299 301 301 301 301 301 302 307 307 309 311 315 312 309 308 309 309 310 311 311 312 312
299 300 300 300 299 298 298 298 298 297 297 296 296 295 295 295 295 295 295 296 296 297 297 298 301 305 304 301 301 300 301 300 303 304 306 309 313 311 309 308 308 310 310 312 313 314 314
302 301 300 300 300 300 298 298 297 299 298 297 296 295 294 294 294 295 295 296 296 296 297 299 303 306 304 302 301 301 302 301 301 303 304 309 309 308 308 309 309 310 311 312 313 313 313
302 301 301 302 301 299 297 301 300 300 299 296 295 294 294 294 295 295 295 296 296 297 302 303 305 305 304 303 310 310 310 307 308 307 303 307 308 309 307 309 308 308 309 312 313 313 314
303 302 302 301 300 298 295 300 301 300 298 296 295 294 294 294 295 295 295 296 298 300 303 304 306 305 304 306 308 308 309 307 307 307 306 306 307 308 307 308 306 307 309 312 312 314 312
301 301 301 300 298 295 295 296 298 298 296 295 294 293 294 294 295 296 296 296 298 299 298 298 299 300 298 300 300 303 308 307 308 310 307 307 309 309 308 309 307 309 311 311 310 309 309
299 298 298 297 295 298 299 298 297 296 295 294 293 293 294 294 295 295 295 299 296 296 298 299 298 299 299 300 302 302 303 306 308 311 311 310 310 309 308 308 308 308 308 309 310 310 312
298 298 297 297 296 295 295 296 294 294 294 293 293 294 294 294 295 295 297 296 296 297 299 300 300 302 303 303 303 303 302 304 307 310 312 312 312 311 308 308 308 308 309 311 312 313 314
298 298 297 296 295 294 293 293 294 294 293 292 293 293 294 294 295 295 295 295 297 300 302 301 303 304 305 305 305 305 304 305 307 308 312 312 311 313 311 312 311 312 311 312 315 315 314
298 298 296 295 294 293 293 293 292 292 292 292 292 292 293 294 295 296 295 295 298 302 296 300 302 305 303 305 305 306 305 304 307 309 312 312 313 313 313 313 311 315 314 314 314 315 315
298 297 297 295 294 294 293 292 293 293 292 292 292 292 292 294 295 295 295 296 300 300 297 299 301 301 301 304 306 305 304 305 305 311 312 309 311 313 313 313 314 313 313 313 314 315 317
296 296 295 294 295 293 295 295 294 292 292 292 292 293 293 292 293 295 295 298 299 297 298 299 301 300 300 307 308 307 305 304 309 309 311 311 312 311 312 313 313 313 314 316 317 316 315
296 295 295 294 294 295 294 293 292 292 292 293 293 293 293 293 293 294 296 298 295 296 297 300 299 300 301 306 307 307 308 305 308 307 309 310 311 312 312 312 313 314 314 316 315 318 318
293 295 295 295 294 293 292 293 292 292 292 293 293 294 293 294 295 295 296 296 295 300 299 298 299 301 305 304 305 306 306 308 308 308 311 310 312 310 311 311 313 315 316 315 317 317 318
294 295 295 294 292 293 293 292 292 292 292 292 293 294 294 295 295 296 295 296 296 296 296 297 298 302 301 301 300 303 305 309 308 308 308 310 314 312 312 312 312 314 316 318 316 317 319
295 295 294 293 291 293 293 292 292 292 292 292 293 293 295 295 296 295 295 295 296 296 296 297 298 298 298 299 301 302 305 309 310 309 309 310 312 313 314 314 315 315 315 315 317 319 320
294 294 294 292 293 293 293 292 292 293 292 292 293 291 295 293 294 294 295 296 296 296 296 296 297 298 298 299 303 303 304 305 303 307 312 311 311 312 312 310 313 314 315 314 316 318 318
293 293 293 292 293 294 294 293 292 292 292 293 293 292 293 294 291 293 294 295 295 296 296 297 297 297 298 299 300 300 304 304 302 306 312 311 311 309 314 314 314 314 314 311 311 311 315
293 293 291 291 293 294 293 293 291 292 293 293 293 290 292 294 293 294 295 295 296 296 297 297 297 298 298 298 299 301 301 304 302 308 309 308 309 308 307 308 310 310 310 309 312 312 311
293 292 292 292 294 293 292 290 290 291 293 294 292 291 292 291 293 294 293 294 295 296 297 297 298 298 298 299 302 302 304 305 305 307 308 308 309 309 308 308 309 309 309 309 309 309 309
293 292 292 293 293 291 291 291 292 293 293 294 292 292 293 293 293 291 294 295 296 297 298 298 299 298 299 299 302 304 305 306 307 308 309 308 309 308 308 307 307 307 307 307 306 307 308
292 292 292 292 291 292 293 293 292 293 294 293 292 292 292 292 294 293 293 295 297 297 298 298 298 300 300 301 303 304 303 305 306 307 308 307 308 308 307 305 306 305 307 307 308 310 312
293 291 292 293 293 293 293 291 292 294 294 293 293 293 292 292 294 294 295 295 296 296 296 297 300 301 302 303 303 304 304 305 305 305 306 306 306 307 306 305 303 305 305 310 312 311 310
291 292 295 292 290 291 291 294 294 294 295 295 294 293 292 293 294 294 294 295 295 295 298 298 296 298 301 302 304 304 304 304 304 304 306 305 306 306 307 306 304 306 312 310 311 310 306
291 293 292 292 291 292 292 293 294 295 295 295 295 294 293 292 292 293 294 294 295 297 297 297 296 298 299 301 303 303 304 304 304 305 305 305 306 307 306 305 304 303 309 309 311 312 303
292 293 293 293 292 291 292 292 293 294 295 295 295 294 294 292 293 293 294 294 295 295 296 296 295 298 300 302 304 303 303 303 304 304 306 305 304 305 305 305 305 305 307 310 312 309 299
293 292 291 291 291 291 291 292 293 294 295 295 297 295 295 293 294 294 293 294 294 294 295 295 297 298 300 302 303 303 303 304 305 305 305 306 306 306 305 307 306 301 307 309 306 299 298
292 292 292 291 291 291 292 293 294 294 294 295 296 295 296 294 294 294 294 294 293 293 294 295 297 298 298 299 301 303 302 303 303 305 303 307 304 303 308 307 300 297 297 295 296 296 296

GFSGBSN_850_thetae_090.txt.gz
Theta_e
300 300 300 300 300 299 299 298 298 297 297 298 297 296 296 296 296 296 296 296 296 297 297 297 298 298 299 303 302 301 301 303 308 309 312 311 310 311 312 312 313 315 315 314 314 314 314
302 301 300 299 299 299 298 297 297 297 296 296 296 295 295 295 296 296 296 296 296 297 297 297 298 300 303 304 302 301 301 301 302 308 311 312 312 311 311 312 312 313 313 314 314 314 314
302 300 299 298 299 298 297 297 297 296 296 296 295 295 295 295 296 296 296 296 297 297 297 297 298 300 304 304 301 301 301 300 300 303 309 311 313 314 312 314 313 313 314 315 315 315 316
300 300 301 300 299 299 298 298 297 298 297 295 295 295 295 295 296 296 296 296 297 297 297 298 299 303 306 301 302 303 308 304 302 300 303 305 309 311 312 310 311 312 313 313 314 315 315
303 302 300 301 301 300 297 301 301 299 296 295 294 294 294 295 295 296 296 296 297 298 298 300 306 306 307 302 309 310 309 310 309 307 302 304 307 309 309 310 311 311 311 312 313 315 315
303 302 302 302 301 299 295 301 300 298 296 294 294 294 294 295 295 295 296 296 297 299 300 300 306 307 306 306 303 308 306 307 309 308 308 305 307 310 310 310 309 309 309 310 311 313 315
304 303 302 301 300 297 295 295 296 296 294 294 294 294 294 294 295 295 296 298 300 303 298 300 300 300 300 300 300 301 303 307 309 308 308 306 308 310 310 310 309 309 309 311 313 312 311
302 301 301 300 298 297 299 299 297 295 293 293 294 294 294 294 294 295 297 299 298 297 299 299 300 301 302 302 303 305 302 306 308 311 309 309 309 309 310 310 309 310 308 308 309 311 312
302 300 298 297 296 296 296 296 294 293 293 293 293 293 294 293 294 295 296 297 297 298 301 302 302 304 305 304 306 306 305 304 307 310 312 310 311 310 309 310 310 311 311 311 311 312 314
299 298 297 297 296 295 293 293 293 293 292 293 292 292 293 292 297 294 298 296 296 299 305 302 304 306 303 306 308 304 306 306 305 306 310 313 312 312 312 311 311 311 311 311 311 315 316
299 298 298 296 295 293 293 293 293 292 292 292 292 292 292 292 293 298 295 295 298 302 301 301 303 306 302 302 303 305 306 307 308 306 310 312 312 312 312 312 311 311 314 314 315 316 315
299 298 297 295 294 294 293 293 293 292 292 291 292 293 293 295 295 295 294 295 300 305 299 300 301 303 302 301 304 306 306 306 306 307 309 310 312 312 312 312 313 314 315 315 314 315 317
299 298 297 295 295 294 296 295 293 292 291 292 293 293 293 293 296 293 294 299 302 299 299 299 301 301 301 301 305 308 308 308 308 307 310 310 311 313 313 315 314 314 314 316 318 318 315
297 297 295 294 294 295 295 293 292 291 292 293 293 294 293 293 293 293 295 300 297 297 298 301 300 300 300 304 304 307 308 308 308 308 308 311 311 312 313 313 314 314 314 315 314 316 316
297 295 296 294 295 294 292 292 291 292 292 293 293 294 295 294 294 295 298 299 297 299 299 299 299 299 301 304 302 302 304 306 308 309 308 308 309 310 312 312 313 315 317 315 318 317 319
294 295 295 294 294 293 292 292 292 291 292 293 293 295 296 295 295 298 299 296 297 297 297 297 297 298 301 301 300 301 303 307 309 310 310 311 311 313 313 313 314 316 315 317 318 319 318
294 295 296 295 292 293 293 292 292 293 293 292 293 296 295 293 295 297 298 297 297 297 297 297 297 298 298 299 298 300 302 304 303 306 307 311 313 315 314 315 315 316 317 317 318 319 321
295 296 295 293 292 292 292 292 292 293 292 293 295 298 294 294 297 297 297 297 296 297 297 298 298 299 299 300 301 302 304 304 304 303 305 312 313 315 315 314 314 315 315 316 318 320 318
294 294 294 293 294 294 294 292 292 292 293 294 296 295 294 295 297 297 297 296 296 297 297 298 298 298 299 298 299 301 302 303 302 303 308 313 313 314 315 313 314 314 316 315 314 314 317
293 293 293 292 293 294 293 293 292 291 293 294 296 297 295 296 295 296 296 297 297 296 298 298 299 299 300 299 300 300 300 302 300 301 302 309 312 311 312 313 314 314 313 312 314 315 314
293 293 292 292 293 294 293 291 290 290 293 294 295 296 295 297 297 296 296 296 297 298 298 298 299 300 300 300 300 301 303 304 303 305 309 311 312 311 309 309 309 309 309 310 311 310 310
293 292 291 293 294 293 290 292 291 293 293 294 295 296 294 295 295 295 296 296 297 298 298 298 300 300 299 301 301 300 303 304 308 306 307 308 310 309 307 308 308 307 307 308 308 308 310
294 292 292 293 293 291 292 292 293 293 293 295 294 294 294 295 296 296 297 296 296 297 297 297 299 300 300 301 301 301 302 304 305 307 307 308 309 307 307 306 306 306 307 308 308 309 311
293 292 292 293 291 292 293 294 291 294 294 295 294 294 294 296 296 296 296 296 296 296 298 297 299 301 301 301 303 304 305 306 306 307 307 308 307 308 307 307 306 311 309 310 309 311 308
292 292 291 293 293 293 293 291 291 293 294 294 294 295 295 296 296 296 296 296 295 296 298 297 297 296 298 301 306 305 305 306 306 307 307 308 308 308 308 306 305 310 310 309 310 310 304
292 292 293 294 291 290 291 293 294 294 295 295 294 294 294 296 297 295 296 295 297 297 298 297 297 299 299 304 305 304 305 305 305 308 307 307 307 308 307 307 305 309 308 309 311 314 301
291 291 294 293 292 291 291 292 293 294 295 295 295 295 294 295 296 295 297 297 296 296 297 297 297 300 301 305 304 305 305 305 305 304 306 307 306 307 306 307 308 305 306 307 314 308 299
291 292 293 294 293 292 291 292 292 293 294 295 295 295 295 294 296 295 295 296 295 296 298 297 301 300 302 304 305 304 305 306 306 307 307 308 309 309 307 308 309 299 306 308 301 298 296
292 293 292 292 291 291 291 291 292 293 294 295 295 295 295 294 296 295 294 295 295 295 295 297 298 300 300 302 302 304 304 306 306 308 305 308 303 305 304 303 298 296 296 294 295 295 294

GFSGBSN_850_thetae_093.txt.gz
Theta_e
303 302 301 301 301 301 300 299 298 297 297 297 296 296 296 296 296 296 296 297 297 298 298 298 298 298 299 308 307 305 302 302 305 313 314 314 314 313 315 316 315 318 318 317 317 317 317
304 302 301 303 301 301 299 298 297 296 296 296 296 296 296 296 296 296 296 297 297 298 298 298 298 298 305 309 305 304 302 303 305 310 312 313 313 313 314 315 315 314 314 315 314 315 316
301 301 302 301 301 300 299 297 297 296 296 296 295 295 296 296 296 296 296 297 297 298 298 298 298 299 308 307 306 306 306 305 304 305 308 310 312 314 315 316 314 315 316 317 317 316 316
301 301 300 299 299 299 298 297 297 296 297 295 295 295 295 296 296 296 296 297 298 298 298 299 299 308 309 307 306 306 309 310 309 305 305 307 310 312 314 314 314 313 314 314 314 314 315
301 300 300 301 300 300 299 298 298 298 297 295 295 295 295 295 296 297 296 297 298 298 299 299 310 309 310 305 310 309 309 310 310 310 308 305 306 308 310 312 313 313 311 312 313 314 314
301 300 300 301 302 301 298 300 300 298 295 294 294 294 295 295 296 296 297 298 300 302 302 305 308 309 309 307 305 303 304 307 309 311 310 306 306 309 310 312 312 310 310 312 312 313 314
303 302 302 303 302 300 297 296 298 296 295 294 294 294 294 295 295 295 298 302 303 307 303 303 303 304 302 304 306 306 305 303 305 310 312 310 308 310 310 312 311 311 311 311 311 313 314
302 302 303 303 301 300 297 299 297 295 294 294 294 294 294 294 294 296 301 301 300 299 303 302 302 302 303 305 307 308 306 304 306 310 312 312 310 310 311 312 311 311 311 312 311 311 311
303 303 303 302 301 299 300 299 296 294 293 293 293 294 294 294 295 301 301 300 300 301 304 305 304 306 307 306 308 308 308 308 308 307 309 312 312 311 310 311 311 312 312 311 311 311 313
302 302 301 300 298 296 296 295 293 293 293 293 293 293 293 294 301 300 301 299 300 302 308 307 304 307 306 306 307 307 305 308 310 309 307 310 312 311 313 311 311 312 311 310 311 312 312
302 301 299 298 296 295 294 293 293 293 292 292 292 293 293 294 298 300 299 299 300 304 306 304 305 307 305 303 303 305 306 307 308 310 310 307 307 311 313 312 311 312 312 312 312 313 314
300 300 299 297 296 294 293 293 293 292 292 292 293 293 294 299 300 299 297 295 303 310 304 303 303 305 304 303 303 303 304 307 307 309 310 310 307 312 313 314 313 312 313 315 315 316 318
300 299 298 297 295 294 293 293 293 292 292 293 293 293 295 298 300 294 294 302 306 305 303 302 303 303 303 302 302 304 307 308 308 309 310 310 308 312 313 313 313 313 316 317 317 316 315
299 299 298 296 296 295 297 295 292 291 292 293 293 294 294 297 297 295 300 304 302 302 301 303 302 301 301 301 302 304 305 306 308 308 310 310 308 312 313 313 313 314 315 315 315 316 317
299 298 297 295 295 295 295 293 292 292 292 293 295 298 299 296 295 300 301 304 302 301 300 300 299 300 301 304 306 303 304 305 306 309 311 310 310 311 313 312 313 314 316 314 317 318 320
297 296 296 295 296 294 292 292 292 291 293 293 298 299 298 296 295 300 302 301 300 299 299 299 299 299 300 301 301 301 302 306 308 306 306 314 313 312 312 312 312 314 314 316 317 317 316
297 296 296 295 295 294 292 292 292 293 292 293 299 300 299 294 299 300 302 300 299 298 298 298 299 299 299 300 300 301 301 303 306 306 305 309 315 314 313 313 312 313 317 316 316 316 318
295 296 297 295 294 293 292 292 292 292 292 297 299 302 297 297 301 299 301 298 297 298 298 299 299 299 300 301 301 301 302 304 305 304 306 307 315 316 313 313 312 313 315 316 317 318 317
295 296 296 295 292 293 293 292 292 292 295 298 300 299 297 299 301 300 299 298 298 299 299 299 299 299 300 300 300 301 302 303 302 304 306 307 315 318 316 316 316 315 315 315 316 317 319
295 295 294 293 294 295 294 293 291 292 294 298 299 301 298 298 297 299 299 299 299 299 299 299 300 300 301 301 302 301 302 301 302 302 303 304 308 317 316 316 316 316 316 316 316 317 315
294 294 293 293 293 295 294 293 292 291 294 298 299 299 298 300 300 299 298 298 299 299 299 299 301 301 302 302 302 302 303 304 304 304 305 306 315 313 314 314 314 314 314 314 314 314 312
293 293 292 292 293 295 293 290 289 292 294 298 298 299 297 298 297 298 299 298 299 299 299 300 300 301 301 302 301 302 302 304 307 307 307 308 313 311 310 309 309 309 309 310 310 310 310
294 293 292 292 295 294 290 292 293 293 296 297 297 296 298 296 299 299 300 298 298 299 298 299 300 301 303 303 303 303 304 303 305 307 308 309 309 310 309 307 307 307 308 308 309 311 313
294 294 292 293 294 292 291 292 293 294 296 297 296 297 297 299 299 298 298 298 298 298 299 299 300 301 302 300 302 303 304 305 306 307 306 310 308 310 308 307 311 310 310 310 312 311 310
294 294 293 293 292 292 293 294 293 293 295 296 296 296 297 299 298 299 298 299 299 298 300 300 299 299 299 299 303 307 307 308 308 308 307 308 309 308 309 309 308 311 309 309 310 310 305
294 293 293 292 293 293 293 293 291 293 294 296 296 296 297 298 300 298 298 299 300 299 299 299 300 302 301 304 307 308 306 306 306 307 307 307 308 310 309 307 309 310 308 308 310 309 302
292 292 292 293 293 292 290 292 294 294 295 296 295 295 295 298 298 298 299 299 298 299 301 301 301 302 303 306 307 307 306 306 306 307 307 308 308 310 308 309 311 304 306 306 314 305 299
292 292 292 294 293 291 292 291 293 294 295 296 296 295 296 297 297 298 298 298 298 298 301 299 303 302 303 305 305 306 307 306 308 308 308 309 310 311 310 310 312 299 305 305 299 298 297
292 292 293 294 293 292 291 291 292 293 293 295 296 295 295 295 297 297 297 297 297 297 298 299 300 302 302 303 303 305 307 308 308 311 306 309 304 306 304 303 299 297 297 295 296 296 295

GFSGBSN_850_thetae_096.txt.gz
Theta_e
313 309 304 301 301 301 300 299 299 298 298 297 297 297 296 296 296 297 297 298 298 298 298 299 298 298 299 312 311 308 307 304 303 307 315 315 314 314 313 313 313 316 316 317 318 318 319
316 310 306 303 300 300 300 300 299 298 297 297 296 296 296 296 297 297 297 298 298 298 298 299 298 298 300 311 307 306 305 305 305 307 312 313 313 314 314 314 315 315 315 315 315 317 316
315 312 308 303 300 301 300 299 299 298 297 296 296 296 296 296 296 296 297 297 298 298 299 298 298 298 309 309 308 308 307 307 306 305 306 309 312 313 314 315 315 314 314 314 315 314 315
310 309 307 305 303 300 299 298 298 297 297 297 295 296 296 296 296 296 297 298 298 298 298 298 300 308 311 309 308 307 308 310 311 309 306 306 307 310 312 314 314 315 315 315 316 316 316
309 308 306 303 301 299 299 298 298 298 298 297 295 295 295 295 296 297 297 298 300 301 299 300 310 313 311 310 306 311 310 310 311 311 311 309 306 307 311 314 314 314 315 315 315 314 314
308 307 305 302 300 299 299 299 298 300 299 295 295 295 295 295 296 296 297 302 303 303 306 307 310 309 311 309 307 306 306 305 308 307 310 311 308 308 308 310 313 313 313 313 313 313 313
308 306 303 301 300 301 302 299 301 300 296 295 294 294 295 295 295 296 299 304 304 307 308 305 306 311 308 305 305 307 308 307 306 305 309 312 310 309 309 310 310 311 312 313 313 313 313
307 305 304 302 302 302 300 299 296 296 295 294 294 294 294 295 295 299 302 303 302 301 302 303 303 304 304 304 305 307 308 307 306 306 307 310 313 312 310 309 311 311 312 313 313 313 312
306 305 304 303 303 302 299 300 298 297 294 294 294 294 294 294 296 302 303 301 301 302 304 305 306 306 306 306 307 308 308 308 309 309 308 308 310 312 312 311 310 312 313 312 312 312 311
305 305 304 303 302 302 300 300 298 294 293 293 293 293 293 297 303 302 304 301 301 304 307 309 306 306 307 307 306 307 307 307 307 308 309 310 309 308 309 312 311 311 312 312 312 312 311
304 304 303 303 302 301 299 298 295 293 293 293 293 293 293 294 299 303 301 300 301 306 313 307 307 308 307 306 305 304 305 304 304 306 308 308 309 309 308 310 312 312 312 312 313 312 312
305 303 302 301 301 299 296 294 293 293 293 292 293 293 296 301 302 301 299 297 304 311 312 305 305 305 305 305 304 303 303 303 304 306 308 308 307 309 310 308 311 313 312 312 313 313 314
303 301 301 300 299 297 295 294 293 293 292 292 293 293 295 298 302 299 295 304 309 309 305 304 304 304 303 303 303 303 303 302 303 307 308 309 309 310 310 307 312 314 314 316 318 317 317
301 300 299 298 297 296 295 295 293 292 292 293 293 294 295 299 296 296 303 306 306 305 304 303 302 301 301 302 304 305 305 304 305 307 309 310 310 309 311 312 314 315 315 317 318 318 317
299 300 299 298 296 296 297 296 292 292 292 293 296 299 301 299 295 301 304 307 305 302 301 300 300 301 301 302 302 304 304 303 304 308 309 309 310 311 311 311 313 315 316 317 318 316 319
300 299 299 297 296 296 296 293 292 292 292 296 300 301 301 294 296 303 305 305 302 301 300 300 299 300 300 300 301 301 302 303 303 307 306 306 309 311 311 311 312 315 315 316 317 323 323
299 299 297 296 296 296 293 292 292 292 293 295 300 302 301 295 301 304 305 303 300 299 298 299 299 299 299 300 302 302 303 303 306 306 304 305 308 310 313 312 314 313 316 315 316 317 320
298 297 296 296 296 294 292 292 292 293 293 299 301 304 300 298 304 302 303 300 298 299 299 300 299 300 300 300 301 301 301 302 304 305 304 306 311 311 315 313 313 312 314 317 317 317 317
297 296 296 295 294 294 292 292 292 292 297 300 302 301 296 302 305 303 300 300 299 300 300 300 300 300 301 300 301 301 302 302 304 303 304 306 308 313 314 315 314 312 312 314 317 317 320
296 297 297 296 293 293 293 292 291 293 297 300 301 304 300 301 297 300 300 300 300 300 300 301 301 301 302 302 302 303 303 303 304 305 304 304 305 307 311 315 314 313 313 316 317 318 317
296 296 296 293 293 295 294 293 291 293 298 299 301 303 300 303 301 300 300 300 300 300 300 299 301 301 301 302 302 301 304 304 304 304 306 306 309 310 310 311 317 317 316 316 316 315 314
295 295 294 293 293 295 294 293 291 293 297 299 299 301 297 299 299 299 301 300 300 300 300 300 302 301 301 302 302 303 303 303 306 307 308 307 313 311 313 314 314 315 313 314 312 312 311
293 293 292 292 293 295 294 290 290 294 297 299 298 298 299 299 300 301 302 300 300 301 300 299 300 301 301 303 302 302 303 303 305 306 309 309 310 312 309 308 309 310 309 310 313 310 311
294 292 292 293 295 295 291 292 293 296 297 297 298 298 300 301 300 300 299 300 300 300 300 300 301 301 301 301 301 303 303 304 305 308 307 309 310 310 309 309 314 311 311 312 309 306 305
294 293 292 294 295 293 291 292 293 294 297 297 297 298 298 301 300 300 300 300 301 301 302 301 301 302 302 302 304 306 308 309 308 307 307 309 311 311 311 314 312 311 309 310 312 306 302
295 294 293 293 293 292 292 294 294 294 295 296 297 296 298 300 301 299 300 301 301 302 303 303 302 303 303 303 307 310 306 308 309 307 308 307 309 311 311 309 312 306 304 306 308 305 300
294 294 293 292 292 293 294 294 292 293 295 296 298 296 298 299 299 299 300 299 299 300 302 303 302 303 304 305 310 308 307 307 309 308 309 311 310 312 310 313 308 300 303 306 311 303 298
293 293 293 292 293 293 292 291 293 295 295 296 297 296 298 298 298 299 300 299 299 299 301 300 304 303 303 305 305 306 308 308 309 307 308 306 309 308 310 311 308 297 301 302 299 297 297
293 293 293 293 294 291 292 291 293 294 294 295 296 296 296 296 297 296 295 298 298 299 299 300 302 302 301 302 303 304 307 308 309 309 305 305 304 305 302 302 298 296 296 294 295 294 293

GFSGBSN_850_thetae_099.txt.gz
Theta_e
326 325 322 316 314 308 302 300 300 299 298 298 297 297 297 297 297 297 297 297 298 298 299 299 298 298 298 305 304 308 308 307 305 303 304 312 314 315 311 309 310 310 311 314 315 316 316
327 326 322 318 313 311 303 300 299 299 298 297 297 297 297 296 296 297 297 297 298 298 299 299 298 298 298 306 308 306 306 306 305 305 306 312 314 313 313 313 311 312 312 312 313 314 314
326 324 321 314 311 309 304 302 300 299 298 297 297 296 296 296 296 297 297 297 298 298 298 298 298 298 300 301 307 309 309 308 307 306 305 305 306 307 309 311 314 314 312 313 312 312 312
325 320 316 312 311 310 308 302 299 300 298 297 296 296 296 296 296 297 297 297 298 299 299 298 299 301 304 306 309 307 307 308 310 310 310 308 305 305 306 308 311 311 311 312 313 313 314
324 320 316 311 310 309 305 301 300 300 300 297 296 296 296 296 296 296 297 298 299 302 302 300 302 309 314 310 310 307 309 309 310 310 311 310 310 307 305 305 308 310 311 312 312 312 312
325 319 315 310 309 307 304 301 301 300 298 297 296 295 295 295 296 296 297 299 303 303 305 306 308 311 310 309 306 307 307 306 306 305 305 307 310 307 303 303 307 310 311 311 312 312 312
324 317 313 309 308 306 303 302 301 298 301 299 295 295 295 295 295 298 299 303 303 306 308 309 309 308 308 309 307 304 304 308 308 307 302 304 307 310 304 304 305 307 308 308 308 310 311
321 316 311 309 307 304 303 300 302 303 300 297 295 294 295 295 295 302 301 303 301 301 302 301 301 305 305 304 304 303 306 308 307 305 303 303 303 306 309 308 307 307 306 306 308 310 311
319 314 310 308 305 304 302 303 303 299 296 296 294 294 294 295 298 302 303 301 301 301 302 302 304 305 306 305 304 305 307 308 307 307 307 306 306 308 308 309 310 310 308 307 308 310 309
316 312 309 306 305 303 303 303 301 299 297 294 294 294 294 296 303 302 302 301 300 302 304 308 306 306 308 307 306 306 307 306 307 306 306 306 307 308 307 308 307 306 309 309 308 310 310
312 309 307 305 305 304 302 301 301 300 294 294 293 293 294 294 301 302 300 301 298 305 313 308 307 307 307 306 306 305 304 303 302 302 302 302 303 305 306 307 308 308 308 311 309 310 310
310 308 305 305 304 302 302 301 299 297 293 293 293 293 299 300 302 302 299 297 305 310 313 305 307 306 304 304 303 302 302 303 302 302 301 301 305 306 307 308 307 307 309 312 312 311 311
308 306 304 303 302 302 301 299 296 293 293 292 293 293 296 298 302 302 296 304 308 311 305 303 302 302 301 301 302 302 304 303 302 302 304 305 306 306 307 307 308 309 309 313 314 315 314
305 304 303 301 300 301 299 295 293 293 292 293 293 294 297 298 294 295 303 304 306 306 302 301 300 301 301 302 302 302 302 302 302 305 307 307 307 306 307 307 310 309 310 314 315 316 315
303 301 300 301 301 298 296 295 293 292 292 293 295 300 301 297 294 301 304 306 304 301 300 299 299 299 300 300 300 300 300 300 302 307 306 306 304 304 304 308 311 312 313 310 315 317 319
300 300 299 299 298 295 296 295 292 292 292 296 300 301 301 295 295 304 304 305 302 300 299 299 298 299 299 299 299 300 302 302 303 305 305 306 305 304 306 308 312 313 313 315 316 319 320
300 299 299 300 297 298 297 292 292 292 293 299 300 301 302 296 301 304 302 304 300 298 299 298 298 298 299 299 300 300 300 302 302 305 304 303 305 305 308 311 313 313 313 314 316 317 322
299 299 298 297 297 296 294 292 292 293 293 299 301 301 298 296 303 304 301 300 299 299 299 300 299 300 300 300 300 300 301 301 302 303 302 305 306 307 307 308 311 313 313 315 314 317 317
299 299 298 297 296 294 292 292 293 292 298 300 302 300 297 302 302 301 300 299 299 300 300 300 301 301 300 301 301 301 302 303 303 303 303 304 306 304 306 312 312 314 313 314 316 315 318
298 297 296 296 296 294 292 292 292 294 299 301 302 300 299 301 296 300 300 301 300 300 300 300 299 300 301 301 302 302 302 303 303 303 304 304 306 304 305 308 309 311 312 315 316 316 319
297 297 296 296 294 293 292 291 292 294 299 300 301 302 301 301 299 298 299 300 300 300 300 299 300 301 301 301 301 301 302 302 303 303 304 304 307 307 306 306 308 309 311 315 317 315 317
296 297 296 294 294 295 293 292 291 296 299 299 299 301 297 301 299 297 300 300 300 300 300 299 301 300 300 300 302 303 303 303 304 305 307 306 308 310 312 312 312 315 314 312 310 310 310
296 296 294 293 294 295 293 292 291 296 299 299 299 298 299 299 298 298 300 301 299 299 299 300 300 301 301 301 302 301 301 302 302 303 304 308 309 311 313 312 312 315 311 307 305 304 306
295 294 293 293 293 295 292 289 292 297 298 299 298 299 300 298 298 300 300 300 300 301 295 300 301 301 301 302 303 303 303 302 303 304 305 308 310 310 310 310 313 308 306 305 303 300 300
293 293 293 293 295 294 291 292 294 297 297 297 297 298 299 297 300 300 300 301 301 301 299 300 301 302 302 302 304 305 307 307 308 308 308 308 309 311 312 313 310 306 303 302 307 301 298
292 292 294 295 295 291 292 293 294 296 296 296 296 296 298 299 299 300 299 300 298 297 299 302 301 304 303 303 305 307 308 309 308 308 308 309 309 310 310 311 310 303 299 300 302 300 297
294 294 293 293 293 292 293 294 293 295 296 297 297 296 297 297 299 299 298 298 299 299 298 301 299 302 302 302 306 307 308 308 309 310 306 306 306 307 308 308 304 297 298 300 298 300 295
295 294 294 293 293 293 294 294 292 294 295 296 297 296 297 297 297 298 300 299 299 299 295 299 299 301 299 301 302 304 307 307 308 305 306 303 306 304 305 304 303 295 297 298 298 295 293
294 294 294 293 293 293 293 292 294 295 295 296 297 296 296 295 296 298 296 298 295 298 299 299 301 301 300 298 300 301 306 305 306 306 304 303 305 301 301 299 295 293 293 292 292 292 291

GFSGBSN_850_thetae_102.txt.gz
Theta_e
326 326 326 326 325 325 323 319 317 305 301 300 298 298 298 298 298 297 297 297 298 298 298 298 298 298 298 300 302 303 307 308 306 305 303 306 311 313 312 310 309 307 308 310 311 313 313
325 325 326 326 326 325 321 320 318 312 302 299 298 298 297 297 297 297 297 297 297 298 298 298 298 298 298 304 304 307 305 306 307 306 304 305 312 312 310 310 310 311 311 310 311 310 311
326 326 326 326 323 324 321 320 318 312 308 300 299 299 297 297 297 297 297 297 297 297 298 298 298 298 299 301 303 306 308 308 308 309 307 304 305 305 305 305 308 309 309 310 311 311 310
327 326 326 325 323 322 320 317 317 313 310 301 301 300 297 297 296 296 296 297 297 297 299 300 300 299 300 302 308 307 308 307 307 307 307 310 310 309 305 305 306 306 308 309 311 311 311
325 325 326 326 324 321 318 316 314 312 305 303 302 300 297 296 296 296 297 297 298 298 301 302 299 304 307 309 310 308 307 307 307 308 308 307 308 308 308 303 302 306 307 307 309 311 310
325 325 325 325 324 320 315 313 311 309 304 303 302 298 297 296 296 295 297 298 301 303 303 304 304 308 307 308 305 305 305 306 307 307 306 307 306 307 301 301 303 305 307 306 307 309 309
324 322 324 324 323 316 313 311 309 310 304 303 300 298 296 295 295 297 299 302 302 303 306 307 307 308 308 309 308 306 305 304 307 306 303 304 300 302 306 303 305 304 303 303 304 305 306
319 323 322 321 320 314 311 309 308 309 303 301 299 297 295 295 295 302 301 301 300 300 300 299 300 305 306 304 304 303 303 305 307 305 304 302 301 302 305 307 305 305 304 304 305 306 306
318 322 323 320 318 313 310 308 308 307 301 302 302 295 294 294 298 303 302 301 301 300 300 301 302 303 305 305 304 304 305 307 306 306 306 305 306 306 306 305 305 306 307 307 307 307 307
314 321 321 320 313 312 310 307 305 303 303 305 297 294 294 294 300 302 302 302 301 300 305 306 306 307 307 306 306 305 303 303 302 302 303 304 305 305 304 304 305 305 306 306 307 306 308
314 317 318 312 310 310 307 305 303 303 303 298 295 293 293 297 302 302 302 301 297 305 303 308 308 306 307 304 303 305 303 302 301 301 301 301 300 300 301 302 302 303 307 307 306 306 311
314 318 314 311 309 308 305 303 303 302 299 295 293 293 294 296 301 301 300 297 305 309 305 305 304 301 301 301 302 302 303 304 303 301 300 300 301 300 301 305 306 307 307 307 309 311 311
316 318 315 311 306 305 303 302 301 300 297 293 293 293 298 299 300 302 299 305 307 309 305 301 300 300 301 300 301 300 300 299 301 300 301 303 304 303 305 305 306 307 307 309 309 312 311
316 316 313 307 305 303 302 302 301 297 294 293 293 293 296 297 296 298 298 304 306 304 301 300 299 300 300 299 300 299 300 300 299 302 304 305 304 304 304 303 303 303 309 309 311 312 313
316 311 307 305 304 303 302 300 298 293 292 293 293 296 297 296 294 298 304 302 302 301 299 298 299 299 299 299 299 299 300 300 302 305 305 305 304 303 303 303 308 310 311 309 310 310 313
308 306 304 303 302 301 300 299 294 293 292 293 299 300 299 294 297 304 302 306 299 299 299 299 298 299 298 298 298 299 300 300 301 302 303 304 303 303 303 304 306 310 311 310 311 312 314
305 302 302 302 301 300 298 294 292 292 293 299 301 302 301 298 303 304 301 303 299 299 299 298 298 299 298 299 299 299 300 300 300 302 303 303 303 303 303 308 310 312 313 312 312 314 314
301 301 300 300 298 298 297 292 292 292 298 300 301 301 300 300 302 302 301 300 299 299 299 299 299 299 300 299 300 300 300 300 301 302 301 304 303 304 304 304 305 310 312 312 311 312 316
300 300 299 299 298 297 293 292 292 293 299 300 302 299 295 301 298 298 300 300 299 300 300 300 300 300 299 299 300 301 302 302 302 302 302 304 302 303 303 310 310 312 312 313 314 313 317
299 298 298 297 297 294 292 292 292 293 300 302 302 297 299 301 297 299 300 300 300 300 300 299 299 299 301 300 300 300 300 301 302 302 303 304 303 304 305 306 306 308 309 311 314 315 313
298 298 297 296 294 292 292 293 292 297 300 301 301 299 300 298 298 298 298 299 300 299 300 299 299 300 300 300 300 300 301 300 300 303 304 304 307 306 305 305 305 306 311 312 313 312 312
298 297 296 296 294 292 292 292 293 298 300 299 301 297 300 299 296 295 299 300 299 299 299 299 300 300 299 300 299 299 301 301 301 304 305 303 307 307 307 308 306 309 310 306 306 307 307
296 297 295 295 293 292 291 291 293 299 299 299 298 299 299 300 298 298 298 300 299 297 299 299 299 301 301 302 301 301 301 301 301 301 301 303 306 310 313 311 312 309 305 303 302 301 301
296 295 294 296 295 293 291 291 295 298 299 298 298 299 300 297 297 299 302 300 301 299 293 299 300 301 302 301 302 303 302 302 302 302 302 304 307 311 312 311 307 305 302 301 300 298 298
296 294 293 294 295 293 290 290 295 298 298 298 298 299 299 297 299 300 300 300 300 299 297 299 302 300 302 302 304 304 307 306 306 304 307 306 308 310 313 310 307 304 300 299 303 297 296
294 293 293 294 295 290 291 293 296 297 297 297 297 298 299 297 298 299 298 298 297 295 296 300 300 303 302 302 303 305 309 309 308 308 306 306 308 309 311 309 307 301 296 297 299 296 295
294 293 295 295 291 292 293 294 296 296 296 296 296 297 297 298 299 299 297 297 299 297 296 297 298 300 300 298 300 304 308 306 307 308 305 304 305 304 307 306 303 295 295 299 299 296 293
294 294 293 293 292 293 294 293 295 296 297 297 295 295 295 296 297 298 300 298 296 298 294 298 298 299 298 298 301 302 306 306 305 304 305 303 304 302 302 302 302 293 295 297 295 293 291
295 295 293 293 292 293 294 292 294 294 295 296 296 296 296 295 297 298 296 297 295 295 298 299 300 298 299 297 299 300 303 302 303 304 302 301 301 299 299 297 293 291 291 291 291 291 290

GFSGBSN_850_thetae_105.txt.gz
Theta_e
325 326 325 325 324 324 324 323 324 324 323 319 315 310 304 299 299 299 299 298 298 297 297 298 298 299 299 299 301 302 303 307 306 305 304 304 308 311 312 311 310 307 307 309 309 309 310
325 325 325 325 325 325 325 325 325 325 323 320 312 306 301 298 298 298 298 298 298 298 297 297 298 298 298 302 301 305 307 305 307 307 306 305 310 310 306 306 306 309 308 308 309 310 310
326 327 326 326 325 325 325 324 325 324 322 319 311 308 300 299 300 297 297 297 297 297 297 297 299 299 299 300 301 306 306 307 308 307 307 308 305 305 305 303 305 305 306 306 309 309 309
326 327 326 326 325 325 325 325 324 322 322 319 315 310 305 305 299 296 296 296 297 297 297 298 301 301 300 301 302 302 305 306 307 307 307 308 307 307 306 306 304 304 304 307 309 307 310
325 324 326 326 327 326 325 324 324 322 322 318 314 306 303 304 299 296 296 296 297 298 299 299 301 301 302 304 308 308 309 308 306 307 307 307 307 307 306 304 303 302 303 304 305 306 308
323 319 323 322 325 325 324 324 323 321 320 318 312 306 303 302 297 295 296 296 299 302 302 302 302 306 303 307 306 305 305 304 306 307 307 305 306 305 301 304 304 302 304 303 303 304 303
312 324 319 324 324 320 322 323 323 319 316 313 310 309 303 301 296 295 296 300 302 303 304 304 306 305 308 309 306 305 305 304 304 306 304 304 300 301 303 304 306 306 305 305 306 305 304
310 314 317 320 319 321 321 320 322 317 314 313 314 309 303 297 295 296 300 301 300 300 299 299 302 306 305 306 306 304 304 304 306 305 303 302 301 301 302 303 305 305 305 305 305 305 305
310 311 314 317 320 321 320 319 320 316 316 313 308 306 299 295 294 301 301 301 301 301 297 298 300 301 303 301 302 304 304 305 305 305 305 304 305 305 303 304 304 304 305 305 305 305 304
313 312 312 314 316 319 319 318 314 312 309 308 306 301 301 294 295 302 301 301 301 298 302 304 305 305 305 305 305 304 302 303 302 301 301 300 302 301 300 300 301 300 302 303 303 304 305
315 314 313 312 314 317 317 313 311 309 308 308 303 302 296 293 301 302 302 302 300 302 299 307 306 304 304 303 302 303 302 301 301 301 300 300 299 299 299 299 300 300 301 304 306 306 305
315 315 316 313 313 317 313 312 308 308 307 304 302 298 294 293 301 302 301 296 304 305 301 304 301 301 302 301 301 300 300 301 302 301 300 299 301 300 299 302 303 305 305 304 305 306 307
314 315 314 315 314 315 313 309 308 307 305 303 300 294 293 295 301 301 299 304 306 308 303 300 300 300 301 299 300 299 300 299 298 299 300 301 302 303 303 304 303 304 305 305 304 306 307
313 313 314 316 313 314 310 307 307 305 303 301 294 293 295 299 300 301 297 301 305 304 300 299 299 300 299 299 299 299 299 298 300 302 302 303 302 303 302 302 302 301 303 305 306 308 308
311 313 314 314 314 311 308 306 304 303 301 295 293 293 298 298 296 297 303 299 301 300 299 299 299 299 299 298 298 298 299 298 300 301 301 303 303 301 301 301 302 306 302 303 307 307 309
311 312 313 315 312 307 306 304 303 302 297 293 294 297 297 295 295 302 300 304 298 299 299 299 298 299 298 297 298 298 298 299 299 299 302 302 301 301 301 302 302 305 305 306 308 311 310
311 314 313 312 307 305 303 302 301 299 293 293 299 299 297 296 303 303 300 303 299 299 299 299 298 298 298 299 298 298 299 299 298 300 301 302 302 302 302 302 302 308 310 310 309 310 310
313 309 306 306 304 303 301 301 298 295 294 299 301 300 298 302 301 301 301 302 299 299 299 299 299 300 300 299 299 299 300 299 300 301 301 301 300 302 301 301 302 303 306 312 313 312 312
307 304 303 301 301 301 300 298 293 293 296 301 299 299 297 301 299 300 301 300 300 300 300 299 300 299 299 299 300 301 300 301 301 301 301 302 302 300 302 308 307 309 309 309 314 314 313
300 300 300 301 301 300 296 295 292 297 300 301 298 297 299 301 299 299 299 299 300 299 299 299 299 299 300 300 299 299 300 299 301 301 302 302 300 301 301 303 304 306 307 307 311 315 310
301 302 300 299 299 298 293 292 293 298 301 301 301 297 299 298 298 298 298 299 299 299 299 298 299 300 299 299 299 299 299 298 299 300 302 304 305 304 303 303 304 306 308 309 310 312 308
299 299 298 298 296 292 292 292 295 299 300 300 300 298 300 297 297 297 299 299 299 299 299 299 299 299 299 299 299 298 299 299 299 301 304 303 302 304 305 305 307 304 302 302 305 306 305
298 297 298 296 292 292 293 292 297 300 300 299 299 299 299 297 296 298 298 299 299 297 299 299 299 299 300 301 301 301 300 300 301 301 302 302 302 306 310 308 305 299 301 300 300 298 300
297 296 294 293 292 292 292 293 297 299 299 299 299 299 298 297 297 299 301 300 299 298 294 299 299 300 301 301 301 301 301 301 301 302 302 303 304 306 311 309 305 302 300 299 297 296 296
297 297 295 292 292 291 291 293 298 299 299 299 299 299 299 297 298 299 301 300 298 299 297 297 300 300 301 302 303 302 303 305 305 304 306 304 304 310 311 306 304 305 298 298 300 296 294
296 296 295 293 292 291 291 296 298 298 298 298 298 299 299 298 298 299 297 298 296 295 297 298 299 300 300 301 303 304 308 306 308 308 304 304 305 309 308 308 306 299 294 295 298 295 293
294 295 295 294 290 290 293 296 297 297 297 297 297 299 299 298 298 298 297 297 298 296 296 296 298 300 299 297 303 304 307 305 304 304 305 304 305 304 305 305 301 293 293 298 298 296 291
294 295 294 291 291 292 295 296 296 296 295 296 296 297 297 298 298 299 299 297 296 297 293 297 296 297 297 298 301 301 302 304 303 302 303 301 302 301 302 303 303 291 294 297 294 291 289
295 295 293 291 293 293 294 296 296 296 297 296 295 295 296 297 297 298 296 296 295 295 298 299 298 297 298 297 299 300 300 300 299 299 300 300 298 298 297 295 291 290 290 291 292 289 288

GFSGBSN_850_thetae_108.txt.gz
Theta_e
326 325 325 325 325 325 324 324 324 323 323 324 324 322 320 311 307 300 299 298 298 297 297 297 298 299 299 299 301 302 302 303 307 305 305 303 307 310 310 309 308 306 307 307 307 308 309
326 327 327 325 325 325 325 324 324 324 323 323 324 322 320 311 306 300 299 298 297 297 297 297 297 298 299 299 301 301 304 307 306 307 307 305 311 309 305 305 304 306 305 305 306 307 308
327 326 327 326 326 325 325 325 324 324 324 324 323 322 319 312 310 301 302 299 297 297 296 297 297 299 300 300 301 301 306 305 306 307 307 307 306 304 304 304 305 304 303 303 305 308 308
325 325 326 327 327 326 326 325 325 325 325 324 323 321 319 317 311 304 302 297 297 297 297 297 299 299 300 301 301 300 305 306 307 307 307 307 307 306 306 306 305 303 303 304 306 304 306
321 323 323 324 325 325 325 326 325 324 325 324 323 320 320 316 311 306 301 297 296 296 297 299 300 301 301 303 303 306 307 305 306 307 306 306 306 306 305 303 303 301 301 303 303 303 303
310 317 322 323 323 324 321 324 323 325 323 322 322 318 319 315 305 303 298 296 297 299 301 302 302 304 302 305 307 305 305 305 305 305 306 305 305 302 300 303 303 301 301 302 304 304 303
316 313 314 315 318 319 317 320 321 322 322 322 321 318 317 311 304 301 295 297 301 302 303 301 304 303 307 307 305 304 303 305 303 306 304 303 300 302 303 303 304 303 304 305 305 305 304
316 315 315 311 314 315 316 318 321 321 318 320 319 315 316 311 305 296 295 300 300 300 299 299 300 303 303 305 306 305 304 304 304 303 302 301 301 301 301 301 303 303 303 303 303 303 303
313 314 314 314 311 312 317 316 321 318 318 319 318 312 313 306 300 294 299 300 300 301 297 298 298 299 300 301 301 303 303 304 304 303 303 303 305 303 302 302 303 303 303 303 303 302 301
313 314 315 315 312 311 313 316 316 318 318 318 316 310 310 301 297 295 301 301 301 298 299 301 302 304 304 303 303 302 302 302 301 302 301 300 301 301 300 299 300 298 300 301 300 300 300
312 314 315 315 315 311 312 314 317 318 317 317 311 309 305 305 297 299 301 301 301 300 299 305 304 303 304 304 302 301 301 302 301 301 300 301 300 300 300 300 299 299 300 299 300 303 303
307 311 314 315 315 314 313 315 317 317 316 312 310 309 304 301 296 301 301 301 298 303 300 302 300 300 301 300 300 299 300 301 301 300 299 300 301 300 299 300 301 302 303 303 302 302 303
306 307 309 314 315 314 313 313 315 315 314 310 308 306 303 296 295 301 301 302 303 306 302 299 299 300 299 299 299 299 299 298 297 299 300 301 301 302 302 302 301 301 301 302 301 306 303
305 307 307 312 315 315 315 313 314 313 310 308 307 303 295 294 298 301 298 302 304 303 300 299 298 299 298 298 298 299 298 298 301 299 300 302 301 302 300 301 301 300 301 303 304 305 305
306 307 307 311 313 315 313 312 313 309 310 306 304 299 293 295 299 301 302 301 298 300 299 298 299 299 298 298 298 298 298 298 299 299 298 300 302 300 300 300 300 302 302 301 302 302 304
306 306 307 313 312 315 313 313 311 310 307 305 297 293 296 299 299 299 300 302 298 299 298 298 299 298 298 297 298 298 298 299 299 299 299 302 301 300 300 301 300 302 304 304 306 305 308
307 308 310 313 313 313 314 313 311 306 305 302 295 298 299 297 298 302 297 301 298 298 299 299 298 298 298 299 298 298 299 299 298 300 301 301 301 300 301 301 299 304 305 304 304 307 308
312 311 313 313 313 312 312 312 307 305 303 294 298 296 297 297 301 300 300 302 299 299 299 300 300 300 299 299 299 299 300 299 300 300 300 300 299 302 301 301 301 301 303 304 304 312 311
312 311 313 312 312 312 308 306 304 302 296 299 299 298 299 301 301 300 301 300 300 300 300 299 300 299 298 298 299 299 300 300 300 300 301 301 301 299 301 305 307 306 307 309 308 307 313
312 312 312 310 306 306 305 304 302 299 298 299 297 297 298 300 300 300 300 300 300 299 299 298 299 299 299 299 299 299 300 299 300 300 301 301 300 299 300 300 301 303 305 306 307 308 308
313 311 306 304 303 302 302 301 298 295 298 299 298 296 299 300 296 298 299 300 300 299 299 298 298 299 299 299 299 299 298 296 297 300 300 300 302 301 302 302 303 305 304 302 310 310 308
301 301 300 301 300 300 300 297 296 298 300 300 299 298 299 297 298 299 300 299 299 299 299 298 298 298 298 299 299 297 298 298 297 299 302 304 302 303 302 303 305 301 301 299 299 302 300
299 300 300 301 301 299 296 295 296 300 300 300 299 299 298 296 297 297 298 299 299 297 299 299 298 298 299 299 299 299 299 300 301 302 302 302 302 303 306 304 303 302 300 299 297 297 299
299 299 299 298 297 296 292 296 299 300 300 299 300 299 298 297 297 299 300 299 298 297 293 299 299 299 300 300 301 301 300 300 300 301 301 302 303 304 307 305 305 300 300 297 296 295 295
297 297 295 293 292 292 293 297 299 300 299 299 300 299 298 295 297 300 300 299 298 299 296 297 299 300 300 301 302 302 303 304 304 303 304 302 303 305 310 305 301 302 297 297 299 295 293
297 295 294 292 292 292 295 298 299 300 299 299 300 299 299 298 298 299 298 297 296 295 296 298 298 299 299 298 301 301 304 305 307 307 303 304 304 306 308 307 305 298 294 294 296 294 291
295 293 292 291 291 293 296 298 298 298 298 299 299 298 299 298 298 298 296 297 297 296 295 296 298 298 298 295 298 302 305 304 303 303 304 304 305 304 306 304 299 293 292 295 300 295 290
295 293 292 291 292 296 297 298 298 298 297 298 298 299 299 298 298 299 298 297 296 296 292 296 295 296 296 297 300 300 301 300 303 301 301 300 301 300 301 303 302 291 294 297 292 289 288
294 292 291 292 295 296 296 296 296 295 295 296 297 297 299 298 298 297 296 295 295 295 298 298 296 296 297 297 299 298 300 301 297 298 298 300 296 297 295 294 291 289 290 291 291 288 286

GFSGBSN_850_thetae_111.txt.gz
Theta_e
327 327 327 326 325 324 325 325 325 324 324 323 323 323 323 322 320 318 313 303 301 299 298 297 298 298 299 299 301 302 301 305 305 305 305 304 305 308 310 309 308 309 309 307 307 306 306
328 326 327 326 326 326 326 325 324 324 324 323 323 323 324 323 320 317 316 306 303 300 298 297 297 297 298 300 301 301 301 303 305 306 306 305 310 308 306 305 306 307 305 305 305 306 306
325 325 326 327 326 326 326 326 326 324 324 323 324 324 323 322 321 318 315 307 305 300 297 297 297 297 298 300 301 301 301 306 305 306 307 306 305 304 304 305 304 304 305 305 306 307 308
311 320 324 325 326 325 326 326 326 326 325 325 325 324 323 322 321 318 315 309 304 299 297 297 297 298 298 300 300 301 301 306 305 307 307 306 306 306 306 305 306 306 304 306 306 305 305
312 309 315 320 322 323 323 325 325 325 324 324 324 324 322 321 319 317 316 306 300 298 297 298 300 300 300 301 303 305 303 304 306 305 306 305 305 305 304 306 307 304 305 304 305 306 305
306 314 315 312 314 317 321 322 323 324 324 322 323 323 321 320 319 316 311 301 297 297 300 301 301 301 301 303 306 306 308 307 306 305 305 304 305 306 304 307 305 304 304 303 305 306 306
309 307 309 315 315 312 317 319 321 321 321 319 321 321 320 318 319 315 306 298 300 301 302 300 301 300 305 306 305 304 303 303 304 305 306 302 305 306 306 306 306 305 305 306 306 306 306
312 310 310 313 316 315 313 315 315 316 317 317 319 320 318 317 317 313 301 296 299 299 300 299 300 302 302 306 305 304 303 304 304 304 303 304 305 304 302 302 303 304 304 305 305 305 304
314 314 313 312 314 315 315 313 313 317 314 315 318 318 316 316 312 312 297 299 300 300 298 298 299 299 299 300 302 301 302 302 304 303 304 304 305 303 303 303 303 303 304 303 302 302 302
307 312 313 313 312 314 314 315 311 311 316 315 318 316 316 315 310 306 297 300 299 300 300 300 300 302 302 301 302 301 301 303 302 304 304 303 301 302 301 301 301 301 302 302 301 301 301
304 306 307 310 313 313 315 314 313 311 313 317 316 316 316 311 309 304 304 299 300 299 302 304 304 303 303 302 301 301 301 301 301 301 302 302 301 301 302 302 300 302 301 302 302 303 303
305 303 306 306 309 313 315 316 314 311 313 316 316 315 312 309 308 301 300 300 300 304 300 303 300 301 301 299 299 299 300 301 300 301 300 301 301 301 302 301 301 302 303 303 304 304 302
302 304 301 305 306 309 314 315 316 313 314 315 313 314 309 309 303 300 299 300 303 302 302 301 300 300 299 299 299 299 299 299 300 300 301 301 301 302 302 303 302 302 302 304 304 305 303
301 303 301 302 304 306 308 314 315 314 313 314 313 311 307 304 302 300 300 303 300 303 302 299 299 299 299 298 298 299 298 299 301 300 300 300 300 303 301 302 301 301 301 302 303 304 304
300 302 303 301 303 305 306 313 315 314 313 313 308 305 301 296 298 301 300 301 300 301 300 299 299 299 298 298 298 298 298 298 301 299 300 300 301 301 300 300 300 301 302 302 302 302 302
299 300 302 301 302 305 305 312 315 314 312 310 308 301 296 296 298 300 301 300 300 299 298 299 300 299 299 297 298 299 298 299 299 300 299 301 301 301 300 301 301 301 303 305 304 306 307
297 299 302 301 304 305 306 312 314 313 312 310 305 298 297 298 300 300 300 300 298 298 299 299 298 298 298 298 299 299 298 298 299 301 301 301 300 299 301 301 301 302 303 303 304 304 309
298 301 302 303 304 306 307 312 313 312 311 305 299 299 297 298 301 299 300 301 299 299 299 299 300 299 299 299 299 299 299 299 299 300 300 301 302 302 301 301 302 301 302 304 305 307 308
300 302 302 304 307 308 310 310 312 312 310 303 298 298 299 299 300 300 301 300 300 300 300 300 300 300 299 299 299 300 300 300 299 300 301 302 302 301 302 305 306 304 304 306 308 305 306
302 303 303 307 310 309 312 310 312 311 307 306 297 298 298 299 300 300 301 300 300 299 299 299 299 299 299 299 299 299 300 300 299 299 301 302 301 301 299 299 300 302 304 304 306 308 307
303 303 307 312 310 311 310 311 312 308 303 303 298 298 299 299 299 300 300 301 300 300 299 298 299 299 299 299 299 299 299 298 297 299 300 302 301 301 301 301 302 304 303 302 301 305 308
306 310 313 311 312 311 311 311 306 301 299 299 298 298 299 299 298 299 301 300 300 299 299 298 299 299 299 299 299 299 299 299 300 300 302 302 303 301 300 302 303 301 300 301 299 301 299
313 312 311 309 309 307 309 305 299 298 299 299 298 299 299 300 299 300 300 300 300 299 298 299 299 299 299 300 299 299 299 300 301 301 303 302 303 303 305 303 302 304 300 299 298 297 300
307 305 307 304 301 301 303 299 299 299 299 299 299 298 298 298 299 299 299 299 299 298 298 299 299 300 300 300 300 300 299 299 300 301 301 303 303 304 306 304 307 301 298 297 296 295 296
298 298 298 299 300 301 300 299 299 299 299 299 298 299 297 298 299 300 299 299 298 298 298 297 298 300 300 300 302 303 303 302 302 301 303 301 303 304 308 306 302 301 298 298 299 295 293
298 299 299 300 299 297 297 298 299 299 299 299 299 298 298 299 299 299 298 298 298 297 297 298 299 299 299 300 301 303 305 304 306 307 305 304 303 304 305 306 305 299 294 294 296 299 292
296 296 296 296 297 296 297 298 299 299 298 299 299 298 298 297 297 298 298 298 297 296 297 296 298 298 298 299 302 304 305 304 304 303 303 303 304 305 307 304 300 294 292 295 302 299 289
294 294 294 295 296 297 298 299 299 299 298 299 299 298 299 297 298 298 298 298 296 296 297 295 298 297 298 300 302 302 302 302 303 300 302 301 301 301 303 303 303 291 295 299 293 289 287
291 293 296 297 298 298 298 298 298 298 298 298 298 299 299 299 297 296 296 296 294 295 298 297 296 297 297 299 300 300 301 301 300 302 298 301 297 298 296 296 291 290 291 291 290 288 286

GFSGBSN_850_thetae_114.txt.gz
Theta_e
327 328 328 327 327 327 325 325 325 325 325 325 324 324 323 323 323 323 322 318 314 304 308 304 301 300 299 303 303 302 301 306 306 306 307 307 308 308 310 309 309 311 311 310 311 311 310
325 325 324 327 327 326 326 326 326 326 325 324 324 324 323 323 323 322 322 319 317 309 308 302 300 298 299 304 303 302 301 301 303 306 307 307 308 308 309 310 310 310 311 310 309 309 309
309 313 321 326 326 326 326 326 326 326 325 325 324 324 324 324 323 321 321 320 318 313 307 301 299 297 300 305 304 301 301 301 306 307 308 308 308 308 308 309 307 307 308 309 309 309 310
306 307 308 318 323 324 324 325 326 326 325 326 325 325 325 324 323 322 321 320 319 315 308 300 299 298 303 302 300 301 301 302 306 305 306 306 306 308 308 308 309 310 309 309 310 309 309
303 305 306 307 309 312 315 323 324 323 325 325 325 324 323 323 322 320 321 319 317 312 303 302 300 300 304 301 303 305 303 304 307 306 307 306 306 309 309 311 311 310 308 308 308 309 309
301 304 306 306 308 313 310 315 321 321 321 323 323 323 322 321 320 320 320 316 314 307 302 302 303 304 304 304 307 305 306 306 306 306 306 307 308 310 310 310 309 309 308 308 308 308 309
302 310 309 307 306 311 316 315 310 316 320 321 320 320 319 319 319 318 316 313 304 305 302 307 305 304 304 308 306 305 306 305 306 307 309 308 309 310 310 310 309 308 308 308 308 309 308
300 309 313 312 310 308 312 316 315 312 316 319 321 317 317 319 318 317 314 311 301 303 306 304 302 303 303 304 307 305 304 306 306 308 309 309 309 310 309 308 307 308 308 308 308 308 307
301 303 309 312 312 312 312 317 315 315 313 316 316 317 316 318 316 315 313 306 300 299 303 304 302 302 303 304 303 305 305 305 306 307 307 308 308 307 307 307 307 308 308 308 307 306 306
306 302 303 308 310 313 312 313 315 315 315 312 319 314 316 317 313 312 307 302 300 301 304 310 302 302 301 303 304 302 302 304 305 305 306 307 307 306 306 306 306 307 307 305 304 305 306
304 305 304 303 305 308 311 313 313 314 315 313 312 316 314 315 314 310 306 301 302 303 317 307 305 303 303 303 303 302 301 303 306 306 306 306 305 305 306 306 305 305 304 305 305 305 306
302 303 304 305 303 305 306 310 313 315 315 313 312 311 314 313 311 308 306 303 300 307 314 305 304 304 305 303 302 302 303 303 303 305 305 306 304 304 305 304 304 304 304 305 306 306 306
300 300 301 303 304 302 305 306 312 314 316 314 312 312 315 314 310 306 301 300 305 311 305 305 305 304 306 303 302 303 304 304 305 305 306 305 305 304 303 303 304 304 305 306 307 309 308
298 299 300 301 303 303 302 305 308 314 313 314 313 313 311 312 307 302 300 304 309 309 305 302 303 304 305 303 302 302 302 304 303 303 305 305 305 303 304 304 304 305 305 305 303 305 306
296 297 297 298 301 302 301 304 305 309 313 315 314 309 307 306 304 302 301 305 313 309 305 303 303 304 304 301 302 302 302 303 303 303 303 303 302 303 303 303 302 303 303 304 304 304 305
296 296 297 298 299 302 302 302 304 309 312 314 311 305 303 301 301 301 302 307 307 302 302 303 304 305 305 303 302 302 302 301 302 301 300 302 301 301 302 302 302 302 304 305 305 307 307
294 294 296 297 299 300 302 302 305 309 312 312 308 301 299 300 299 301 304 305 303 300 301 302 303 302 303 302 302 302 301 301 301 301 301 302 301 301 301 302 302 303 304 304 306 307 309
295 295 295 297 298 298 301 303 306 308 310 310 303 300 298 300 301 301 305 304 302 301 300 301 302 302 302 302 302 301 301 301 300 302 301 302 303 303 303 303 303 303 304 305 307 309 308
296 297 297 297 297 296 299 303 307 307 310 307 299 296 297 299 304 304 303 302 301 301 301 301 302 302 301 301 302 302 301 301 301 301 301 303 303 304 304 307 306 307 305 304 306 308 309
297 298 297 297 297 296 300 304 308 308 308 307 299 301 297 298 302 304 304 303 301 301 301 301 301 301 301 302 301 301 300 301 301 301 301 303 303 303 305 302 302 303 306 306 306 309 309
297 297 298 299 298 297 302 304 307 307 309 308 301 301 301 303 302 303 303 303 301 301 301 300 300 302 302 301 301 300 301 301 300 301 301 303 302 304 303 303 303 305 305 305 304 304 306
300 299 299 299 299 298 302 304 306 307 308 307 300 301 300 302 301 303 303 302 301 301 300 301 302 302 301 300 301 301 301 302 303 302 302 302 303 304 304 305 305 306 302 304 302 300 301
299 299 300 299 301 301 303 306 306 306 307 301 300 301 302 301 303 303 304 302 302 302 301 301 301 301 301 301 301 301 301 302 303 303 304 305 304 306 308 304 305 306 302 301 300 300 302
303 301 302 301 301 303 307 307 306 305 305 305 301 302 303 302 303 302 301 301 301 302 305 301 301 302 302 301 302 302 302 302 302 302 302 304 304 306 307 306 310 302 299 299 299 298 298
306 304 303 303 304 307 308 302 301 302 302 302 300 301 301 302 301 301 301 301 301 301 301 302 301 302 301 302 303 305 305 303 303 302 303 303 305 307 308 308 304 302 300 301 302 298 296
307 305 305 306 308 303 300 299 300 300 299 299 300 300 301 302 302 301 302 301 302 302 301 301 300 301 301 304 304 307 308 308 308 307 303 305 304 306 307 308 309 303 298 297 299 303 295
303 304 303 301 299 299 299 299 299 299 298 299 299 299 300 300 300 300 302 301 301 301 301 301 300 301 301 305 306 307 307 306 307 307 307 307 307 306 307 310 304 297 296 297 304 302 293
297 298 298 298 299 299 298 298 299 300 299 299 298 299 300 300 299 299 299 299 299 300 302 300 301 301 302 305 306 306 305 305 305 303 304 305 307 308 307 308 307 294 297 302 296 292 291
298 298 298 299 300 299 299 299 299 299 299 299 298 298 299 300 297 298 297 297 298 298 300 300 301 302 303 305 304 304 303 303 304 305 300 304 302 304 301 301 293 293 294 293 293 291 290

GFSGBSN_850_thetae_120.txt.gz
Theta_e
325 325 325 326 326 327 327 325 325 325 325 325 325 325 325 325 325 324 323 323 322 322 322 321 320 320 318 315 316 311 309 308 303 307 310 310 311 312 313 314 315 315 315 314 314 314 313
323 318 322 324 324 325 326 326 327 327 326 326 325 325 325 325 324 324 324 323 323 322 322 321 320 319 312 314 313 308 309 310 310 311 310 309 309 309 311 312 312 313 313 314 313 313 312
306 315 310 311 319 319 324 326 325 325 324 325 326 325 324 325 324 324 324 324 323 323 322 320 319 314 310 314 314 310 308 306 308 310 309 310 310 311 312 313 312 312 312 313 312 312 313
302 303 305 306 307 307 309 320 324 322 321 326 325 325 325 324 324 324 323 323 323 322 321 320 317 306 310 315 311 309 308 307 307 307 308 309 310 310 310 310 311 312 312 313 314 316 313
307 305 306 302 304 306 306 308 309 313 320 324 324 324 324 324 323 323 322 321 320 321 320 319 312 313 315 310 309 309 306 307 307 308 308 308 309 309 310 311 312 314 314 315 316 315 314
306 306 303 302 301 302 304 305 306 308 309 315 319 320 324 323 323 321 320 320 318 319 315 315 311 311 314 311 309 310 309 309 307 309 309 309 309 309 310 311 312 315 316 316 316 316 314
307 306 304 302 302 303 306 307 306 306 311 311 310 313 322 321 322 320 319 317 315 314 311 316 318 316 316 316 311 310 310 310 307 308 310 311 310 311 312 314 314 315 314 314 315 315 313
303 305 307 303 300 305 311 312 310 308 311 315 315 313 313 319 320 320 318 316 311 311 312 316 315 315 315 314 313 312 310 311 311 310 310 311 312 312 314 314 314 313 313 314 313 312 313
304 304 306 307 302 304 311 312 312 311 309 313 315 315 317 318 319 318 317 317 316 310 311 316 315 315 315 314 313 312 312 310 311 312 312 313 314 315 314 312 311 312 312 313 311 311 311
302 302 304 305 306 302 307 310 313 312 311 315 316 315 318 318 318 317 316 316 313 311 316 312 314 313 315 311 310 310 311 311 311 311 311 312 312 312 312 312 311 311 311 311 310 310 309
301 302 302 304 304 306 302 308 309 313 313 313 316 316 314 315 316 315 315 316 311 311 314 313 310 307 308 309 308 308 310 309 310 312 311 310 310 310 310 310 310 310 310 310 309 309 309
300 300 301 302 302 304 306 303 305 308 312 313 314 315 315 315 315 314 313 311 309 315 316 313 309 308 309 308 308 307 306 306 307 308 308 309 310 310 309 310 309 309 308 308 308 309 310
299 299 299 300 302 302 304 306 304 305 307 310 313 314 315 314 314 314 311 308 314 317 313 313 312 310 310 309 309 308 308 307 308 308 309 310 310 310 310 308 308 308 308 309 310 312 312
297 298 299 299 298 301 302 303 305 304 305 306 313 314 315 313 313 313 306 309 316 312 313 311 311 311 310 311 309 309 308 309 309 309 309 309 311 311 310 309 308 308 308 309 308 311 311
296 296 297 298 299 298 300 301 302 304 303 305 311 312 312 313 313 311 308 313 314 312 313 314 311 310 310 310 310 309 309 309 310 310 309 309 310 308 307 307 307 307 307 307 308 307 308
296 296 295 297 297 298 297 299 300 302 302 304 310 309 311 311 311 307 309 312 313 313 314 314 312 311 311 311 309 308 309 310 309 309 308 308 307 307 307 307 306 306 306 307 307 306 307
295 295 294 294 295 296 297 298 299 300 302 304 308 306 306 308 304 305 310 312 313 313 314 311 313 311 311 311 311 310 309 307 307 306 306 305 305 305 306 306 305 306 307 305 305 305 307
293 293 293 293 295 296 297 299 297 299 302 305 305 303 302 304 302 300 309 312 311 314 313 310 310 310 311 310 311 311 309 309 305 305 305 305 305 306 306 306 306 305 305 306 308 306 306
292 292 292 292 293 295 297 297 298 298 303 305 303 299 300 301 305 305 308 311 313 313 312 308 308 308 310 310 309 309 308 305 304 305 305 305 304 305 304 305 305 304 306 307 307 309 308
295 293 293 293 293 293 294 295 298 298 303 305 302 300 298 300 301 306 310 312 312 311 311 308 307 308 309 308 308 307 307 306 304 303 302 304 304 306 305 306 306 308 310 308 308 309 308
295 294 293 294 294 294 293 295 297 297 302 304 302 302 301 301 302 304 309 310 312 313 308 307 307 308 307 307 307 306 306 306 304 303 303 303 303 305 304 303 303 305 306 306 309 308 310
294 296 295 295 295 295 294 295 297 297 300 304 303 306 303 307 303 304 305 312 312 311 308 307 307 307 307 306 306 306 306 306 305 304 303 303 303 306 304 304 305 306 307 306 308 309 308
294 294 295 295 294 294 294 295 296 296 300 303 304 305 306 306 306 305 307 310 311 311 309 306 307 307 306 305 305 306 304 304 305 304 304 305 307 304 305 308 308 309 310 310 309 307 306
295 295 295 296 295 295 295 295 296 296 298 303 304 306 306 309 307 307 307 309 310 311 309 306 306 305 305 305 304 304 304 304 304 305 305 307 306 304 308 309 309 306 304 305 306 304 304
299 296 296 296 295 295 295 295 296 296 296 303 305 306 307 310 309 308 307 309 309 308 306 306 304 304 305 304 305 304 305 305 305 306 306 307 306 308 309 309 308 304 303 304 303 303 303
300 298 297 297 296 296 295 295 295 296 296 300 305 306 307 309 310 308 309 309 310 307 305 304 305 305 304 305 306 306 306 306 307 306 305 306 306 307 308 311 311 306 303 303 303 305 302
298 299 298 298 297 296 296 296 295 296 297 298 304 305 306 309 308 308 310 310 308 306 305 305 305 305 304 306 307 306 308 308 310 308 307 306 306 308 307 308 308 304 303 303 306 305 301
298 299 299 299 298 297 297 296 296 298 297 297 303 305 306 307 307 308 308 307 305 305 306 305 304 304 305 306 306 306 310 311 310 309 307 307 307 308 307 309 310 301 301 303 301 300 300
301 299 299 299 299 299 298 297 298 297 298 300 304 304 305 305 304 304 304 304 304 304 305 304 304 304 305 305 307 310 310 309 309 309 308 309 308 308 303 304 298 299 300 300 299 299 297

GFSGBSN_850_thetae_123.txt.gz
Theta_e
326 326 326 326 327 326 325 325 325 326 324 324 324 324 324 325 325 325 324 324 324 323 323 322 322 321 319 317 317 312 311 312 310 306 310 309 309 310 310 310 310 310 311 312 312 313 313
324 324 324 324 323 325 324 325 326 326 326 326 326 326 325 325 325 325 324 324 324 323 324 323 322 321 317 313 314 310 310 311 311 311 311 309 309 309 310 311 311 312 311 311 312 312 312
306 307 318 320 308 314 317 322 322 325 325 323 324 325 325 325 324 324 323 324 324 324 322 322 321 319 316 318 315 312 311 310 309 309 309 309 309 310 311 309 311 311 309 309 310 311 309
303 303 304 308 307 306 308 316 313 316 323 325 324 324 323 325 324 323 323 323 323 323 323 321 320 316 314 318 316 313 311 310 308 307 307 309 309 310 310 310 309 308 309 309 310 311 312
304 307 305 303 304 305 305 306 306 307 311 315 323 320 319 324 324 324 324 321 322 321 322 321 318 314 315 313 310 310 310 309 307 307 308 308 308 309 309 308 308 309 310 311 312 313 311
307 309 307 306 301 300 301 302 304 305 307 309 313 320 323 323 323 323 322 320 319 320 319 316 313 312 314 313 310 310 310 309 308 307 309 309 309 307 306 306 307 310 311 311 311 313 311
304 306 307 308 305 303 302 302 302 304 305 306 309 311 314 316 322 322 321 318 318 313 313 317 316 317 317 317 315 312 310 309 310 307 308 309 307 307 306 307 309 310 312 310 310 312 311
304 305 305 305 308 302 301 307 311 310 306 306 309 314 314 317 320 321 319 318 315 314 312 317 318 317 318 317 316 314 312 311 311 307 307 307 308 309 310 310 311 312 311 310 310 312 311
304 304 304 303 307 307 302 308 311 312 310 308 310 315 315 314 317 318 318 318 316 313 308 313 314 316 316 317 315 314 314 312 310 310 310 309 310 312 312 311 312 310 310 309 309 309 308
303 303 303 303 305 306 305 305 310 311 312 311 311 315 315 313 316 315 316 316 316 312 310 313 314 315 315 315 313 313 313 313 310 309 309 309 311 312 311 310 310 308 309 309 309 307 306
301 302 302 303 302 304 305 303 306 309 311 312 312 315 315 313 314 316 315 316 315 309 312 312 309 310 313 313 308 308 309 311 310 309 310 309 310 309 309 309 309 308 309 308 307 305 305
300 301 301 301 302 302 303 305 303 306 309 312 313 314 315 315 315 314 315 315 311 312 314 312 307 308 308 309 309 307 309 308 306 307 308 308 308 307 307 309 308 308 307 306 306 305 305
299 299 300 300 300 301 302 303 305 304 306 307 310 313 314 314 314 314 313 310 313 315 313 311 309 308 308 308 308 307 306 305 304 306 306 307 307 307 308 308 308 307 306 305 307 307 307
298 298 299 299 299 300 300 301 303 305 304 304 306 311 313 315 314 314 310 310 315 312 311 313 312 309 309 310 308 308 307 305 305 305 306 307 307 308 309 308 306 307 306 308 309 307 306
298 297 297 298 298 299 299 299 301 303 305 303 305 309 312 312 312 313 309 312 312 311 312 312 312 310 310 310 310 308 306 306 307 307 306 307 308 307 307 307 306 307 305 306 306 305 305
298 297 297 296 296 297 298 299 298 301 303 303 304 308 309 311 311 308 310 312 312 311 312 313 315 311 310 309 309 308 308 309 308 308 307 307 306 307 307 307 306 304 305 303 304 306 307
298 298 297 297 296 296 297 298 298 298 301 303 304 306 307 310 308 303 308 311 311 311 312 313 314 313 310 310 309 308 309 307 307 305 305 305 304 305 305 305 305 305 304 305 304 304 304
296 297 296 296 295 296 296 296 296 297 299 302 304 305 304 307 302 301 307 309 310 311 312 313 313 309 311 311 310 310 310 310 306 305 304 304 304 303 305 305 305 304 304 305 302 304 305
294 294 294 294 294 294 294 295 297 298 299 303 304 301 302 304 306 304 305 308 310 311 312 313 314 309 308 308 309 309 307 305 304 304 304 304 303 302 303 304 306 307 308 308 308 306 306
294 293 293 293 293 293 293 293 296 298 298 302 302 299 300 301 301 304 306 308 311 310 312 312 311 307 307 307 308 307 306 305 304 303 303 303 304 303 303 304 304 303 304 306 309 309 304
293 292 293 294 293 293 293 293 294 297 298 302 302 300 300 299 301 303 307 308 309 312 310 312 312 307 307 307 306 306 306 304 304 304 303 301 302 300 302 303 303 303 302 303 303 305 305
291 291 293 294 295 295 294 293 293 296 297 301 302 303 300 302 302 303 306 309 310 311 312 309 309 306 306 305 305 305 305 304 302 303 303 302 300 297 296 303 303 303 303 303 302 303 302
292 292 293 293 294 295 294 294 293 295 296 299 301 303 303 303 302 303 305 306 309 309 311 308 307 306 306 306 305 304 304 304 304 303 302 301 299 296 300 305 308 304 301 303 303 305 306
291 292 292 292 293 294 295 294 294 294 295 299 302 302 305 303 302 303 304 305 307 310 306 310 307 305 305 304 304 304 303 304 304 304 303 300 299 301 302 303 307 300 303 304 305 305 301
293 293 293 293 294 294 295 296 295 294 295 297 302 303 305 304 305 304 304 304 306 308 309 307 306 306 305 304 304 304 303 304 305 304 304 302 301 300 302 305 305 304 303 304 303 304 301
294 293 294 294 294 295 295 296 295 294 295 297 299 304 305 303 304 306 305 306 305 307 306 305 304 304 304 303 303 304 306 306 305 305 306 304 302 301 305 309 310 305 304 303 303 303 302
297 296 295 295 295 295 295 296 294 294 295 296 298 302 305 306 305 308 306 305 308 305 304 305 305 305 304 303 305 305 306 306 308 307 306 306 305 305 304 306 305 303 303 303 304 301 300
298 297 297 297 297 296 296 295 294 295 295 296 298 300 304 305 306 307 308 307 308 305 303 304 303 303 304 304 305 305 305 304 309 308 305 306 304 304 304 307 307 301 301 303 300 301 300
301 298 298 298 298 297 296 295 295 295 296 296 298 299 303 305 304 305 304 307 308 306 305 304 304 304 304 304 304 304 305 305 307 310 306 306 304 303 303 301 298 299 300 300 300 299 297

GFSGBSN_850_thetae_126.txt.gz
Theta_e
325 325 326 326 327 326 325 325 324 324 325 324 324 323 324 324 324 324 324 325 324 324 324 323 323 323 321 320 319 316 313 314 312 310 309 309 309 308 308 308 309 308 310 311 311 311 311
323 322 323 324 325 325 326 325 325 325 324 326 326 325 325 325 325 324 324 324 325 324 325 323 323 322 321 316 318 315 314 314 311 310 311 310 309 309 309 309 310 310 309 309 310 310 310
315 319 317 315 320 323 324 323 317 322 323 324 325 325 324 323 324 324 323 321 322 323 324 323 322 322 319 322 318 316 315 314 313 309 308 309 308 309 310 309 310 309 308 308 309 310 309
304 305 305 305 305 306 311 318 310 314 320 323 323 323 322 323 322 323 323 321 322 323 323 322 322 321 318 321 318 316 314 312 312 309 308 308 308 308 309 309 309 308 308 309 310 310 312
301 307 309 308 304 306 305 305 307 306 312 314 318 321 322 322 321 322 323 323 323 322 322 320 319 319 317 318 313 311 312 312 309 307 307 308 307 308 308 307 305 307 307 310 311 312 311
305 308 309 309 308 306 302 303 303 305 306 309 309 316 313 321 321 321 322 321 320 321 320 319 315 314 317 318 313 312 311 310 309 309 307 308 308 306 304 303 306 307 308 309 309 310 310
305 305 308 308 308 307 304 301 301 302 304 306 306 309 311 317 321 321 321 319 319 319 316 320 317 317 315 314 313 311 311 310 308 309 306 308 306 306 305 305 306 306 307 307 308 309 309
304 305 305 305 307 307 305 303 302 305 305 304 305 306 311 312 315 318 320 319 317 312 313 316 318 317 319 319 317 318 315 309 309 307 305 305 306 307 307 308 308 308 308 309 308 309 309
304 304 304 304 304 306 307 303 306 309 309 308 307 308 312 313 312 316 316 316 316 315 312 314 315 315 315 315 315 315 316 312 310 309 308 304 306 309 308 308 309 309 309 308 308 307 307
303 303 303 302 303 303 306 305 307 308 311 311 310 309 314 315 314 313 314 317 314 313 308 310 313 312 314 315 315 315 316 314 308 309 308 307 308 309 309 310 308 308 308 308 307 305 305
302 302 302 302 302 303 304 305 303 308 309 310 311 310 312 314 312 313 312 314 316 312 304 308 311 311 314 316 310 310 315 313 311 308 308 308 309 308 307 308 308 308 307 306 306 304 304
301 301 301 301 302 302 303 303 305 303 308 309 311 310 312 314 313 313 313 314 313 309 310 312 307 308 310 310 308 308 309 308 308 307 307 307 308 306 305 307 307 307 306 304 304 303 305
299 299 300 301 301 301 302 302 304 305 305 307 309 311 312 312 314 312 314 311 313 312 311 311 307 307 308 308 308 305 305 304 304 305 304 306 306 306 306 305 306 305 303 304 305 306 306
301 300 299 299 300 300 300 301 302 304 305 304 306 310 312 314 313 313 313 310 313 311 312 311 309 307 307 307 307 307 304 304 303 304 304 305 306 307 307 306 305 305 304 305 309 309 305
301 300 300 298 299 299 299 300 301 302 304 304 304 307 310 311 313 312 309 311 310 310 311 311 310 308 308 308 307 306 304 304 304 303 305 306 306 306 305 306 306 306 304 305 305 304 304
298 300 300 299 298 298 298 299 299 301 302 304 303 305 308 309 311 309 309 311 311 310 310 311 313 311 308 308 308 306 305 306 306 306 305 306 306 306 306 306 305 304 304 304 304 307 306
298 299 300 299 298 297 296 298 299 299 300 302 303 307 306 309 310 306 309 310 311 310 310 312 313 314 311 308 307 306 308 307 306 304 304 303 304 304 304 304 304 304 302 303 303 304 305
297 298 299 299 298 298 297 296 297 298 298 301 303 303 304 306 304 300 306 308 310 311 310 310 312 312 309 310 309 308 308 308 305 304 303 303 302 303 303 304 303 304 303 304 303 305 303
296 297 299 299 298 298 297 296 297 297 298 300 302 302 303 304 306 304 304 307 308 311 310 311 313 312 308 307 308 309 306 304 304 303 303 303 301 301 303 302 305 305 306 307 306 303 303
294 295 296 296 297 297 297 296 296 296 296 299 302 300 302 301 304 304 304 306 307 309 309 310 312 311 308 306 308 306 304 305 303 303 303 303 302 302 303 303 303 302 302 302 306 303 305
294 295 295 295 295 295 295 295 294 295 297 298 300 300 301 302 301 303 304 305 306 308 310 310 311 311 307 306 308 306 304 303 303 303 302 300 302 298 301 302 303 302 301 302 300 303 305
294 294 294 294 294 294 294 294 294 293 297 299 299 299 301 299 302 303 305 306 306 307 308 310 311 312 309 306 306 305 303 302 301 302 302 300 299 294 293 302 302 302 301 301 302 302 299
294 294 293 293 293 293 293 294 293 293 295 298 299 300 301 300 301 303 304 304 306 307 308 308 308 308 305 304 305 304 305 304 303 301 301 298 297 294 297 302 304 305 302 300 299 301 302
293 293 292 292 292 292 293 294 294 294 294 297 297 300 301 300 301 302 303 304 305 306 305 308 309 306 305 304 304 304 303 303 302 302 302 299 298 299 302 301 305 301 302 303 303 303 300
291 291 292 292 292 292 292 293 295 295 293 294 297 299 302 299 302 302 302 303 304 305 306 306 306 307 304 304 302 302 300 302 303 302 301 301 299 300 301 304 303 304 303 303 303 303 300
292 292 292 292 291 291 292 293 295 295 293 294 296 298 301 301 302 303 302 303 302 303 305 305 305 305 304 302 302 303 304 302 304 304 302 301 300 300 302 306 306 303 304 303 303 299 299
292 292 293 292 293 292 293 293 294 294 294 294 295 297 299 303 304 304 302 303 304 303 303 304 304 304 304 301 303 304 304 305 306 305 306 304 303 303 303 304 304 304 302 303 300 300 299
294 294 294 293 293 293 293 292 294 295 294 294 295 296 297 302 304 304 305 305 305 305 301 303 303 303 300 303 303 303 304 306 307 307 306 306 305 305 305 305 304 301 302 302 299 299 297
297 297 295 294 294 294 293 292 293 295 295 295 296 296 298 298 303 304 305 306 305 306 305 304 303 302 302 301 302 304 304 304 305 307 306 306 303 301 301 301 297 299 300 300 300 299 297

GFSGBSN_850_thetae_129.txt.gz
Theta_e
323 323 324 324 325 325 323 324 324 324 324 323 324 324 323 323 323 324 324 323 324 324 325 324 324 323 322 322 321 319 317 315 312 311 310 310 308 308 306 306 308 307 308 309 310 310 310
321 323 323 324 324 325 325 325 325 324 324 324 324 323 323 325 324 324 324 323 324 322 323 324 324 323 322 318 320 319 318 315 313 311 311 309 308 308 308 309 308 309 308 308 309 310 309
317 319 320 321 322 323 324 324 324 325 324 320 323 324 324 325 325 325 324 323 322 321 322 323 324 324 322 323 321 319 319 314 313 312 310 308 307 308 308 308 309 309 307 306 308 309 308
306 305 308 308 311 318 321 318 315 320 323 317 317 323 324 325 323 323 323 323 323 322 322 323 323 322 322 322 320 321 318 313 312 311 309 308 307 307 308 308 308 307 306 307 309 310 310
307 305 305 310 309 308 308 307 313 310 312 317 311 319 324 321 323 322 320 321 322 322 322 322 321 321 319 320 319 313 313 312 313 308 307 308 307 308 308 305 304 304 306 308 309 310 310
306 305 305 308 309 308 310 307 308 306 305 306 308 314 318 322 321 321 319 320 322 321 319 320 318 317 320 320 312 312 312 311 310 309 308 307 308 304 302 302 306 307 307 307 307 308 308
304 305 305 307 307 308 308 306 304 304 304 305 306 308 311 311 317 316 319 320 320 319 318 321 318 319 315 314 314 313 311 311 309 309 305 307 304 305 304 303 305 305 305 304 304 306 307
304 304 305 305 306 307 307 307 305 302 307 304 306 306 307 311 315 318 320 319 318 313 314 316 317 317 319 317 316 315 313 310 307 307 304 303 305 306 306 306 306 306 306 306 306 306 307
304 304 303 304 304 304 306 307 304 304 312 310 307 307 311 312 313 315 316 317 317 315 313 314 315 317 317 318 317 317 316 314 308 307 305 303 305 306 306 306 307 307 307 307 307 306 305
303 303 303 303 303 303 304 305 305 307 309 309 308 309 313 314 313 313 315 316 315 314 309 309 311 311 314 315 315 312 315 314 308 309 308 307 308 308 307 307 308 308 307 307 306 304 304
302 303 303 303 303 302 302 304 305 305 306 308 310 309 309 312 312 311 312 314 315 311 307 307 311 312 313 314 311 313 315 314 309 308 307 308 308 307 307 308 306 306 306 306 305 304 303
302 302 302 303 302 302 302 302 304 304 306 307 310 309 310 312 311 310 311 315 314 309 309 308 308 310 315 315 307 308 312 312 312 309 308 306 308 306 306 306 306 306 305 304 302 302 304
303 302 301 302 302 301 302 302 302 303 304 307 308 310 311 311 311 312 312 314 312 311 309 311 307 308 311 308 307 305 305 304 304 306 305 305 305 305 306 305 305 304 303 304 305 305 305
302 302 301 300 300 300 301 301 302 303 304 304 307 309 310 312 312 312 313 310 314 311 310 311 307 307 310 307 307 305 304 305 303 303 303 304 306 306 305 305 305 303 303 305 307 308 306
301 301 301 301 300 300 300 301 301 302 303 304 305 308 311 310 312 312 310 312 311 310 311 310 308 307 307 307 307 306 303 303 303 302 304 304 305 306 305 305 305 305 304 304 305 304 304
299 299 299 301 301 299 299 300 300 301 302 304 304 305 308 310 311 310 310 311 310 309 310 310 310 308 307 307 307 305 304 305 305 303 304 305 306 305 305 305 304 304 303 304 305 307 308
298 299 299 300 301 300 299 299 299 300 302 303 303 305 306 308 309 307 309 311 309 309 310 311 311 313 311 308 307 305 306 306 305 305 303 303 304 304 304 303 303 303 302 303 304 304 305
295 296 298 298 299 300 299 298 298 299 299 302 303 303 304 306 305 302 306 308 309 310 310 310 311 312 311 308 309 306 307 307 305 303 303 302 302 302 303 303 302 303 303 303 303 304 303
295 295 296 297 298 299 299 298 297 298 299 300 303 302 304 306 306 304 304 306 308 309 309 309 310 310 310 308 308 307 305 303 303 302 302 302 301 301 304 302 303 303 305 304 305 302 305
294 294 295 296 298 299 299 298 297 297 298 299 301 301 302 301 304 304 304 306 308 307 308 309 311 311 310 306 306 306 304 304 303 304 304 303 301 303 306 304 302 302 303 304 302 301 304
294 294 294 295 296 300 298 298 297 297 297 298 300 301 301 301 303 304 303 304 306 307 308 309 309 310 308 308 307 305 304 302 302 303 301 300 302 297 300 302 302 302 302 302 300 302 302
294 294 294 294 295 297 298 298 297 297 297 297 299 299 300 299 302 302 304 304 304 306 307 308 308 309 308 307 304 305 304 303 303 302 301 299 300 293 292 300 301 301 301 300 299 300 299
294 294 294 294 294 296 297 297 297 296 295 296 298 300 300 300 299 303 302 303 304 304 305 306 307 307 308 309 307 306 307 307 305 302 301 298 295 294 298 302 302 301 302 301 300 300 301
293 293 293 293 295 295 295 296 296 296 295 296 298 300 300 299 300 301 302 302 302 303 302 307 306 305 306 306 304 304 303 302 302 301 300 296 295 297 298 300 300 299 301 301 301 301 300
293 293 294 294 294 295 295 294 294 295 295 294 297 299 300 299 300 301 301 302 302 303 305 305 306 307 308 305 305 303 301 302 302 301 300 297 298 299 302 301 300 303 303 303 303 302 299
292 292 293 294 294 294 294 294 293 293 294 294 294 297 299 301 300 301 301 302 301 302 302 305 305 306 306 302 301 304 304 302 303 303 300 299 298 300 302 302 304 303 304 303 301 298 297
291 291 292 293 293 293 293 292 292 293 294 294 295 294 298 298 301 301 301 301 302 301 300 303 304 304 304 302 305 304 304 303 304 304 303 301 299 302 303 304 304 302 302 302 299 299 297
291 290 291 292 292 293 293 292 292 293 294 295 295 295 296 298 301 302 303 303 302 302 299 302 304 304 302 304 304 302 301 303 303 304 304 304 303 303 304 304 304 302 301 302 299 299 298
292 292 291 291 292 292 292 291 292 292 294 295 295 295 295 296 298 301 303 304 303 303 303 305 303 301 302 303 301 302 304 300 301 302 305 306 304 303 303 303 298 300 299 300 300 300 298